<?xml version="1.0" encoding="UTF-8" standalone="no" ?>
<gpx xmlns="http://www.topografix.com/GPX/1/1" xmlns:xsi="http://www.w3.org/2001/XMLSchema-instance" xsi:schemaLocation="http://www.topografix.com/GPX/1/1 http://www.topografix.com/GPX/1/1/gpx.xsd" version="1.1" creator="VisuGPX - https://www.visugpx.com">
  <metadata>
    <name>Pernes 2</name>
  </metadata>
  <trk>
    <name><![CDATA[Circuit VTT n°11 - Les contreforts des Monts de Vaucluse]]></name>
    <trkseg>
      <trkpt lat="43.99883" lon="5.06757">
        <ele>92</ele>
        <time>2019-12-08T15:49:02.854Z</time>
      </trkpt>
      <trkpt lat="43.99882" lon="5.06754">
        <ele>92</ele>
        <time>2019-12-08T15:49:03.854Z</time>
      </trkpt>
      <trkpt lat="43.99885" lon="5.06751">
        <ele>92</ele>
        <time>2019-12-08T15:49:04.854Z</time>
      </trkpt>
      <trkpt lat="43.99924" lon="5.0674">
        <ele>92</ele>
        <time>2019-12-08T15:49:05.854Z</time>
      </trkpt>
      <trkpt lat="43.99931" lon="5.06737">
        <ele>92</ele>
        <time>2019-12-08T15:49:06.854Z</time>
      </trkpt>
      <trkpt lat="43.99932" lon="5.06732">
        <ele>92</ele>
        <time>2019-12-08T15:49:07.854Z</time>
      </trkpt>
      <trkpt lat="43.99932" lon="5.06732">
        <ele>92</ele>
        <time>2019-12-08T15:49:08.854Z</time>
      </trkpt>
      <trkpt lat="43.99934" lon="5.06734">
        <ele>92</ele>
        <time>2019-12-08T15:49:09.854Z</time>
      </trkpt>
      <trkpt lat="43.99934" lon="5.06734">
        <ele>92</ele>
        <time>2019-12-08T15:49:10.854Z</time>
      </trkpt>
      <trkpt lat="43.99935" lon="5.06728">
        <ele>92</ele>
        <time>2019-12-08T15:49:11.854Z</time>
      </trkpt>
      <trkpt lat="43.99935" lon="5.06723">
        <ele>92</ele>
        <time>2019-12-08T15:49:12.854Z</time>
      </trkpt>
      <trkpt lat="43.99931" lon="5.06695">
        <ele>92</ele>
        <time>2019-12-08T15:49:13.854Z</time>
      </trkpt>
      <trkpt lat="43.9993" lon="5.06648">
        <ele>92</ele>
        <time>2019-12-08T15:49:14.854Z</time>
      </trkpt>
      <trkpt lat="43.99929" lon="5.06595">
        <ele>91</ele>
        <time>2019-12-08T15:49:15.854Z</time>
      </trkpt>
      <trkpt lat="43.99928" lon="5.06589">
        <ele>91</ele>
        <time>2019-12-08T15:49:16.854Z</time>
      </trkpt>
      <trkpt lat="43.99912" lon="5.0657">
        <ele>91</ele>
        <time>2019-12-08T15:49:17.854Z</time>
      </trkpt>
      <trkpt lat="43.99912" lon="5.06565">
        <ele>91</ele>
        <time>2019-12-08T15:49:18.854Z</time>
      </trkpt>
      <trkpt lat="43.99913" lon="5.06553">
        <ele>91</ele>
        <time>2019-12-08T15:49:19.854Z</time>
      </trkpt>
      <trkpt lat="43.99915" lon="5.06546">
        <ele>91</ele>
        <time>2019-12-08T15:49:20.854Z</time>
      </trkpt>
      <trkpt lat="43.99915" lon="5.06536">
        <ele>90</ele>
        <time>2019-12-08T15:49:21.854Z</time>
      </trkpt>
      <trkpt lat="43.99915" lon="5.06516">
        <ele>90</ele>
        <time>2019-12-08T15:49:22.854Z</time>
      </trkpt>
      <trkpt lat="43.99923" lon="5.06382">
        <ele>91</ele>
        <time>2019-12-08T15:49:23.854Z</time>
      </trkpt>
      <trkpt lat="43.99922" lon="5.06374">
        <ele>90</ele>
        <time>2019-12-08T15:49:24.854Z</time>
      </trkpt>
      <trkpt lat="43.9992" lon="5.06368">
        <ele>90</ele>
        <time>2019-12-08T15:49:25.854Z</time>
      </trkpt>
      <trkpt lat="43.9992" lon="5.06369">
        <ele>90</ele>
        <time>2019-12-08T15:49:26.854Z</time>
      </trkpt>
      <trkpt lat="43.99918" lon="5.06362">
        <ele>90</ele>
        <time>2019-12-08T15:49:27.854Z</time>
      </trkpt>
      <trkpt lat="43.99905" lon="5.06322">
        <ele>90</ele>
        <time>2019-12-08T15:49:28.854Z</time>
      </trkpt>
      <trkpt lat="43.99893" lon="5.06286">
        <ele>88</ele>
        <time>2019-12-08T15:49:29.854Z</time>
      </trkpt>
      <trkpt lat="43.99877" lon="5.06243">
        <ele>87</ele>
        <time>2019-12-08T15:49:30.854Z</time>
      </trkpt>
      <trkpt lat="43.99869" lon="5.06218">
        <ele>87</ele>
        <time>2019-12-08T15:49:31.854Z</time>
      </trkpt>
      <trkpt lat="43.99868" lon="5.06214">
        <ele>87</ele>
        <time>2019-12-08T15:49:32.854Z</time>
      </trkpt>
      <trkpt lat="43.99865" lon="5.06211">
        <ele>87</ele>
        <time>2019-12-08T15:49:33.854Z</time>
      </trkpt>
      <trkpt lat="43.9986" lon="5.06211">
        <ele>87</ele>
        <time>2019-12-08T15:49:34.854Z</time>
      </trkpt>
      <trkpt lat="43.9986" lon="5.0621">
        <ele>87</ele>
        <time>2019-12-08T15:49:35.854Z</time>
      </trkpt>
      <trkpt lat="43.9983" lon="5.06218">
        <ele>88</ele>
        <time>2019-12-08T15:49:36.854Z</time>
      </trkpt>
      <trkpt lat="43.99799" lon="5.06224">
        <ele>89</ele>
        <time>2019-12-08T15:49:37.854Z</time>
      </trkpt>
      <trkpt lat="43.99787" lon="5.06223">
        <ele>89</ele>
        <time>2019-12-08T15:49:38.854Z</time>
      </trkpt>
      <trkpt lat="43.99771" lon="5.0622">
        <ele>90</ele>
        <time>2019-12-08T15:49:39.854Z</time>
      </trkpt>
      <trkpt lat="43.99754" lon="5.06215">
        <ele>91</ele>
        <time>2019-12-08T15:49:40.854Z</time>
      </trkpt>
      <trkpt lat="43.99749" lon="5.06212">
        <ele>91</ele>
        <time>2019-12-08T15:49:41.854Z</time>
      </trkpt>
      <trkpt lat="43.99741" lon="5.06206">
        <ele>92</ele>
        <time>2019-12-08T15:49:42.854Z</time>
      </trkpt>
      <trkpt lat="43.99737" lon="5.06198">
        <ele>92</ele>
        <time>2019-12-08T15:49:43.854Z</time>
      </trkpt>
      <trkpt lat="43.99733" lon="5.06194">
        <ele>92</ele>
        <time>2019-12-08T15:49:44.854Z</time>
      </trkpt>
      <trkpt lat="43.99729" lon="5.06185">
        <ele>93</ele>
        <time>2019-12-08T15:49:45.854Z</time>
      </trkpt>
      <trkpt lat="43.99723" lon="5.06161">
        <ele>94</ele>
        <time>2019-12-08T15:49:46.854Z</time>
      </trkpt>
      <trkpt lat="43.99721" lon="5.06155">
        <ele>94</ele>
        <time>2019-12-08T15:49:47.854Z</time>
      </trkpt>
      <trkpt lat="43.9971" lon="5.06124">
        <ele>95</ele>
        <time>2019-12-08T15:49:48.854Z</time>
      </trkpt>
      <trkpt lat="43.99706" lon="5.06116">
        <ele>96</ele>
        <time>2019-12-08T15:49:49.854Z</time>
      </trkpt>
      <trkpt lat="43.99702" lon="5.06094">
        <ele>96</ele>
        <time>2019-12-08T15:49:50.854Z</time>
      </trkpt>
      <trkpt lat="43.99689" lon="5.05994">
        <ele>96</ele>
        <time>2019-12-08T15:49:51.854Z</time>
      </trkpt>
      <trkpt lat="43.99688" lon="5.05989">
        <ele>96</ele>
        <time>2019-12-08T15:49:52.854Z</time>
      </trkpt>
      <trkpt lat="43.99687" lon="5.05988">
        <ele>96</ele>
        <time>2019-12-08T15:49:53.854Z</time>
      </trkpt>
      <trkpt lat="43.99687" lon="5.05985">
        <ele>96</ele>
        <time>2019-12-08T15:49:54.854Z</time>
      </trkpt>
      <trkpt lat="43.99683" lon="5.05965">
        <ele>96</ele>
        <time>2019-12-08T15:49:55.854Z</time>
      </trkpt>
      <trkpt lat="43.99678" lon="5.05941">
        <ele>95</ele>
        <time>2019-12-08T15:49:56.854Z</time>
      </trkpt>
      <trkpt lat="43.99675" lon="5.05934">
        <ele>95</ele>
        <time>2019-12-08T15:49:57.854Z</time>
      </trkpt>
      <trkpt lat="43.99655" lon="5.05902">
        <ele>96</ele>
        <time>2019-12-08T15:49:58.854Z</time>
      </trkpt>
      <trkpt lat="43.99644" lon="5.05875">
        <ele>96</ele>
        <time>2019-12-08T15:49:59.854Z</time>
      </trkpt>
      <trkpt lat="43.99644" lon="5.05871">
        <ele>96</ele>
        <time>2019-12-08T15:50:00.854Z</time>
      </trkpt>
      <trkpt lat="43.99643" lon="5.0587">
        <ele>96</ele>
        <time>2019-12-08T15:50:01.854Z</time>
      </trkpt>
      <trkpt lat="43.99642" lon="5.05861">
        <ele>96</ele>
        <time>2019-12-08T15:50:02.854Z</time>
      </trkpt>
      <trkpt lat="43.99626" lon="5.05812">
        <ele>96</ele>
        <time>2019-12-08T15:50:03.854Z</time>
      </trkpt>
      <trkpt lat="43.99618" lon="5.0579">
        <ele>95</ele>
        <time>2019-12-08T15:50:04.854Z</time>
      </trkpt>
      <trkpt lat="43.99613" lon="5.0577">
        <ele>95</ele>
        <time>2019-12-08T15:50:05.854Z</time>
      </trkpt>
      <trkpt lat="43.99611" lon="5.05765">
        <ele>94</ele>
        <time>2019-12-08T15:50:06.854Z</time>
      </trkpt>
      <trkpt lat="43.99609" lon="5.0576">
        <ele>94</ele>
        <time>2019-12-08T15:50:07.854Z</time>
      </trkpt>
      <trkpt lat="43.99607" lon="5.05759">
        <ele>94</ele>
        <time>2019-12-08T15:50:08.854Z</time>
      </trkpt>
      <trkpt lat="43.99606" lon="5.05759">
        <ele>94</ele>
        <time>2019-12-08T15:50:09.854Z</time>
      </trkpt>
      <trkpt lat="43.99606" lon="5.05758">
        <ele>94</ele>
        <time>2019-12-08T15:50:10.854Z</time>
      </trkpt>
      <trkpt lat="43.99603" lon="5.0575">
        <ele>94</ele>
        <time>2019-12-08T15:50:11.854Z</time>
      </trkpt>
      <trkpt lat="43.99589" lon="5.05732">
        <ele>94</ele>
        <time>2019-12-08T15:50:12.854Z</time>
      </trkpt>
      <trkpt lat="43.99572" lon="5.05719">
        <ele>94</ele>
        <time>2019-12-08T15:50:13.854Z</time>
      </trkpt>
      <trkpt lat="43.99569" lon="5.05717">
        <ele>94</ele>
        <time>2019-12-08T15:50:14.854Z</time>
      </trkpt>
      <trkpt lat="43.99539" lon="5.05687">
        <ele>95</ele>
        <time>2019-12-08T15:50:15.854Z</time>
      </trkpt>
      <trkpt lat="43.99513" lon="5.05656">
        <ele>93</ele>
        <time>2019-12-08T15:50:16.854Z</time>
      </trkpt>
      <trkpt lat="43.99506" lon="5.05644">
        <ele>93</ele>
        <time>2019-12-08T15:50:17.854Z</time>
      </trkpt>
      <trkpt lat="43.99499" lon="5.05631">
        <ele>93</ele>
        <time>2019-12-08T15:50:18.854Z</time>
      </trkpt>
      <trkpt lat="43.99481" lon="5.0559">
        <ele>92</ele>
        <time>2019-12-08T15:50:19.854Z</time>
      </trkpt>
      <trkpt lat="43.99467" lon="5.05565">
        <ele>91</ele>
        <time>2019-12-08T15:50:20.854Z</time>
      </trkpt>
      <trkpt lat="43.99459" lon="5.05555">
        <ele>91</ele>
        <time>2019-12-08T15:50:21.854Z</time>
      </trkpt>
      <trkpt lat="43.99455" lon="5.0555">
        <ele>91</ele>
        <time>2019-12-08T15:50:22.854Z</time>
      </trkpt>
      <trkpt lat="43.99424" lon="5.05524">
        <ele>91</ele>
        <time>2019-12-08T15:50:23.854Z</time>
      </trkpt>
      <trkpt lat="43.99416" lon="5.05517">
        <ele>91</ele>
        <time>2019-12-08T15:50:24.854Z</time>
      </trkpt>
      <trkpt lat="43.99409" lon="5.05505">
        <ele>91</ele>
        <time>2019-12-08T15:50:25.854Z</time>
      </trkpt>
      <trkpt lat="43.99396" lon="5.05493">
        <ele>91</ele>
        <time>2019-12-08T15:50:26.854Z</time>
      </trkpt>
      <trkpt lat="43.99392" lon="5.05488">
        <ele>91</ele>
        <time>2019-12-08T15:50:27.854Z</time>
      </trkpt>
      <trkpt lat="43.99378" lon="5.05466">
        <ele>91</ele>
        <time>2019-12-08T15:50:28.854Z</time>
      </trkpt>
      <trkpt lat="43.99375" lon="5.05462">
        <ele>91</ele>
        <time>2019-12-08T15:50:29.854Z</time>
      </trkpt>
      <trkpt lat="43.99357" lon="5.05432">
        <ele>90</ele>
        <time>2019-12-08T15:50:30.854Z</time>
      </trkpt>
      <trkpt lat="43.99345" lon="5.05414">
        <ele>90</ele>
        <time>2019-12-08T15:50:31.854Z</time>
      </trkpt>
      <trkpt lat="43.99321" lon="5.05373">
        <ele>89</ele>
        <time>2019-12-08T15:50:32.854Z</time>
      </trkpt>
      <trkpt lat="43.99292" lon="5.05326">
        <ele>88</ele>
        <time>2019-12-08T15:50:33.854Z</time>
      </trkpt>
      <trkpt lat="43.99264" lon="5.05309">
        <ele>89</ele>
        <time>2019-12-08T15:50:34.854Z</time>
      </trkpt>
      <trkpt lat="43.99258" lon="5.05308">
        <ele>90</ele>
        <time>2019-12-08T15:50:35.854Z</time>
      </trkpt>
      <trkpt lat="43.99233" lon="5.053">
        <ele>90</ele>
        <time>2019-12-08T15:50:36.854Z</time>
      </trkpt>
      <trkpt lat="43.99197" lon="5.05285">
        <ele>91</ele>
        <time>2019-12-08T15:50:37.854Z</time>
      </trkpt>
      <trkpt lat="43.99192" lon="5.0528">
        <ele>91</ele>
        <time>2019-12-08T15:50:38.854Z</time>
      </trkpt>
      <trkpt lat="43.99168" lon="5.0525">
        <ele>90</ele>
        <time>2019-12-08T15:50:39.854Z</time>
      </trkpt>
      <trkpt lat="43.99138" lon="5.0522">
        <ele>90</ele>
        <time>2019-12-08T15:50:40.854Z</time>
      </trkpt>
      <trkpt lat="43.99133" lon="5.05216">
        <ele>90</ele>
        <time>2019-12-08T15:50:41.854Z</time>
      </trkpt>
      <trkpt lat="43.9911" lon="5.05204">
        <ele>91</ele>
        <time>2019-12-08T15:50:42.854Z</time>
      </trkpt>
      <trkpt lat="43.99082" lon="5.05185">
        <ele>92</ele>
        <time>2019-12-08T15:50:43.854Z</time>
      </trkpt>
      <trkpt lat="43.99077" lon="5.0518">
        <ele>92</ele>
        <time>2019-12-08T15:50:44.854Z</time>
      </trkpt>
      <trkpt lat="43.99044" lon="5.05141">
        <ele>94</ele>
        <time>2019-12-08T15:50:45.854Z</time>
      </trkpt>
      <trkpt lat="43.9903" lon="5.05121">
        <ele>93</ele>
        <time>2019-12-08T15:50:46.854Z</time>
      </trkpt>
      <trkpt lat="43.99027" lon="5.05117">
        <ele>93</ele>
        <time>2019-12-08T15:50:47.854Z</time>
      </trkpt>
      <trkpt lat="43.99015" lon="5.05105">
        <ele>93</ele>
        <time>2019-12-08T15:50:48.854Z</time>
      </trkpt>
      <trkpt lat="43.99011" lon="5.05101">
        <ele>93</ele>
        <time>2019-12-08T15:50:49.854Z</time>
      </trkpt>
      <trkpt lat="43.98978" lon="5.05077">
        <ele>93</ele>
        <time>2019-12-08T15:50:50.854Z</time>
      </trkpt>
      <trkpt lat="43.98958" lon="5.05066">
        <ele>94</ele>
        <time>2019-12-08T15:50:51.854Z</time>
      </trkpt>
      <trkpt lat="43.98956" lon="5.05063">
        <ele>94</ele>
        <time>2019-12-08T15:50:52.854Z</time>
      </trkpt>
      <trkpt lat="43.98953" lon="5.05063">
        <ele>94</ele>
        <time>2019-12-08T15:50:53.854Z</time>
      </trkpt>
      <trkpt lat="43.98953" lon="5.05063">
        <ele>94</ele>
        <time>2019-12-08T15:50:54.854Z</time>
      </trkpt>
      <trkpt lat="43.98951" lon="5.05061">
        <ele>94</ele>
        <time>2019-12-08T15:50:55.854Z</time>
      </trkpt>
      <trkpt lat="43.98949" lon="5.0506">
        <ele>94</ele>
        <time>2019-12-08T15:50:56.854Z</time>
      </trkpt>
      <trkpt lat="43.98936" lon="5.05056">
        <ele>95</ele>
        <time>2019-12-08T15:50:57.854Z</time>
      </trkpt>
      <trkpt lat="43.98921" lon="5.0505">
        <ele>95</ele>
        <time>2019-12-08T15:50:58.854Z</time>
      </trkpt>
      <trkpt lat="43.98916" lon="5.05049">
        <ele>95</ele>
        <time>2019-12-08T15:50:59.854Z</time>
      </trkpt>
      <trkpt lat="43.98903" lon="5.05041">
        <ele>95</ele>
        <time>2019-12-08T15:51:00.854Z</time>
      </trkpt>
      <trkpt lat="43.98899" lon="5.05039">
        <ele>94</ele>
        <time>2019-12-08T15:51:01.854Z</time>
      </trkpt>
      <trkpt lat="43.98884" lon="5.05025">
        <ele>93</ele>
        <time>2019-12-08T15:51:02.854Z</time>
      </trkpt>
      <trkpt lat="43.98868" lon="5.05014">
        <ele>92</ele>
        <time>2019-12-08T15:51:03.854Z</time>
      </trkpt>
      <trkpt lat="43.98863" lon="5.05011">
        <ele>92</ele>
        <time>2019-12-08T15:51:04.854Z</time>
      </trkpt>
      <trkpt lat="43.98829" lon="5.04993">
        <ele>92</ele>
        <time>2019-12-08T15:51:05.854Z</time>
      </trkpt>
      <trkpt lat="43.98804" lon="5.04981">
        <ele>92</ele>
        <time>2019-12-08T15:51:06.854Z</time>
      </trkpt>
      <trkpt lat="43.98775" lon="5.04966">
        <ele>91</ele>
        <time>2019-12-08T15:51:07.854Z</time>
      </trkpt>
      <trkpt lat="43.98769" lon="5.04963">
        <ele>91</ele>
        <time>2019-12-08T15:51:08.854Z</time>
      </trkpt>
      <trkpt lat="43.98734" lon="5.04952">
        <ele>90</ele>
        <time>2019-12-08T15:51:09.854Z</time>
      </trkpt>
      <trkpt lat="43.98728" lon="5.04952">
        <ele>90</ele>
        <time>2019-12-08T15:51:10.854Z</time>
      </trkpt>
      <trkpt lat="43.98705" lon="5.04962">
        <ele>89</ele>
        <time>2019-12-08T15:51:11.854Z</time>
      </trkpt>
      <trkpt lat="43.987" lon="5.04967">
        <ele>89</ele>
        <time>2019-12-08T15:51:12.854Z</time>
      </trkpt>
      <trkpt lat="43.98689" lon="5.04986">
        <ele>89</ele>
        <time>2019-12-08T15:51:13.854Z</time>
      </trkpt>
      <trkpt lat="43.98686" lon="5.04994">
        <ele>89</ele>
        <time>2019-12-08T15:51:14.854Z</time>
      </trkpt>
      <trkpt lat="43.98685" lon="5.05001">
        <ele>89</ele>
        <time>2019-12-08T15:51:15.854Z</time>
      </trkpt>
      <trkpt lat="43.98683" lon="5.05023">
        <ele>89</ele>
        <time>2019-12-08T15:51:16.854Z</time>
      </trkpt>
      <trkpt lat="43.98683" lon="5.0503">
        <ele>89</ele>
        <time>2019-12-08T15:51:17.854Z</time>
      </trkpt>
      <trkpt lat="43.98684" lon="5.05048">
        <ele>89</ele>
        <time>2019-12-08T15:51:18.854Z</time>
      </trkpt>
      <trkpt lat="43.98683" lon="5.05049">
        <ele>89</ele>
        <time>2019-12-08T15:51:19.854Z</time>
      </trkpt>
      <trkpt lat="43.98683" lon="5.05049">
        <ele>89</ele>
        <time>2019-12-08T15:51:20.854Z</time>
      </trkpt>
      <trkpt lat="43.98686" lon="5.05054">
        <ele>90</ele>
        <time>2019-12-08T15:51:21.854Z</time>
      </trkpt>
      <trkpt lat="43.98693" lon="5.05074">
        <ele>90</ele>
        <time>2019-12-08T15:51:22.854Z</time>
      </trkpt>
      <trkpt lat="43.98695" lon="5.05081">
        <ele>91</ele>
        <time>2019-12-08T15:51:23.854Z</time>
      </trkpt>
      <trkpt lat="43.98697" lon="5.05096">
        <ele>91</ele>
        <time>2019-12-08T15:51:24.854Z</time>
      </trkpt>
      <trkpt lat="43.98701" lon="5.05121">
        <ele>91</ele>
        <time>2019-12-08T15:51:25.854Z</time>
      </trkpt>
      <trkpt lat="43.98708" lon="5.05185">
        <ele>91</ele>
        <time>2019-12-08T15:51:26.854Z</time>
      </trkpt>
      <trkpt lat="43.9871" lon="5.05194">
        <ele>91</ele>
        <time>2019-12-08T15:51:27.854Z</time>
      </trkpt>
      <trkpt lat="43.98708" lon="5.05211">
        <ele>91</ele>
        <time>2019-12-08T15:51:28.854Z</time>
      </trkpt>
      <trkpt lat="43.98693" lon="5.05259">
        <ele>90</ele>
        <time>2019-12-08T15:51:29.854Z</time>
      </trkpt>
      <trkpt lat="43.98676" lon="5.05303">
        <ele>92</ele>
        <time>2019-12-08T15:51:30.854Z</time>
      </trkpt>
      <trkpt lat="43.98662" lon="5.05317">
        <ele>92</ele>
        <time>2019-12-08T15:51:31.854Z</time>
      </trkpt>
      <trkpt lat="43.98643" lon="5.05321">
        <ele>91</ele>
        <time>2019-12-08T15:51:32.854Z</time>
      </trkpt>
      <trkpt lat="43.98637" lon="5.05321">
        <ele>90</ele>
        <time>2019-12-08T15:51:33.854Z</time>
      </trkpt>
      <trkpt lat="43.98607" lon="5.05327">
        <ele>88</ele>
        <time>2019-12-08T15:51:34.854Z</time>
      </trkpt>
      <trkpt lat="43.98604" lon="5.05329">
        <ele>88</ele>
        <time>2019-12-08T15:51:35.854Z</time>
      </trkpt>
      <trkpt lat="43.98603" lon="5.05331">
        <ele>88</ele>
        <time>2019-12-08T15:51:36.854Z</time>
      </trkpt>
      <trkpt lat="43.98603" lon="5.05333">
        <ele>88</ele>
        <time>2019-12-08T15:51:37.854Z</time>
      </trkpt>
      <trkpt lat="43.98616" lon="5.05355">
        <ele>90</ele>
        <time>2019-12-08T15:51:38.854Z</time>
      </trkpt>
      <trkpt lat="43.98623" lon="5.05366">
        <ele>92</ele>
        <time>2019-12-08T15:51:39.854Z</time>
      </trkpt>
      <trkpt lat="43.98627" lon="5.0537">
        <ele>93</ele>
        <time>2019-12-08T15:51:40.854Z</time>
      </trkpt>
      <trkpt lat="43.98634" lon="5.0538">
        <ele>94</ele>
        <time>2019-12-08T15:51:41.854Z</time>
      </trkpt>
      <trkpt lat="43.98648" lon="5.05393">
        <ele>97</ele>
        <time>2019-12-08T15:51:42.854Z</time>
      </trkpt>
      <trkpt lat="43.98656" lon="5.05399">
        <ele>99</ele>
        <time>2019-12-08T15:51:43.854Z</time>
      </trkpt>
      <trkpt lat="43.98673" lon="5.05409">
        <ele>102</ele>
        <time>2019-12-08T15:51:44.854Z</time>
      </trkpt>
      <trkpt lat="43.98681" lon="5.05414">
        <ele>103</ele>
        <time>2019-12-08T15:51:45.854Z</time>
      </trkpt>
      <trkpt lat="43.9869" lon="5.05416">
        <ele>103</ele>
        <time>2019-12-08T15:51:46.854Z</time>
      </trkpt>
      <trkpt lat="43.98704" lon="5.05419">
        <ele>103</ele>
        <time>2019-12-08T15:51:47.854Z</time>
      </trkpt>
      <trkpt lat="43.98716" lon="5.05426">
        <ele>103</ele>
        <time>2019-12-08T15:51:48.854Z</time>
      </trkpt>
      <trkpt lat="43.98733" lon="5.05437">
        <ele>104</ele>
        <time>2019-12-08T15:51:49.854Z</time>
      </trkpt>
      <trkpt lat="43.9875" lon="5.05451">
        <ele>105</ele>
        <time>2019-12-08T15:51:50.854Z</time>
      </trkpt>
      <trkpt lat="43.98764" lon="5.05461">
        <ele>107</ele>
        <time>2019-12-08T15:51:51.854Z</time>
      </trkpt>
      <trkpt lat="43.98793" lon="5.05471">
        <ele>107</ele>
        <time>2019-12-08T15:51:52.854Z</time>
      </trkpt>
      <trkpt lat="43.98826" lon="5.05477">
        <ele>108</ele>
        <time>2019-12-08T15:51:53.854Z</time>
      </trkpt>
      <trkpt lat="43.98849" lon="5.05493">
        <ele>109</ele>
        <time>2019-12-08T15:51:54.854Z</time>
      </trkpt>
      <trkpt lat="43.98859" lon="5.05503">
        <ele>110</ele>
        <time>2019-12-08T15:51:55.854Z</time>
      </trkpt>
      <trkpt lat="43.98862" lon="5.05507">
        <ele>110</ele>
        <time>2019-12-08T15:51:56.854Z</time>
      </trkpt>
      <trkpt lat="43.98867" lon="5.05514">
        <ele>109</ele>
        <time>2019-12-08T15:51:57.854Z</time>
      </trkpt>
      <trkpt lat="43.98867" lon="5.05519">
        <ele>109</ele>
        <time>2019-12-08T15:51:58.854Z</time>
      </trkpt>
      <trkpt lat="43.98868" lon="5.05521">
        <ele>109</ele>
        <time>2019-12-08T15:51:59.854Z</time>
      </trkpt>
      <trkpt lat="43.98867" lon="5.05522">
        <ele>109</ele>
        <time>2019-12-08T15:52:00.854Z</time>
      </trkpt>
      <trkpt lat="43.98864" lon="5.05521">
        <ele>108</ele>
        <time>2019-12-08T15:52:01.854Z</time>
      </trkpt>
      <trkpt lat="43.98856" lon="5.05518">
        <ele>108</ele>
        <time>2019-12-08T15:52:02.854Z</time>
      </trkpt>
      <trkpt lat="43.9884" lon="5.0552">
        <ele>106</ele>
        <time>2019-12-08T15:52:03.854Z</time>
      </trkpt>
      <trkpt lat="43.98818" lon="5.05538">
        <ele>104</ele>
        <time>2019-12-08T15:52:04.854Z</time>
      </trkpt>
      <trkpt lat="43.98809" lon="5.0555">
        <ele>104</ele>
        <time>2019-12-08T15:52:05.854Z</time>
      </trkpt>
      <trkpt lat="43.98798" lon="5.05567">
        <ele>103</ele>
        <time>2019-12-08T15:52:06.854Z</time>
      </trkpt>
      <trkpt lat="43.98795" lon="5.05571">
        <ele>103</ele>
        <time>2019-12-08T15:52:07.854Z</time>
      </trkpt>
      <trkpt lat="43.98782" lon="5.05593">
        <ele>102</ele>
        <time>2019-12-08T15:52:08.854Z</time>
      </trkpt>
      <trkpt lat="43.98778" lon="5.05598">
        <ele>102</ele>
        <time>2019-12-08T15:52:09.854Z</time>
      </trkpt>
      <trkpt lat="43.98759" lon="5.05621">
        <ele>101</ele>
        <time>2019-12-08T15:52:10.854Z</time>
      </trkpt>
      <trkpt lat="43.98754" lon="5.05627">
        <ele>101</ele>
        <time>2019-12-08T15:52:11.854Z</time>
      </trkpt>
      <trkpt lat="43.9873" lon="5.05645">
        <ele>100</ele>
        <time>2019-12-08T15:52:12.854Z</time>
      </trkpt>
      <trkpt lat="43.98722" lon="5.05648">
        <ele>100</ele>
        <time>2019-12-08T15:52:13.854Z</time>
      </trkpt>
      <trkpt lat="43.987" lon="5.05651">
        <ele>100</ele>
        <time>2019-12-08T15:52:14.854Z</time>
      </trkpt>
      <trkpt lat="43.98683" lon="5.05648">
        <ele>100</ele>
        <time>2019-12-08T15:52:15.854Z</time>
      </trkpt>
      <trkpt lat="43.98658" lon="5.05647">
        <ele>100</ele>
        <time>2019-12-08T15:52:16.854Z</time>
      </trkpt>
      <trkpt lat="43.98646" lon="5.05648">
        <ele>99</ele>
        <time>2019-12-08T15:52:17.854Z</time>
      </trkpt>
      <trkpt lat="43.98645" lon="5.05649">
        <ele>98</ele>
        <time>2019-12-08T15:52:18.854Z</time>
      </trkpt>
      <trkpt lat="43.98621" lon="5.05651">
        <ele>97</ele>
        <time>2019-12-08T15:52:19.854Z</time>
      </trkpt>
      <trkpt lat="43.98615" lon="5.05652">
        <ele>96</ele>
        <time>2019-12-08T15:52:20.854Z</time>
      </trkpt>
      <trkpt lat="43.986" lon="5.05664">
        <ele>95</ele>
        <time>2019-12-08T15:52:21.854Z</time>
      </trkpt>
      <trkpt lat="43.98592" lon="5.05675">
        <ele>95</ele>
        <time>2019-12-08T15:52:22.854Z</time>
      </trkpt>
      <trkpt lat="43.98591" lon="5.05676">
        <ele>95</ele>
        <time>2019-12-08T15:52:23.854Z</time>
      </trkpt>
      <trkpt lat="43.98591" lon="5.05676">
        <ele>95</ele>
        <time>2019-12-08T15:52:24.854Z</time>
      </trkpt>
      <trkpt lat="43.9859" lon="5.05676">
        <ele>95</ele>
        <time>2019-12-08T15:52:25.854Z</time>
      </trkpt>
      <trkpt lat="43.98583" lon="5.05677">
        <ele>95</ele>
        <time>2019-12-08T15:52:26.854Z</time>
      </trkpt>
      <trkpt lat="43.9858" lon="5.05681">
        <ele>96</ele>
        <time>2019-12-08T15:52:27.854Z</time>
      </trkpt>
      <trkpt lat="43.98574" lon="5.05691">
        <ele>97</ele>
        <time>2019-12-08T15:52:28.854Z</time>
      </trkpt>
      <trkpt lat="43.98571" lon="5.05696">
        <ele>97</ele>
        <time>2019-12-08T15:52:29.854Z</time>
      </trkpt>
      <trkpt lat="43.98551" lon="5.05735">
        <ele>99</ele>
        <time>2019-12-08T15:52:30.854Z</time>
      </trkpt>
      <trkpt lat="43.98546" lon="5.0574">
        <ele>99</ele>
        <time>2019-12-08T15:52:31.854Z</time>
      </trkpt>
      <trkpt lat="43.98535" lon="5.05745">
        <ele>99</ele>
        <time>2019-12-08T15:52:32.854Z</time>
      </trkpt>
      <trkpt lat="43.98531" lon="5.05744">
        <ele>99</ele>
        <time>2019-12-08T15:52:33.854Z</time>
      </trkpt>
      <trkpt lat="43.98526" lon="5.05742">
        <ele>98</ele>
        <time>2019-12-08T15:52:34.854Z</time>
      </trkpt>
      <trkpt lat="43.98523" lon="5.0574">
        <ele>98</ele>
        <time>2019-12-08T15:52:35.854Z</time>
      </trkpt>
      <trkpt lat="43.98509" lon="5.05729">
        <ele>98</ele>
        <time>2019-12-08T15:52:36.854Z</time>
      </trkpt>
      <trkpt lat="43.9849" lon="5.05713">
        <ele>101</ele>
        <time>2019-12-08T15:52:37.854Z</time>
      </trkpt>
      <trkpt lat="43.98487" lon="5.05712">
        <ele>102</ele>
        <time>2019-12-08T15:52:38.854Z</time>
      </trkpt>
      <trkpt lat="43.98487" lon="5.05711">
        <ele>102</ele>
        <time>2019-12-08T15:52:39.854Z</time>
      </trkpt>
      <trkpt lat="43.9848" lon="5.05711">
        <ele>104</ele>
        <time>2019-12-08T15:52:40.854Z</time>
      </trkpt>
      <trkpt lat="43.98478" lon="5.05705">
        <ele>105</ele>
        <time>2019-12-08T15:52:41.854Z</time>
      </trkpt>
      <trkpt lat="43.98479" lon="5.05692">
        <ele>105</ele>
        <time>2019-12-08T15:52:42.854Z</time>
      </trkpt>
      <trkpt lat="43.98479" lon="5.05683">
        <ele>105</ele>
        <time>2019-12-08T15:52:43.854Z</time>
      </trkpt>
      <trkpt lat="43.98477" lon="5.05659">
        <ele>107</ele>
        <time>2019-12-08T15:52:44.854Z</time>
      </trkpt>
      <trkpt lat="43.98477" lon="5.05655">
        <ele>106</ele>
        <time>2019-12-08T15:52:45.854Z</time>
      </trkpt>
      <trkpt lat="43.98474" lon="5.05632">
        <ele>107</ele>
        <time>2019-12-08T15:52:46.854Z</time>
      </trkpt>
      <trkpt lat="43.98459" lon="5.0555">
        <ele>109</ele>
        <time>2019-12-08T15:52:47.854Z</time>
      </trkpt>
      <trkpt lat="43.98456" lon="5.05525">
        <ele>108</ele>
        <time>2019-12-08T15:52:48.854Z</time>
      </trkpt>
      <trkpt lat="43.98454" lon="5.05517">
        <ele>108</ele>
        <time>2019-12-08T15:52:49.854Z</time>
      </trkpt>
      <trkpt lat="43.98453" lon="5.05517">
        <ele>108</ele>
        <time>2019-12-08T15:52:50.854Z</time>
      </trkpt>
      <trkpt lat="43.98454" lon="5.05513">
        <ele>108</ele>
        <time>2019-12-08T15:52:51.854Z</time>
      </trkpt>
      <trkpt lat="43.98449" lon="5.0549">
        <ele>107</ele>
        <time>2019-12-08T15:52:52.854Z</time>
      </trkpt>
      <trkpt lat="43.98448" lon="5.05485">
        <ele>107</ele>
        <time>2019-12-08T15:52:53.854Z</time>
      </trkpt>
      <trkpt lat="43.98448" lon="5.05484">
        <ele>107</ele>
        <time>2019-12-08T15:52:54.854Z</time>
      </trkpt>
      <trkpt lat="43.98453" lon="5.05477">
        <ele>105</ele>
        <time>2019-12-08T15:52:55.854Z</time>
      </trkpt>
      <trkpt lat="43.98454" lon="5.05467">
        <ele>103</ele>
        <time>2019-12-08T15:52:56.854Z</time>
      </trkpt>
      <trkpt lat="43.98455" lon="5.0546">
        <ele>102</ele>
        <time>2019-12-08T15:52:57.854Z</time>
      </trkpt>
      <trkpt lat="43.98453" lon="5.05453">
        <ele>102</ele>
        <time>2019-12-08T15:52:58.854Z</time>
      </trkpt>
      <trkpt lat="43.98446" lon="5.05438">
        <ele>102</ele>
        <time>2019-12-08T15:52:59.854Z</time>
      </trkpt>
      <trkpt lat="43.98438" lon="5.05415">
        <ele>101</ele>
        <time>2019-12-08T15:53:00.854Z</time>
      </trkpt>
      <trkpt lat="43.98436" lon="5.0541">
        <ele>101</ele>
        <time>2019-12-08T15:53:01.854Z</time>
      </trkpt>
      <trkpt lat="43.98429" lon="5.05399">
        <ele>101</ele>
        <time>2019-12-08T15:53:02.854Z</time>
      </trkpt>
      <trkpt lat="43.98419" lon="5.05389">
        <ele>102</ele>
        <time>2019-12-08T15:53:03.854Z</time>
      </trkpt>
      <trkpt lat="43.98414" lon="5.05385">
        <ele>102</ele>
        <time>2019-12-08T15:53:04.854Z</time>
      </trkpt>
      <trkpt lat="43.9841" lon="5.05376">
        <ele>101</ele>
        <time>2019-12-08T15:53:05.854Z</time>
      </trkpt>
      <trkpt lat="43.98407" lon="5.05367">
        <ele>101</ele>
        <time>2019-12-08T15:53:06.854Z</time>
      </trkpt>
      <trkpt lat="43.98401" lon="5.05351">
        <ele>100</ele>
        <time>2019-12-08T15:53:07.854Z</time>
      </trkpt>
      <trkpt lat="43.98399" lon="5.05329">
        <ele>98</ele>
        <time>2019-12-08T15:53:08.854Z</time>
      </trkpt>
      <trkpt lat="43.98395" lon="5.05312">
        <ele>98</ele>
        <time>2019-12-08T15:53:09.854Z</time>
      </trkpt>
      <trkpt lat="43.98394" lon="5.05308">
        <ele>98</ele>
        <time>2019-12-08T15:53:10.854Z</time>
      </trkpt>
      <trkpt lat="43.98387" lon="5.05281">
        <ele>98</ele>
        <time>2019-12-08T15:53:11.854Z</time>
      </trkpt>
      <trkpt lat="43.98385" lon="5.05268">
        <ele>98</ele>
        <time>2019-12-08T15:53:12.854Z</time>
      </trkpt>
      <trkpt lat="43.98384" lon="5.05264">
        <ele>98</ele>
        <time>2019-12-08T15:53:13.854Z</time>
      </trkpt>
      <trkpt lat="43.98384" lon="5.05257">
        <ele>97</ele>
        <time>2019-12-08T15:53:14.854Z</time>
      </trkpt>
      <trkpt lat="43.98385" lon="5.05239">
        <ele>97</ele>
        <time>2019-12-08T15:53:15.854Z</time>
      </trkpt>
      <trkpt lat="43.98384" lon="5.05231">
        <ele>97</ele>
        <time>2019-12-08T15:53:16.854Z</time>
      </trkpt>
      <trkpt lat="43.9838" lon="5.05221">
        <ele>98</ele>
        <time>2019-12-08T15:53:17.854Z</time>
      </trkpt>
      <trkpt lat="43.98378" lon="5.05209">
        <ele>98</ele>
        <time>2019-12-08T15:53:18.854Z</time>
      </trkpt>
      <trkpt lat="43.98378" lon="5.05209">
        <ele>98</ele>
        <time>2019-12-08T15:53:19.854Z</time>
      </trkpt>
      <trkpt lat="43.98378" lon="5.05208">
        <ele>98</ele>
        <time>2019-12-08T15:53:20.854Z</time>
      </trkpt>
      <trkpt lat="43.98373" lon="5.05201">
        <ele>99</ele>
        <time>2019-12-08T15:53:21.854Z</time>
      </trkpt>
      <trkpt lat="43.98368" lon="5.0519">
        <ele>99</ele>
        <time>2019-12-08T15:53:22.854Z</time>
      </trkpt>
      <trkpt lat="43.98365" lon="5.05185">
        <ele>100</ele>
        <time>2019-12-08T15:53:23.854Z</time>
      </trkpt>
      <trkpt lat="43.98363" lon="5.05183">
        <ele>100</ele>
        <time>2019-12-08T15:53:24.854Z</time>
      </trkpt>
      <trkpt lat="43.9836" lon="5.05181">
        <ele>101</ele>
        <time>2019-12-08T15:53:25.854Z</time>
      </trkpt>
      <trkpt lat="43.98357" lon="5.05182">
        <ele>101</ele>
        <time>2019-12-08T15:53:26.854Z</time>
      </trkpt>
      <trkpt lat="43.98358" lon="5.05184">
        <ele>101</ele>
        <time>2019-12-08T15:53:27.854Z</time>
      </trkpt>
      <trkpt lat="43.98355" lon="5.05199">
        <ele>102</ele>
        <time>2019-12-08T15:53:28.854Z</time>
      </trkpt>
      <trkpt lat="43.98348" lon="5.05223">
        <ele>104</ele>
        <time>2019-12-08T15:53:29.854Z</time>
      </trkpt>
      <trkpt lat="43.98347" lon="5.05227">
        <ele>105</ele>
        <time>2019-12-08T15:53:30.854Z</time>
      </trkpt>
      <trkpt lat="43.9834" lon="5.05257">
        <ele>108</ele>
        <time>2019-12-08T15:53:31.854Z</time>
      </trkpt>
      <trkpt lat="43.98337" lon="5.05272">
        <ele>109</ele>
        <time>2019-12-08T15:53:32.854Z</time>
      </trkpt>
      <trkpt lat="43.98335" lon="5.05276">
        <ele>110</ele>
        <time>2019-12-08T15:53:33.854Z</time>
      </trkpt>
      <trkpt lat="43.98331" lon="5.05286">
        <ele>110</ele>
        <time>2019-12-08T15:53:34.854Z</time>
      </trkpt>
      <trkpt lat="43.98328" lon="5.05292">
        <ele>111</ele>
        <time>2019-12-08T15:53:35.854Z</time>
      </trkpt>
      <trkpt lat="43.98326" lon="5.05294">
        <ele>111</ele>
        <time>2019-12-08T15:53:36.854Z</time>
      </trkpt>
      <trkpt lat="43.98323" lon="5.05295">
        <ele>111</ele>
        <time>2019-12-08T15:53:37.854Z</time>
      </trkpt>
      <trkpt lat="43.98323" lon="5.05294">
        <ele>111</ele>
        <time>2019-12-08T15:53:38.854Z</time>
      </trkpt>
      <trkpt lat="43.9832" lon="5.0529">
        <ele>111</ele>
        <time>2019-12-08T15:53:39.854Z</time>
      </trkpt>
      <trkpt lat="43.98314" lon="5.05286">
        <ele>111</ele>
        <time>2019-12-08T15:53:40.854Z</time>
      </trkpt>
      <trkpt lat="43.98308" lon="5.05279">
        <ele>111</ele>
        <time>2019-12-08T15:53:41.854Z</time>
      </trkpt>
      <trkpt lat="43.983" lon="5.05272">
        <ele>111</ele>
        <time>2019-12-08T15:53:42.854Z</time>
      </trkpt>
      <trkpt lat="43.98286" lon="5.05267">
        <ele>111</ele>
        <time>2019-12-08T15:53:43.854Z</time>
      </trkpt>
      <trkpt lat="43.9827" lon="5.05277">
        <ele>112</ele>
        <time>2019-12-08T15:53:44.854Z</time>
      </trkpt>
      <trkpt lat="43.98263" lon="5.05284">
        <ele>112</ele>
        <time>2019-12-08T15:53:45.854Z</time>
      </trkpt>
      <trkpt lat="43.98259" lon="5.05286">
        <ele>112</ele>
        <time>2019-12-08T15:53:46.854Z</time>
      </trkpt>
      <trkpt lat="43.98246" lon="5.05293">
        <ele>113</ele>
        <time>2019-12-08T15:53:47.854Z</time>
      </trkpt>
      <trkpt lat="43.98232" lon="5.053">
        <ele>113</ele>
        <time>2019-12-08T15:53:48.854Z</time>
      </trkpt>
      <trkpt lat="43.98223" lon="5.05308">
        <ele>113</ele>
        <time>2019-12-08T15:53:49.854Z</time>
      </trkpt>
      <trkpt lat="43.98219" lon="5.05311">
        <ele>113</ele>
        <time>2019-12-08T15:53:50.854Z</time>
      </trkpt>
      <trkpt lat="43.98192" lon="5.05337">
        <ele>115</ele>
        <time>2019-12-08T15:53:51.854Z</time>
      </trkpt>
      <trkpt lat="43.98182" lon="5.05345">
        <ele>115</ele>
        <time>2019-12-08T15:53:52.854Z</time>
      </trkpt>
      <trkpt lat="43.98171" lon="5.05351">
        <ele>116</ele>
        <time>2019-12-08T15:53:53.854Z</time>
      </trkpt>
      <trkpt lat="43.9816" lon="5.05354">
        <ele>116</ele>
        <time>2019-12-08T15:53:54.854Z</time>
      </trkpt>
      <trkpt lat="43.98143" lon="5.05357">
        <ele>116</ele>
        <time>2019-12-08T15:53:55.854Z</time>
      </trkpt>
      <trkpt lat="43.98121" lon="5.05358">
        <ele>117</ele>
        <time>2019-12-08T15:53:56.854Z</time>
      </trkpt>
      <trkpt lat="43.98111" lon="5.05356">
        <ele>117</ele>
        <time>2019-12-08T15:53:57.854Z</time>
      </trkpt>
      <trkpt lat="43.98084" lon="5.05351">
        <ele>116</ele>
        <time>2019-12-08T15:53:58.854Z</time>
      </trkpt>
      <trkpt lat="43.98082" lon="5.05348">
        <ele>116</ele>
        <time>2019-12-08T15:53:59.854Z</time>
      </trkpt>
      <trkpt lat="43.98081" lon="5.05344">
        <ele>116</ele>
        <time>2019-12-08T15:54:00.854Z</time>
      </trkpt>
      <trkpt lat="43.98081" lon="5.05342">
        <ele>115</ele>
        <time>2019-12-08T15:54:01.854Z</time>
      </trkpt>
      <trkpt lat="43.98081" lon="5.05324">
        <ele>114</ele>
        <time>2019-12-08T15:54:02.854Z</time>
      </trkpt>
      <trkpt lat="43.98079" lon="5.0532">
        <ele>114</ele>
        <time>2019-12-08T15:54:03.854Z</time>
      </trkpt>
      <trkpt lat="43.98073" lon="5.05311">
        <ele>114</ele>
        <time>2019-12-08T15:54:04.854Z</time>
      </trkpt>
      <trkpt lat="43.9807" lon="5.05304">
        <ele>114</ele>
        <time>2019-12-08T15:54:05.854Z</time>
      </trkpt>
      <trkpt lat="43.98061" lon="5.05284">
        <ele>114</ele>
        <time>2019-12-08T15:54:06.854Z</time>
      </trkpt>
      <trkpt lat="43.98056" lon="5.05271">
        <ele>114</ele>
        <time>2019-12-08T15:54:07.854Z</time>
      </trkpt>
      <trkpt lat="43.98047" lon="5.05253">
        <ele>114</ele>
        <time>2019-12-08T15:54:08.854Z</time>
      </trkpt>
      <trkpt lat="43.98033" lon="5.05236">
        <ele>114</ele>
        <time>2019-12-08T15:54:09.854Z</time>
      </trkpt>
      <trkpt lat="43.98032" lon="5.05234">
        <ele>114</ele>
        <time>2019-12-08T15:54:10.854Z</time>
      </trkpt>
      <trkpt lat="43.98031" lon="5.05227">
        <ele>114</ele>
        <time>2019-12-08T15:54:11.854Z</time>
      </trkpt>
      <trkpt lat="43.9803" lon="5.05222">
        <ele>113</ele>
        <time>2019-12-08T15:54:12.854Z</time>
      </trkpt>
      <trkpt lat="43.9803" lon="5.05215">
        <ele>113</ele>
        <time>2019-12-08T15:54:13.854Z</time>
      </trkpt>
      <trkpt lat="43.98026" lon="5.05188">
        <ele>112</ele>
        <time>2019-12-08T15:54:14.854Z</time>
      </trkpt>
      <trkpt lat="43.98017" lon="5.05164">
        <ele>111</ele>
        <time>2019-12-08T15:54:15.854Z</time>
      </trkpt>
      <trkpt lat="43.98019" lon="5.05156">
        <ele>110</ele>
        <time>2019-12-08T15:54:16.854Z</time>
      </trkpt>
      <trkpt lat="43.98019" lon="5.05156">
        <ele>110</ele>
        <time>2019-12-08T15:54:17.854Z</time>
      </trkpt>
      <trkpt lat="43.98023" lon="5.05152">
        <ele>109</ele>
        <time>2019-12-08T15:54:18.854Z</time>
      </trkpt>
      <trkpt lat="43.98027" lon="5.05143">
        <ele>108</ele>
        <time>2019-12-08T15:54:19.854Z</time>
      </trkpt>
      <trkpt lat="43.98032" lon="5.0513">
        <ele>107</ele>
        <time>2019-12-08T15:54:20.854Z</time>
      </trkpt>
      <trkpt lat="43.98034" lon="5.05124">
        <ele>106</ele>
        <time>2019-12-08T15:54:21.854Z</time>
      </trkpt>
      <trkpt lat="43.9804" lon="5.05119">
        <ele>105</ele>
        <time>2019-12-08T15:54:22.854Z</time>
      </trkpt>
      <trkpt lat="43.98041" lon="5.05119">
        <ele>105</ele>
        <time>2019-12-08T15:54:23.854Z</time>
      </trkpt>
      <trkpt lat="43.98041" lon="5.05119">
        <ele>105</ele>
        <time>2019-12-08T15:54:24.854Z</time>
      </trkpt>
      <trkpt lat="43.98041" lon="5.05119">
        <ele>105</ele>
        <time>2019-12-08T15:54:25.854Z</time>
      </trkpt>
      <trkpt lat="43.98039" lon="5.05118">
        <ele>105</ele>
        <time>2019-12-08T15:54:26.854Z</time>
      </trkpt>
      <trkpt lat="43.98039" lon="5.05115">
        <ele>105</ele>
        <time>2019-12-08T15:54:27.854Z</time>
      </trkpt>
      <trkpt lat="43.98037" lon="5.0511">
        <ele>105</ele>
        <time>2019-12-08T15:54:28.854Z</time>
      </trkpt>
      <trkpt lat="43.98038" lon="5.05105">
        <ele>104</ele>
        <time>2019-12-08T15:54:29.854Z</time>
      </trkpt>
      <trkpt lat="43.98039" lon="5.05099">
        <ele>103</ele>
        <time>2019-12-08T15:54:30.854Z</time>
      </trkpt>
      <trkpt lat="43.98045" lon="5.05088">
        <ele>102</ele>
        <time>2019-12-08T15:54:31.854Z</time>
      </trkpt>
      <trkpt lat="43.98046" lon="5.05086">
        <ele>102</ele>
        <time>2019-12-08T15:54:32.854Z</time>
      </trkpt>
      <trkpt lat="43.98046" lon="5.05079">
        <ele>102</ele>
        <time>2019-12-08T15:54:33.854Z</time>
      </trkpt>
      <trkpt lat="43.98046" lon="5.05078">
        <ele>102</ele>
        <time>2019-12-08T15:54:34.854Z</time>
      </trkpt>
      <trkpt lat="43.98045" lon="5.05078">
        <ele>102</ele>
        <time>2019-12-08T15:54:35.854Z</time>
      </trkpt>
      <trkpt lat="43.98028" lon="5.05076">
        <ele>102</ele>
        <time>2019-12-08T15:54:36.854Z</time>
      </trkpt>
      <trkpt lat="43.98017" lon="5.05072">
        <ele>102</ele>
        <time>2019-12-08T15:54:37.854Z</time>
      </trkpt>
      <trkpt lat="43.97999" lon="5.05067">
        <ele>102</ele>
        <time>2019-12-08T15:54:38.854Z</time>
      </trkpt>
      <trkpt lat="43.97962" lon="5.05063">
        <ele>101</ele>
        <time>2019-12-08T15:54:39.854Z</time>
      </trkpt>
      <trkpt lat="43.97932" lon="5.05062">
        <ele>100</ele>
        <time>2019-12-08T15:54:40.854Z</time>
      </trkpt>
      <trkpt lat="43.97924" lon="5.05061">
        <ele>100</ele>
        <time>2019-12-08T15:54:41.854Z</time>
      </trkpt>
      <trkpt lat="43.97924" lon="5.05061">
        <ele>100</ele>
        <time>2019-12-08T15:54:42.854Z</time>
      </trkpt>
      <trkpt lat="43.97918" lon="5.05061">
        <ele>100</ele>
        <time>2019-12-08T15:54:43.854Z</time>
      </trkpt>
      <trkpt lat="43.97899" lon="5.05059">
        <ele>100</ele>
        <time>2019-12-08T15:54:44.854Z</time>
      </trkpt>
      <trkpt lat="43.97805" lon="5.0504">
        <ele>100</ele>
        <time>2019-12-08T15:54:45.854Z</time>
      </trkpt>
      <trkpt lat="43.97799" lon="5.05039">
        <ele>100</ele>
        <time>2019-12-08T15:54:46.854Z</time>
      </trkpt>
      <trkpt lat="43.97779" lon="5.05038">
        <ele>100</ele>
        <time>2019-12-08T15:54:47.854Z</time>
      </trkpt>
      <trkpt lat="43.97767" lon="5.05035">
        <ele>100</ele>
        <time>2019-12-08T15:54:48.854Z</time>
      </trkpt>
      <trkpt lat="43.97756" lon="5.05033">
        <ele>100</ele>
        <time>2019-12-08T15:54:49.854Z</time>
      </trkpt>
      <trkpt lat="43.97729" lon="5.05031">
        <ele>99</ele>
        <time>2019-12-08T15:54:50.854Z</time>
      </trkpt>
      <trkpt lat="43.97715" lon="5.05029">
        <ele>99</ele>
        <time>2019-12-08T15:54:51.854Z</time>
      </trkpt>
      <trkpt lat="43.97708" lon="5.05027">
        <ele>99</ele>
        <time>2019-12-08T15:54:52.854Z</time>
      </trkpt>
      <trkpt lat="43.9768" lon="5.05024">
        <ele>98</ele>
        <time>2019-12-08T15:54:53.854Z</time>
      </trkpt>
      <trkpt lat="43.9766" lon="5.05021">
        <ele>97</ele>
        <time>2019-12-08T15:54:54.854Z</time>
      </trkpt>
      <trkpt lat="43.97637" lon="5.05016">
        <ele>97</ele>
        <time>2019-12-08T15:54:55.854Z</time>
      </trkpt>
      <trkpt lat="43.97635" lon="5.05015">
        <ele>96</ele>
        <time>2019-12-08T15:54:56.854Z</time>
      </trkpt>
      <trkpt lat="43.97635" lon="5.05015">
        <ele>96</ele>
        <time>2019-12-08T15:54:57.854Z</time>
      </trkpt>
      <trkpt lat="43.97636" lon="5.05012">
        <ele>96</ele>
        <time>2019-12-08T15:54:58.854Z</time>
      </trkpt>
      <trkpt lat="43.97642" lon="5.05006">
        <ele>96</ele>
        <time>2019-12-08T15:54:59.854Z</time>
      </trkpt>
      <trkpt lat="43.97653" lon="5.04994">
        <ele>95</ele>
        <time>2019-12-08T15:55:00.854Z</time>
      </trkpt>
      <trkpt lat="43.97694" lon="5.0495">
        <ele>93</ele>
        <time>2019-12-08T15:55:01.854Z</time>
      </trkpt>
      <trkpt lat="43.97711" lon="5.04934">
        <ele>93</ele>
        <time>2019-12-08T15:55:02.854Z</time>
      </trkpt>
      <trkpt lat="43.97717" lon="5.04931">
        <ele>93</ele>
        <time>2019-12-08T15:55:03.854Z</time>
      </trkpt>
      <trkpt lat="43.97723" lon="5.04928">
        <ele>92</ele>
        <time>2019-12-08T15:55:04.854Z</time>
      </trkpt>
      <trkpt lat="43.97739" lon="5.04921">
        <ele>92</ele>
        <time>2019-12-08T15:55:05.854Z</time>
      </trkpt>
      <trkpt lat="43.97749" lon="5.04916">
        <ele>92</ele>
        <time>2019-12-08T15:55:06.854Z</time>
      </trkpt>
      <trkpt lat="43.97754" lon="5.04911">
        <ele>92</ele>
        <time>2019-12-08T15:55:07.854Z</time>
      </trkpt>
      <trkpt lat="43.97758" lon="5.04901">
        <ele>91</ele>
        <time>2019-12-08T15:55:08.854Z</time>
      </trkpt>
      <trkpt lat="43.97758" lon="5.04898">
        <ele>91</ele>
        <time>2019-12-08T15:55:09.854Z</time>
      </trkpt>
      <trkpt lat="43.97759" lon="5.04897">
        <ele>91</ele>
        <time>2019-12-08T15:55:10.854Z</time>
      </trkpt>
      <trkpt lat="43.97757" lon="5.04894">
        <ele>91</ele>
        <time>2019-12-08T15:55:11.854Z</time>
      </trkpt>
      <trkpt lat="43.97755" lon="5.04893">
        <ele>91</ele>
        <time>2019-12-08T15:55:12.854Z</time>
      </trkpt>
      <trkpt lat="43.9774" lon="5.04891">
        <ele>91</ele>
        <time>2019-12-08T15:55:13.854Z</time>
      </trkpt>
      <trkpt lat="43.97713" lon="5.04882">
        <ele>91</ele>
        <time>2019-12-08T15:55:14.854Z</time>
      </trkpt>
      <trkpt lat="43.97692" lon="5.04876">
        <ele>91</ele>
        <time>2019-12-08T15:55:15.854Z</time>
      </trkpt>
      <trkpt lat="43.97679" lon="5.04876">
        <ele>91</ele>
        <time>2019-12-08T15:55:16.854Z</time>
      </trkpt>
      <trkpt lat="43.97637" lon="5.04875">
        <ele>91</ele>
        <time>2019-12-08T15:55:17.854Z</time>
      </trkpt>
      <trkpt lat="43.97591" lon="5.04879">
        <ele>92</ele>
        <time>2019-12-08T15:55:18.854Z</time>
      </trkpt>
      <trkpt lat="43.97573" lon="5.04887">
        <ele>92</ele>
        <time>2019-12-08T15:55:19.854Z</time>
      </trkpt>
      <trkpt lat="43.97561" lon="5.04892">
        <ele>92</ele>
        <time>2019-12-08T15:55:20.854Z</time>
      </trkpt>
      <trkpt lat="43.97527" lon="5.04913">
        <ele>93</ele>
        <time>2019-12-08T15:55:21.854Z</time>
      </trkpt>
      <trkpt lat="43.9751" lon="5.04919">
        <ele>93</ele>
        <time>2019-12-08T15:55:22.854Z</time>
      </trkpt>
      <trkpt lat="43.97498" lon="5.04914">
        <ele>93</ele>
        <time>2019-12-08T15:55:23.854Z</time>
      </trkpt>
      <trkpt lat="43.97487" lon="5.04897">
        <ele>93</ele>
        <time>2019-12-08T15:55:24.854Z</time>
      </trkpt>
      <trkpt lat="43.97485" lon="5.04893">
        <ele>93</ele>
        <time>2019-12-08T15:55:25.854Z</time>
      </trkpt>
      <trkpt lat="43.97485" lon="5.04892">
        <ele>93</ele>
        <time>2019-12-08T15:55:26.854Z</time>
      </trkpt>
      <trkpt lat="43.97481" lon="5.04886">
        <ele>92</ele>
        <time>2019-12-08T15:55:27.854Z</time>
      </trkpt>
      <trkpt lat="43.97472" lon="5.04877">
        <ele>92</ele>
        <time>2019-12-08T15:55:28.854Z</time>
      </trkpt>
      <trkpt lat="43.9747" lon="5.04883">
        <ele>92</ele>
        <time>2019-12-08T15:55:29.854Z</time>
      </trkpt>
      <trkpt lat="43.97467" lon="5.04892">
        <ele>93</ele>
        <time>2019-12-08T15:55:30.854Z</time>
      </trkpt>
      <trkpt lat="43.97462" lon="5.04891">
        <ele>93</ele>
        <time>2019-12-08T15:55:31.854Z</time>
      </trkpt>
      <trkpt lat="43.97455" lon="5.04893">
        <ele>93</ele>
        <time>2019-12-08T15:55:32.854Z</time>
      </trkpt>
      <trkpt lat="43.97453" lon="5.04894">
        <ele>93</ele>
        <time>2019-12-08T15:55:33.854Z</time>
      </trkpt>
      <trkpt lat="43.97432" lon="5.04923">
        <ele>94</ele>
        <time>2019-12-08T15:55:34.854Z</time>
      </trkpt>
      <trkpt lat="43.97415" lon="5.04939">
        <ele>96</ele>
        <time>2019-12-08T15:55:35.854Z</time>
      </trkpt>
      <trkpt lat="43.97396" lon="5.04945">
        <ele>97</ele>
        <time>2019-12-08T15:55:36.854Z</time>
      </trkpt>
      <trkpt lat="43.97389" lon="5.04951">
        <ele>98</ele>
        <time>2019-12-08T15:55:37.854Z</time>
      </trkpt>
      <trkpt lat="43.97371" lon="5.04976">
        <ele>100</ele>
        <time>2019-12-08T15:55:38.854Z</time>
      </trkpt>
      <trkpt lat="43.97368" lon="5.04979">
        <ele>100</ele>
        <time>2019-12-08T15:55:39.854Z</time>
      </trkpt>
      <trkpt lat="43.97367" lon="5.04983">
        <ele>100</ele>
        <time>2019-12-08T15:55:40.854Z</time>
      </trkpt>
      <trkpt lat="43.97362" lon="5.04999">
        <ele>101</ele>
        <time>2019-12-08T15:55:41.854Z</time>
      </trkpt>
      <trkpt lat="43.9734" lon="5.05039">
        <ele>101</ele>
        <time>2019-12-08T15:55:42.854Z</time>
      </trkpt>
      <trkpt lat="43.97339" lon="5.05042">
        <ele>101</ele>
        <time>2019-12-08T15:55:43.854Z</time>
      </trkpt>
      <trkpt lat="43.97339" lon="5.05054">
        <ele>101</ele>
        <time>2019-12-08T15:55:44.854Z</time>
      </trkpt>
      <trkpt lat="43.9734" lon="5.05056">
        <ele>102</ele>
        <time>2019-12-08T15:55:45.854Z</time>
      </trkpt>
      <trkpt lat="43.97346" lon="5.05057">
        <ele>102</ele>
        <time>2019-12-08T15:55:46.854Z</time>
      </trkpt>
      <trkpt lat="43.97351" lon="5.05059">
        <ele>102</ele>
        <time>2019-12-08T15:55:47.854Z</time>
      </trkpt>
      <trkpt lat="43.97358" lon="5.05067">
        <ele>103</ele>
        <time>2019-12-08T15:55:48.854Z</time>
      </trkpt>
      <trkpt lat="43.9736" lon="5.05069">
        <ele>104</ele>
        <time>2019-12-08T15:55:49.854Z</time>
      </trkpt>
      <trkpt lat="43.97365" lon="5.05073">
        <ele>104</ele>
        <time>2019-12-08T15:55:50.854Z</time>
      </trkpt>
      <trkpt lat="43.97369" lon="5.05075">
        <ele>105</ele>
        <time>2019-12-08T15:55:51.854Z</time>
      </trkpt>
      <trkpt lat="43.97374" lon="5.05078">
        <ele>105</ele>
        <time>2019-12-08T15:55:52.854Z</time>
      </trkpt>
      <trkpt lat="43.97378" lon="5.05083">
        <ele>106</ele>
        <time>2019-12-08T15:55:53.854Z</time>
      </trkpt>
      <trkpt lat="43.97381" lon="5.05086">
        <ele>106</ele>
        <time>2019-12-08T15:55:54.854Z</time>
      </trkpt>
      <trkpt lat="43.97389" lon="5.05092">
        <ele>107</ele>
        <time>2019-12-08T15:55:55.854Z</time>
      </trkpt>
      <trkpt lat="43.97396" lon="5.05097">
        <ele>108</ele>
        <time>2019-12-08T15:55:56.854Z</time>
      </trkpt>
      <trkpt lat="43.97405" lon="5.051">
        <ele>109</ele>
        <time>2019-12-08T15:55:57.854Z</time>
      </trkpt>
      <trkpt lat="43.9742" lon="5.05105">
        <ele>110</ele>
        <time>2019-12-08T15:55:58.854Z</time>
      </trkpt>
      <trkpt lat="43.97433" lon="5.05116">
        <ele>109</ele>
        <time>2019-12-08T15:55:59.854Z</time>
      </trkpt>
      <trkpt lat="43.97437" lon="5.05119">
        <ele>109</ele>
        <time>2019-12-08T15:56:00.854Z</time>
      </trkpt>
      <trkpt lat="43.97447" lon="5.05131">
        <ele>108</ele>
        <time>2019-12-08T15:56:01.854Z</time>
      </trkpt>
      <trkpt lat="43.97462" lon="5.0515">
        <ele>107</ele>
        <time>2019-12-08T15:56:02.854Z</time>
      </trkpt>
      <trkpt lat="43.97464" lon="5.05168">
        <ele>107</ele>
        <time>2019-12-08T15:56:03.854Z</time>
      </trkpt>
      <trkpt lat="43.97463" lon="5.05202">
        <ele>108</ele>
        <time>2019-12-08T15:56:04.854Z</time>
      </trkpt>
      <trkpt lat="43.97463" lon="5.05218">
        <ele>109</ele>
        <time>2019-12-08T15:56:05.854Z</time>
      </trkpt>
      <trkpt lat="43.97463" lon="5.05225">
        <ele>109</ele>
        <time>2019-12-08T15:56:06.854Z</time>
      </trkpt>
      <trkpt lat="43.97464" lon="5.05227">
        <ele>109</ele>
        <time>2019-12-08T15:56:07.854Z</time>
      </trkpt>
      <trkpt lat="43.97465" lon="5.05233">
        <ele>109</ele>
        <time>2019-12-08T15:56:08.854Z</time>
      </trkpt>
      <trkpt lat="43.97459" lon="5.05242">
        <ele>110</ele>
        <time>2019-12-08T15:56:09.854Z</time>
      </trkpt>
      <trkpt lat="43.97457" lon="5.05246">
        <ele>111</ele>
        <time>2019-12-08T15:56:10.854Z</time>
      </trkpt>
      <trkpt lat="43.97446" lon="5.05256">
        <ele>113</ele>
        <time>2019-12-08T15:56:11.854Z</time>
      </trkpt>
      <trkpt lat="43.97441" lon="5.0526">
        <ele>113</ele>
        <time>2019-12-08T15:56:12.854Z</time>
      </trkpt>
      <trkpt lat="43.97441" lon="5.05261">
        <ele>113</ele>
        <time>2019-12-08T15:56:13.854Z</time>
      </trkpt>
      <trkpt lat="43.97439" lon="5.05261">
        <ele>114</ele>
        <time>2019-12-08T15:56:14.854Z</time>
      </trkpt>
      <trkpt lat="43.97438" lon="5.05262">
        <ele>114</ele>
        <time>2019-12-08T15:56:15.854Z</time>
      </trkpt>
      <trkpt lat="43.97437" lon="5.05263">
        <ele>114</ele>
        <time>2019-12-08T15:56:16.854Z</time>
      </trkpt>
      <trkpt lat="43.97435" lon="5.05264">
        <ele>114</ele>
        <time>2019-12-08T15:56:17.854Z</time>
      </trkpt>
      <trkpt lat="43.97433" lon="5.05265">
        <ele>114</ele>
        <time>2019-12-08T15:56:18.854Z</time>
      </trkpt>
      <trkpt lat="43.97422" lon="5.05272">
        <ele>116</ele>
        <time>2019-12-08T15:56:19.854Z</time>
      </trkpt>
      <trkpt lat="43.97409" lon="5.05282">
        <ele>116</ele>
        <time>2019-12-08T15:56:20.854Z</time>
      </trkpt>
      <trkpt lat="43.97391" lon="5.053">
        <ele>116</ele>
        <time>2019-12-08T15:56:21.854Z</time>
      </trkpt>
      <trkpt lat="43.9738" lon="5.05311">
        <ele>116</ele>
        <time>2019-12-08T15:56:22.854Z</time>
      </trkpt>
      <trkpt lat="43.97372" lon="5.05316">
        <ele>116</ele>
        <time>2019-12-08T15:56:23.854Z</time>
      </trkpt>
      <trkpt lat="43.97355" lon="5.05328">
        <ele>116</ele>
        <time>2019-12-08T15:56:24.854Z</time>
      </trkpt>
      <trkpt lat="43.97356" lon="5.0533">
        <ele>116</ele>
        <time>2019-12-08T15:56:25.854Z</time>
      </trkpt>
      <trkpt lat="43.97355" lon="5.05332">
        <ele>116</ele>
        <time>2019-12-08T15:56:26.854Z</time>
      </trkpt>
      <trkpt lat="43.97352" lon="5.05338">
        <ele>116</ele>
        <time>2019-12-08T15:56:27.854Z</time>
      </trkpt>
      <trkpt lat="43.97344" lon="5.05358">
        <ele>115</ele>
        <time>2019-12-08T15:56:28.854Z</time>
      </trkpt>
      <trkpt lat="43.97337" lon="5.05391">
        <ele>114</ele>
        <time>2019-12-08T15:56:29.854Z</time>
      </trkpt>
      <trkpt lat="43.97337" lon="5.05393">
        <ele>114</ele>
        <time>2019-12-08T15:56:30.854Z</time>
      </trkpt>
      <trkpt lat="43.9734" lon="5.05397">
        <ele>114</ele>
        <time>2019-12-08T15:56:31.854Z</time>
      </trkpt>
      <trkpt lat="43.97356" lon="5.05409">
        <ele>112</ele>
        <time>2019-12-08T15:56:32.854Z</time>
      </trkpt>
      <trkpt lat="43.97393" lon="5.05426">
        <ele>111</ele>
        <time>2019-12-08T15:56:33.854Z</time>
      </trkpt>
      <trkpt lat="43.97415" lon="5.05432">
        <ele>110</ele>
        <time>2019-12-08T15:56:34.854Z</time>
      </trkpt>
      <trkpt lat="43.97474" lon="5.05437">
        <ele>111</ele>
        <time>2019-12-08T15:56:35.854Z</time>
      </trkpt>
      <trkpt lat="43.97518" lon="5.0544">
        <ele>112</ele>
        <time>2019-12-08T15:56:36.854Z</time>
      </trkpt>
      <trkpt lat="43.97536" lon="5.05443">
        <ele>113</ele>
        <time>2019-12-08T15:56:37.854Z</time>
      </trkpt>
      <trkpt lat="43.97551" lon="5.05439">
        <ele>114</ele>
        <time>2019-12-08T15:56:38.854Z</time>
      </trkpt>
      <trkpt lat="43.97556" lon="5.0544">
        <ele>114</ele>
        <time>2019-12-08T15:56:39.854Z</time>
      </trkpt>
      <trkpt lat="43.97568" lon="5.05445">
        <ele>115</ele>
        <time>2019-12-08T15:56:40.854Z</time>
      </trkpt>
      <trkpt lat="43.97582" lon="5.05454">
        <ele>116</ele>
        <time>2019-12-08T15:56:41.854Z</time>
      </trkpt>
      <trkpt lat="43.97585" lon="5.05459">
        <ele>117</ele>
        <time>2019-12-08T15:56:42.854Z</time>
      </trkpt>
      <trkpt lat="43.97582" lon="5.05465">
        <ele>117</ele>
        <time>2019-12-08T15:56:43.854Z</time>
      </trkpt>
      <trkpt lat="43.97579" lon="5.05473">
        <ele>117</ele>
        <time>2019-12-08T15:56:44.854Z</time>
      </trkpt>
      <trkpt lat="43.97577" lon="5.05483">
        <ele>117</ele>
        <time>2019-12-08T15:56:45.854Z</time>
      </trkpt>
      <trkpt lat="43.97576" lon="5.05488">
        <ele>117</ele>
        <time>2019-12-08T15:56:46.854Z</time>
      </trkpt>
      <trkpt lat="43.9757" lon="5.05526">
        <ele>120</ele>
        <time>2019-12-08T15:56:47.854Z</time>
      </trkpt>
      <trkpt lat="43.97567" lon="5.05545">
        <ele>122</ele>
        <time>2019-12-08T15:56:48.854Z</time>
      </trkpt>
      <trkpt lat="43.97561" lon="5.05562">
        <ele>123</ele>
        <time>2019-12-08T15:56:49.854Z</time>
      </trkpt>
      <trkpt lat="43.97559" lon="5.05571">
        <ele>124</ele>
        <time>2019-12-08T15:56:50.854Z</time>
      </trkpt>
      <trkpt lat="43.97555" lon="5.05579">
        <ele>125</ele>
        <time>2019-12-08T15:56:51.854Z</time>
      </trkpt>
      <trkpt lat="43.97553" lon="5.05581">
        <ele>125</ele>
        <time>2019-12-08T15:56:52.854Z</time>
      </trkpt>
      <trkpt lat="43.97553" lon="5.0558">
        <ele>125</ele>
        <time>2019-12-08T15:56:53.854Z</time>
      </trkpt>
      <trkpt lat="43.97552" lon="5.05586">
        <ele>125</ele>
        <time>2019-12-08T15:56:54.854Z</time>
      </trkpt>
      <trkpt lat="43.97546" lon="5.05597">
        <ele>125</ele>
        <time>2019-12-08T15:56:55.854Z</time>
      </trkpt>
      <trkpt lat="43.97538" lon="5.05608">
        <ele>125</ele>
        <time>2019-12-08T15:56:56.854Z</time>
      </trkpt>
      <trkpt lat="43.97537" lon="5.05609">
        <ele>125</ele>
        <time>2019-12-08T15:56:57.854Z</time>
      </trkpt>
      <trkpt lat="43.97536" lon="5.05609">
        <ele>125</ele>
        <time>2019-12-08T15:56:58.854Z</time>
      </trkpt>
      <trkpt lat="43.97535" lon="5.05614">
        <ele>125</ele>
        <time>2019-12-08T15:56:59.854Z</time>
      </trkpt>
      <trkpt lat="43.97531" lon="5.05622">
        <ele>125</ele>
        <time>2019-12-08T15:57:00.854Z</time>
      </trkpt>
      <trkpt lat="43.97525" lon="5.0563">
        <ele>125</ele>
        <time>2019-12-08T15:57:01.854Z</time>
      </trkpt>
      <trkpt lat="43.97521" lon="5.05649">
        <ele>126</ele>
        <time>2019-12-08T15:57:02.854Z</time>
      </trkpt>
      <trkpt lat="43.97518" lon="5.05656">
        <ele>125</ele>
        <time>2019-12-08T15:57:03.854Z</time>
      </trkpt>
      <trkpt lat="43.97518" lon="5.05657">
        <ele>126</ele>
        <time>2019-12-08T15:57:04.854Z</time>
      </trkpt>
      <trkpt lat="43.97513" lon="5.05659">
        <ele>125</ele>
        <time>2019-12-08T15:57:05.854Z</time>
      </trkpt>
      <trkpt lat="43.97508" lon="5.05661">
        <ele>124</ele>
        <time>2019-12-08T15:57:06.854Z</time>
      </trkpt>
      <trkpt lat="43.97502" lon="5.05663">
        <ele>123</ele>
        <time>2019-12-08T15:57:07.854Z</time>
      </trkpt>
      <trkpt lat="43.97497" lon="5.05666">
        <ele>123</ele>
        <time>2019-12-08T15:57:08.854Z</time>
      </trkpt>
      <trkpt lat="43.9748" lon="5.05671">
        <ele>126</ele>
        <time>2019-12-08T15:57:09.854Z</time>
      </trkpt>
      <trkpt lat="43.9747" lon="5.05674">
        <ele>127</ele>
        <time>2019-12-08T15:57:10.854Z</time>
      </trkpt>
      <trkpt lat="43.97459" lon="5.05682">
        <ele>129</ele>
        <time>2019-12-08T15:57:11.854Z</time>
      </trkpt>
      <trkpt lat="43.97446" lon="5.05687">
        <ele>131</ele>
        <time>2019-12-08T15:57:12.854Z</time>
      </trkpt>
      <trkpt lat="43.97443" lon="5.05691">
        <ele>131</ele>
        <time>2019-12-08T15:57:13.854Z</time>
      </trkpt>
      <trkpt lat="43.97444" lon="5.05691">
        <ele>131</ele>
        <time>2019-12-08T15:57:14.854Z</time>
      </trkpt>
      <trkpt lat="43.97446" lon="5.05695">
        <ele>131</ele>
        <time>2019-12-08T15:57:15.854Z</time>
      </trkpt>
      <trkpt lat="43.97444" lon="5.05714">
        <ele>132</ele>
        <time>2019-12-08T15:57:16.854Z</time>
      </trkpt>
      <trkpt lat="43.97442" lon="5.05731">
        <ele>133</ele>
        <time>2019-12-08T15:57:17.854Z</time>
      </trkpt>
      <trkpt lat="43.97437" lon="5.0575">
        <ele>135</ele>
        <time>2019-12-08T15:57:18.854Z</time>
      </trkpt>
      <trkpt lat="43.97434" lon="5.05759">
        <ele>135</ele>
        <time>2019-12-08T15:57:19.854Z</time>
      </trkpt>
      <trkpt lat="43.97425" lon="5.05775">
        <ele>136</ele>
        <time>2019-12-08T15:57:20.854Z</time>
      </trkpt>
      <trkpt lat="43.97423" lon="5.05782">
        <ele>136</ele>
        <time>2019-12-08T15:57:21.854Z</time>
      </trkpt>
      <trkpt lat="43.97423" lon="5.05786">
        <ele>136</ele>
        <time>2019-12-08T15:57:22.854Z</time>
      </trkpt>
      <trkpt lat="43.97422" lon="5.0579">
        <ele>136</ele>
        <time>2019-12-08T15:57:23.854Z</time>
      </trkpt>
      <trkpt lat="43.97424" lon="5.05797">
        <ele>136</ele>
        <time>2019-12-08T15:57:24.854Z</time>
      </trkpt>
      <trkpt lat="43.97425" lon="5.05811">
        <ele>136</ele>
        <time>2019-12-08T15:57:25.854Z</time>
      </trkpt>
      <trkpt lat="43.97424" lon="5.05844">
        <ele>136</ele>
        <time>2019-12-08T15:57:26.854Z</time>
      </trkpt>
      <trkpt lat="43.97424" lon="5.05864">
        <ele>137</ele>
        <time>2019-12-08T15:57:27.854Z</time>
      </trkpt>
      <trkpt lat="43.97426" lon="5.05877">
        <ele>137</ele>
        <time>2019-12-08T15:57:28.854Z</time>
      </trkpt>
      <trkpt lat="43.97427" lon="5.05882">
        <ele>137</ele>
        <time>2019-12-08T15:57:29.854Z</time>
      </trkpt>
      <trkpt lat="43.97431" lon="5.05895">
        <ele>137</ele>
        <time>2019-12-08T15:57:30.854Z</time>
      </trkpt>
      <trkpt lat="43.97433" lon="5.05902">
        <ele>138</ele>
        <time>2019-12-08T15:57:31.854Z</time>
      </trkpt>
      <trkpt lat="43.97435" lon="5.05911">
        <ele>138</ele>
        <time>2019-12-08T15:57:32.854Z</time>
      </trkpt>
      <trkpt lat="43.97436" lon="5.05919">
        <ele>138</ele>
        <time>2019-12-08T15:57:33.854Z</time>
      </trkpt>
      <trkpt lat="43.97442" lon="5.05935">
        <ele>139</ele>
        <time>2019-12-08T15:57:34.854Z</time>
      </trkpt>
      <trkpt lat="43.97447" lon="5.05946">
        <ele>140</ele>
        <time>2019-12-08T15:57:35.854Z</time>
      </trkpt>
      <trkpt lat="43.97453" lon="5.05968">
        <ele>141</ele>
        <time>2019-12-08T15:57:36.854Z</time>
      </trkpt>
      <trkpt lat="43.97455" lon="5.05974">
        <ele>141</ele>
        <time>2019-12-08T15:57:37.854Z</time>
      </trkpt>
      <trkpt lat="43.97459" lon="5.05984">
        <ele>141</ele>
        <time>2019-12-08T15:57:38.854Z</time>
      </trkpt>
      <trkpt lat="43.97461" lon="5.05987">
        <ele>141</ele>
        <time>2019-12-08T15:57:39.854Z</time>
      </trkpt>
      <trkpt lat="43.97463" lon="5.05994">
        <ele>142</ele>
        <time>2019-12-08T15:57:40.854Z</time>
      </trkpt>
      <trkpt lat="43.97463" lon="5.05995">
        <ele>142</ele>
        <time>2019-12-08T15:57:41.854Z</time>
      </trkpt>
      <trkpt lat="43.97466" lon="5.06">
        <ele>142</ele>
        <time>2019-12-08T15:57:42.854Z</time>
      </trkpt>
      <trkpt lat="43.97471" lon="5.0601">
        <ele>142</ele>
        <time>2019-12-08T15:57:43.854Z</time>
      </trkpt>
      <trkpt lat="43.97493" lon="5.06086">
        <ele>146</ele>
        <time>2019-12-08T15:57:44.854Z</time>
      </trkpt>
      <trkpt lat="43.97498" lon="5.06093">
        <ele>147</ele>
        <time>2019-12-08T15:57:45.854Z</time>
      </trkpt>
      <trkpt lat="43.975" lon="5.06092">
        <ele>147</ele>
        <time>2019-12-08T15:57:46.854Z</time>
      </trkpt>
      <trkpt lat="43.97503" lon="5.06091">
        <ele>147</ele>
        <time>2019-12-08T15:57:47.854Z</time>
      </trkpt>
      <trkpt lat="43.97503" lon="5.0609">
        <ele>147</ele>
        <time>2019-12-08T15:57:48.854Z</time>
      </trkpt>
      <trkpt lat="43.97503" lon="5.06088">
        <ele>146</ele>
        <time>2019-12-08T15:57:49.854Z</time>
      </trkpt>
      <trkpt lat="43.97506" lon="5.06083">
        <ele>146</ele>
        <time>2019-12-08T15:57:50.854Z</time>
      </trkpt>
      <trkpt lat="43.97513" lon="5.06064">
        <ele>146</ele>
        <time>2019-12-08T15:57:51.854Z</time>
      </trkpt>
      <trkpt lat="43.97515" lon="5.0606">
        <ele>146</ele>
        <time>2019-12-08T15:57:52.854Z</time>
      </trkpt>
      <trkpt lat="43.97526" lon="5.06042">
        <ele>146</ele>
        <time>2019-12-08T15:57:53.854Z</time>
      </trkpt>
      <trkpt lat="43.97529" lon="5.06032">
        <ele>146</ele>
        <time>2019-12-08T15:57:54.854Z</time>
      </trkpt>
      <trkpt lat="43.97541" lon="5.06002">
        <ele>147</ele>
        <time>2019-12-08T15:57:55.854Z</time>
      </trkpt>
      <trkpt lat="43.97562" lon="5.05973">
        <ele>150</ele>
        <time>2019-12-08T15:57:56.854Z</time>
      </trkpt>
      <trkpt lat="43.97578" lon="5.05946">
        <ele>152</ele>
        <time>2019-12-08T15:57:57.854Z</time>
      </trkpt>
      <trkpt lat="43.9759" lon="5.0592">
        <ele>154</ele>
        <time>2019-12-08T15:57:58.854Z</time>
      </trkpt>
      <trkpt lat="43.97593" lon="5.05913">
        <ele>155</ele>
        <time>2019-12-08T15:57:59.854Z</time>
      </trkpt>
      <trkpt lat="43.97593" lon="5.0591">
        <ele>155</ele>
        <time>2019-12-08T15:58:00.854Z</time>
      </trkpt>
      <trkpt lat="43.97594" lon="5.05893">
        <ele>154</ele>
        <time>2019-12-08T15:58:01.854Z</time>
      </trkpt>
      <trkpt lat="43.97598" lon="5.0586">
        <ele>154</ele>
        <time>2019-12-08T15:58:02.854Z</time>
      </trkpt>
      <trkpt lat="43.97607" lon="5.05837">
        <ele>155</ele>
        <time>2019-12-08T15:58:03.854Z</time>
      </trkpt>
      <trkpt lat="43.9761" lon="5.05828">
        <ele>155</ele>
        <time>2019-12-08T15:58:04.854Z</time>
      </trkpt>
      <trkpt lat="43.97609" lon="5.05825">
        <ele>154</ele>
        <time>2019-12-08T15:58:05.854Z</time>
      </trkpt>
      <trkpt lat="43.97609" lon="5.05818">
        <ele>154</ele>
        <time>2019-12-08T15:58:06.854Z</time>
      </trkpt>
      <trkpt lat="43.97611" lon="5.05803">
        <ele>153</ele>
        <time>2019-12-08T15:58:07.854Z</time>
      </trkpt>
      <trkpt lat="43.97615" lon="5.05801">
        <ele>153</ele>
        <time>2019-12-08T15:58:08.854Z</time>
      </trkpt>
      <trkpt lat="43.97624" lon="5.05803">
        <ele>155</ele>
        <time>2019-12-08T15:58:09.854Z</time>
      </trkpt>
      <trkpt lat="43.9763" lon="5.05807">
        <ele>156</ele>
        <time>2019-12-08T15:58:10.854Z</time>
      </trkpt>
      <trkpt lat="43.97637" lon="5.05812">
        <ele>158</ele>
        <time>2019-12-08T15:58:11.854Z</time>
      </trkpt>
      <trkpt lat="43.97639" lon="5.05813">
        <ele>158</ele>
        <time>2019-12-08T15:58:12.854Z</time>
      </trkpt>
      <trkpt lat="43.97642" lon="5.05814">
        <ele>158</ele>
        <time>2019-12-08T15:58:13.854Z</time>
      </trkpt>
      <trkpt lat="43.97645" lon="5.05815">
        <ele>159</ele>
        <time>2019-12-08T15:58:14.854Z</time>
      </trkpt>
      <trkpt lat="43.97648" lon="5.05818">
        <ele>160</ele>
        <time>2019-12-08T15:58:15.854Z</time>
      </trkpt>
      <trkpt lat="43.9765" lon="5.05821">
        <ele>160</ele>
        <time>2019-12-08T15:58:16.854Z</time>
      </trkpt>
      <trkpt lat="43.97654" lon="5.05828">
        <ele>162</ele>
        <time>2019-12-08T15:58:17.854Z</time>
      </trkpt>
      <trkpt lat="43.97658" lon="5.05839">
        <ele>163</ele>
        <time>2019-12-08T15:58:18.854Z</time>
      </trkpt>
      <trkpt lat="43.97661" lon="5.05844">
        <ele>164</ele>
        <time>2019-12-08T15:58:19.854Z</time>
      </trkpt>
      <trkpt lat="43.97662" lon="5.05847">
        <ele>164</ele>
        <time>2019-12-08T15:58:20.854Z</time>
      </trkpt>
      <trkpt lat="43.97667" lon="5.05858">
        <ele>166</ele>
        <time>2019-12-08T15:58:21.854Z</time>
      </trkpt>
      <trkpt lat="43.97691" lon="5.05871">
        <ele>169</ele>
        <time>2019-12-08T15:58:22.854Z</time>
      </trkpt>
      <trkpt lat="43.97696" lon="5.05871">
        <ele>170</ele>
        <time>2019-12-08T15:58:23.854Z</time>
      </trkpt>
      <trkpt lat="43.97699" lon="5.0587">
        <ele>170</ele>
        <time>2019-12-08T15:58:24.854Z</time>
      </trkpt>
      <trkpt lat="43.97702" lon="5.05868">
        <ele>171</ele>
        <time>2019-12-08T15:58:25.854Z</time>
      </trkpt>
      <trkpt lat="43.97714" lon="5.05865">
        <ele>172</ele>
        <time>2019-12-08T15:58:26.854Z</time>
      </trkpt>
      <trkpt lat="43.97727" lon="5.05859">
        <ele>173</ele>
        <time>2019-12-08T15:58:27.854Z</time>
      </trkpt>
      <trkpt lat="43.97741" lon="5.0585">
        <ele>174</ele>
        <time>2019-12-08T15:58:28.854Z</time>
      </trkpt>
      <trkpt lat="43.97744" lon="5.05848">
        <ele>174</ele>
        <time>2019-12-08T15:58:29.854Z</time>
      </trkpt>
      <trkpt lat="43.97751" lon="5.05841">
        <ele>175</ele>
        <time>2019-12-08T15:58:30.854Z</time>
      </trkpt>
      <trkpt lat="43.97757" lon="5.05834">
        <ele>175</ele>
        <time>2019-12-08T15:58:31.854Z</time>
      </trkpt>
      <trkpt lat="43.97763" lon="5.05829">
        <ele>176</ele>
        <time>2019-12-08T15:58:32.854Z</time>
      </trkpt>
      <trkpt lat="43.97777" lon="5.05814">
        <ele>177</ele>
        <time>2019-12-08T15:58:33.854Z</time>
      </trkpt>
      <trkpt lat="43.9778" lon="5.05815">
        <ele>177</ele>
        <time>2019-12-08T15:58:34.854Z</time>
      </trkpt>
      <trkpt lat="43.97782" lon="5.05814">
        <ele>177</ele>
        <time>2019-12-08T15:58:35.854Z</time>
      </trkpt>
      <trkpt lat="43.97785" lon="5.05821">
        <ele>178</ele>
        <time>2019-12-08T15:58:36.854Z</time>
      </trkpt>
      <trkpt lat="43.97784" lon="5.05831">
        <ele>179</ele>
        <time>2019-12-08T15:58:37.854Z</time>
      </trkpt>
      <trkpt lat="43.97782" lon="5.05834">
        <ele>179</ele>
        <time>2019-12-08T15:58:38.854Z</time>
      </trkpt>
      <trkpt lat="43.97778" lon="5.0584">
        <ele>179</ele>
        <time>2019-12-08T15:58:39.854Z</time>
      </trkpt>
      <trkpt lat="43.97776" lon="5.05845">
        <ele>179</ele>
        <time>2019-12-08T15:58:40.854Z</time>
      </trkpt>
      <trkpt lat="43.97777" lon="5.05856">
        <ele>180</ele>
        <time>2019-12-08T15:58:41.854Z</time>
      </trkpt>
      <trkpt lat="43.97775" lon="5.05859">
        <ele>180</ele>
        <time>2019-12-08T15:58:42.854Z</time>
      </trkpt>
      <trkpt lat="43.97775" lon="5.0587">
        <ele>181</ele>
        <time>2019-12-08T15:58:43.854Z</time>
      </trkpt>
      <trkpt lat="43.97777" lon="5.05878">
        <ele>182</ele>
        <time>2019-12-08T15:58:44.854Z</time>
      </trkpt>
      <trkpt lat="43.97776" lon="5.05885">
        <ele>182</ele>
        <time>2019-12-08T15:58:45.854Z</time>
      </trkpt>
      <trkpt lat="43.97776" lon="5.0589">
        <ele>183</ele>
        <time>2019-12-08T15:58:46.854Z</time>
      </trkpt>
      <trkpt lat="43.97778" lon="5.05892">
        <ele>183</ele>
        <time>2019-12-08T15:58:47.854Z</time>
      </trkpt>
      <trkpt lat="43.9778" lon="5.05892">
        <ele>184</ele>
        <time>2019-12-08T15:58:48.854Z</time>
      </trkpt>
      <trkpt lat="43.97789" lon="5.05895">
        <ele>185</ele>
        <time>2019-12-08T15:58:49.854Z</time>
      </trkpt>
      <trkpt lat="43.97792" lon="5.05893">
        <ele>186</ele>
        <time>2019-12-08T15:58:50.854Z</time>
      </trkpt>
      <trkpt lat="43.97807" lon="5.05888">
        <ele>187</ele>
        <time>2019-12-08T15:58:51.854Z</time>
      </trkpt>
      <trkpt lat="43.97807" lon="5.05887">
        <ele>187</ele>
        <time>2019-12-08T15:58:52.854Z</time>
      </trkpt>
      <trkpt lat="43.97808" lon="5.05887">
        <ele>188</ele>
        <time>2019-12-08T15:58:53.854Z</time>
      </trkpt>
      <trkpt lat="43.97808" lon="5.05887">
        <ele>188</ele>
        <time>2019-12-08T15:58:54.854Z</time>
      </trkpt>
      <trkpt lat="43.97812" lon="5.05883">
        <ele>188</ele>
        <time>2019-12-08T15:58:55.854Z</time>
      </trkpt>
      <trkpt lat="43.97817" lon="5.05882">
        <ele>189</ele>
        <time>2019-12-08T15:58:56.854Z</time>
      </trkpt>
      <trkpt lat="43.97821" lon="5.05878">
        <ele>189</ele>
        <time>2019-12-08T15:58:57.854Z</time>
      </trkpt>
      <trkpt lat="43.97826" lon="5.05867">
        <ele>189</ele>
        <time>2019-12-08T15:58:58.854Z</time>
      </trkpt>
      <trkpt lat="43.97827" lon="5.05863">
        <ele>189</ele>
        <time>2019-12-08T15:58:59.854Z</time>
      </trkpt>
      <trkpt lat="43.97828" lon="5.05829">
        <ele>186</ele>
        <time>2019-12-08T15:59:00.854Z</time>
      </trkpt>
      <trkpt lat="43.97823" lon="5.05804">
        <ele>183</ele>
        <time>2019-12-08T15:59:01.854Z</time>
      </trkpt>
      <trkpt lat="43.97819" lon="5.05792">
        <ele>181</ele>
        <time>2019-12-08T15:59:02.854Z</time>
      </trkpt>
      <trkpt lat="43.97818" lon="5.05778">
        <ele>180</ele>
        <time>2019-12-08T15:59:03.854Z</time>
      </trkpt>
      <trkpt lat="43.97816" lon="5.05769">
        <ele>179</ele>
        <time>2019-12-08T15:59:04.854Z</time>
      </trkpt>
      <trkpt lat="43.97817" lon="5.05759">
        <ele>178</ele>
        <time>2019-12-08T15:59:05.854Z</time>
      </trkpt>
      <trkpt lat="43.97818" lon="5.05753">
        <ele>178</ele>
        <time>2019-12-08T15:59:06.854Z</time>
      </trkpt>
      <trkpt lat="43.97825" lon="5.05747">
        <ele>178</ele>
        <time>2019-12-08T15:59:07.854Z</time>
      </trkpt>
      <trkpt lat="43.97837" lon="5.0573">
        <ele>178</ele>
        <time>2019-12-08T15:59:08.854Z</time>
      </trkpt>
      <trkpt lat="43.97839" lon="5.05729">
        <ele>178</ele>
        <time>2019-12-08T15:59:09.854Z</time>
      </trkpt>
      <trkpt lat="43.9784" lon="5.0573">
        <ele>178</ele>
        <time>2019-12-08T15:59:10.854Z</time>
      </trkpt>
      <trkpt lat="43.9784" lon="5.05731">
        <ele>178</ele>
        <time>2019-12-08T15:59:11.854Z</time>
      </trkpt>
      <trkpt lat="43.97845" lon="5.05732">
        <ele>178</ele>
        <time>2019-12-08T15:59:12.854Z</time>
      </trkpt>
      <trkpt lat="43.97855" lon="5.05737">
        <ele>179</ele>
        <time>2019-12-08T15:59:13.854Z</time>
      </trkpt>
      <trkpt lat="43.97866" lon="5.05742">
        <ele>180</ele>
        <time>2019-12-08T15:59:14.854Z</time>
      </trkpt>
      <trkpt lat="43.97878" lon="5.05748">
        <ele>181</ele>
        <time>2019-12-08T15:59:15.854Z</time>
      </trkpt>
      <trkpt lat="43.97879" lon="5.05749">
        <ele>181</ele>
        <time>2019-12-08T15:59:16.854Z</time>
      </trkpt>
      <trkpt lat="43.97879" lon="5.05759">
        <ele>182</ele>
        <time>2019-12-08T15:59:17.854Z</time>
      </trkpt>
      <trkpt lat="43.9788" lon="5.05761">
        <ele>182</ele>
        <time>2019-12-08T15:59:18.854Z</time>
      </trkpt>
      <trkpt lat="43.97886" lon="5.05765">
        <ele>183</ele>
        <time>2019-12-08T15:59:19.854Z</time>
      </trkpt>
      <trkpt lat="43.97888" lon="5.05767">
        <ele>183</ele>
        <time>2019-12-08T15:59:20.854Z</time>
      </trkpt>
      <trkpt lat="43.97901" lon="5.05773">
        <ele>184</ele>
        <time>2019-12-08T15:59:21.854Z</time>
      </trkpt>
      <trkpt lat="43.97905" lon="5.05775">
        <ele>184</ele>
        <time>2019-12-08T15:59:22.854Z</time>
      </trkpt>
      <trkpt lat="43.9794" lon="5.05789">
        <ele>185</ele>
        <time>2019-12-08T15:59:23.854Z</time>
      </trkpt>
      <trkpt lat="43.97944" lon="5.05792">
        <ele>185</ele>
        <time>2019-12-08T15:59:24.854Z</time>
      </trkpt>
      <trkpt lat="43.97961" lon="5.05796">
        <ele>185</ele>
        <time>2019-12-08T15:59:25.854Z</time>
      </trkpt>
      <trkpt lat="43.97972" lon="5.05801">
        <ele>185</ele>
        <time>2019-12-08T15:59:26.854Z</time>
      </trkpt>
      <trkpt lat="43.97979" lon="5.05804">
        <ele>185</ele>
        <time>2019-12-08T15:59:27.854Z</time>
      </trkpt>
      <trkpt lat="43.97996" lon="5.05803">
        <ele>184</ele>
        <time>2019-12-08T15:59:28.854Z</time>
      </trkpt>
      <trkpt lat="43.98001" lon="5.05798">
        <ele>183</ele>
        <time>2019-12-08T15:59:29.854Z</time>
      </trkpt>
      <trkpt lat="43.98004" lon="5.05787">
        <ele>182</ele>
        <time>2019-12-08T15:59:30.854Z</time>
      </trkpt>
      <trkpt lat="43.98007" lon="5.05774">
        <ele>181</ele>
        <time>2019-12-08T15:59:31.854Z</time>
      </trkpt>
      <trkpt lat="43.98011" lon="5.05752">
        <ele>179</ele>
        <time>2019-12-08T15:59:32.854Z</time>
      </trkpt>
      <trkpt lat="43.98021" lon="5.05746">
        <ele>177</ele>
        <time>2019-12-08T15:59:33.854Z</time>
      </trkpt>
      <trkpt lat="43.98026" lon="5.05744">
        <ele>175</ele>
        <time>2019-12-08T15:59:34.854Z</time>
      </trkpt>
      <trkpt lat="43.98031" lon="5.05744">
        <ele>175</ele>
        <time>2019-12-08T15:59:35.854Z</time>
      </trkpt>
      <trkpt lat="43.98042" lon="5.05739">
        <ele>172</ele>
        <time>2019-12-08T15:59:36.854Z</time>
      </trkpt>
      <trkpt lat="43.98063" lon="5.05742">
        <ele>169</ele>
        <time>2019-12-08T15:59:37.854Z</time>
      </trkpt>
      <trkpt lat="43.98072" lon="5.05741">
        <ele>167</ele>
        <time>2019-12-08T15:59:38.854Z</time>
      </trkpt>
      <trkpt lat="43.98074" lon="5.05742">
        <ele>167</ele>
        <time>2019-12-08T15:59:39.854Z</time>
      </trkpt>
      <trkpt lat="43.9808" lon="5.05748">
        <ele>166</ele>
        <time>2019-12-08T15:59:40.854Z</time>
      </trkpt>
      <trkpt lat="43.98084" lon="5.05755">
        <ele>166</ele>
        <time>2019-12-08T15:59:41.854Z</time>
      </trkpt>
      <trkpt lat="43.98084" lon="5.05762">
        <ele>166</ele>
        <time>2019-12-08T15:59:42.854Z</time>
      </trkpt>
      <trkpt lat="43.98083" lon="5.05766">
        <ele>166</ele>
        <time>2019-12-08T15:59:43.854Z</time>
      </trkpt>
      <trkpt lat="43.98086" lon="5.05772">
        <ele>165</ele>
        <time>2019-12-08T15:59:44.854Z</time>
      </trkpt>
      <trkpt lat="43.98089" lon="5.05777">
        <ele>164</ele>
        <time>2019-12-08T15:59:45.854Z</time>
      </trkpt>
      <trkpt lat="43.98097" lon="5.05781">
        <ele>161</ele>
        <time>2019-12-08T15:59:46.854Z</time>
      </trkpt>
      <trkpt lat="43.98102" lon="5.05783">
        <ele>159</ele>
        <time>2019-12-08T15:59:47.854Z</time>
      </trkpt>
      <trkpt lat="43.98106" lon="5.05784">
        <ele>157</ele>
        <time>2019-12-08T15:59:48.854Z</time>
      </trkpt>
      <trkpt lat="43.98108" lon="5.05783">
        <ele>156</ele>
        <time>2019-12-08T15:59:49.854Z</time>
      </trkpt>
      <trkpt lat="43.9811" lon="5.05783">
        <ele>156</ele>
        <time>2019-12-08T15:59:50.854Z</time>
      </trkpt>
      <trkpt lat="43.9811" lon="5.05784">
        <ele>156</ele>
        <time>2019-12-08T15:59:51.854Z</time>
      </trkpt>
      <trkpt lat="43.98117" lon="5.05778">
        <ele>153</ele>
        <time>2019-12-08T15:59:52.854Z</time>
      </trkpt>
      <trkpt lat="43.98121" lon="5.05775">
        <ele>152</ele>
        <time>2019-12-08T15:59:53.854Z</time>
      </trkpt>
      <trkpt lat="43.98129" lon="5.05765">
        <ele>149</ele>
        <time>2019-12-08T15:59:54.854Z</time>
      </trkpt>
      <trkpt lat="43.98133" lon="5.05758">
        <ele>148</ele>
        <time>2019-12-08T15:59:55.854Z</time>
      </trkpt>
      <trkpt lat="43.98138" lon="5.05754">
        <ele>146</ele>
        <time>2019-12-08T15:59:56.854Z</time>
      </trkpt>
      <trkpt lat="43.98143" lon="5.05746">
        <ele>145</ele>
        <time>2019-12-08T15:59:57.854Z</time>
      </trkpt>
      <trkpt lat="43.98145" lon="5.05739">
        <ele>144</ele>
        <time>2019-12-08T15:59:58.854Z</time>
      </trkpt>
      <trkpt lat="43.98148" lon="5.05731">
        <ele>143</ele>
        <time>2019-12-08T15:59:59.854Z</time>
      </trkpt>
      <trkpt lat="43.98152" lon="5.05722">
        <ele>142</ele>
        <time>2019-12-08T16:00:00.854Z</time>
      </trkpt>
      <trkpt lat="43.98158" lon="5.05714">
        <ele>141</ele>
        <time>2019-12-08T16:00:01.854Z</time>
      </trkpt>
      <trkpt lat="43.98162" lon="5.05706">
        <ele>140</ele>
        <time>2019-12-08T16:00:02.854Z</time>
      </trkpt>
      <trkpt lat="43.98163" lon="5.05698">
        <ele>141</ele>
        <time>2019-12-08T16:00:03.854Z</time>
      </trkpt>
      <trkpt lat="43.98164" lon="5.05681">
        <ele>142</ele>
        <time>2019-12-08T16:00:04.854Z</time>
      </trkpt>
      <trkpt lat="43.98167" lon="5.05674">
        <ele>141</ele>
        <time>2019-12-08T16:00:05.854Z</time>
      </trkpt>
      <trkpt lat="43.9817" lon="5.05668">
        <ele>142</ele>
        <time>2019-12-08T16:00:06.854Z</time>
      </trkpt>
      <trkpt lat="43.98174" lon="5.05663">
        <ele>142</ele>
        <time>2019-12-08T16:00:07.854Z</time>
      </trkpt>
      <trkpt lat="43.98179" lon="5.05662">
        <ele>142</ele>
        <time>2019-12-08T16:00:08.854Z</time>
      </trkpt>
      <trkpt lat="43.98184" lon="5.05664">
        <ele>141</ele>
        <time>2019-12-08T16:00:09.854Z</time>
      </trkpt>
      <trkpt lat="43.98196" lon="5.05665">
        <ele>141</ele>
        <time>2019-12-08T16:00:10.854Z</time>
      </trkpt>
      <trkpt lat="43.98206" lon="5.05673">
        <ele>140</ele>
        <time>2019-12-08T16:00:11.854Z</time>
      </trkpt>
      <trkpt lat="43.98214" lon="5.05679">
        <ele>139</ele>
        <time>2019-12-08T16:00:12.854Z</time>
      </trkpt>
      <trkpt lat="43.98223" lon="5.05688">
        <ele>137</ele>
        <time>2019-12-08T16:00:13.854Z</time>
      </trkpt>
      <trkpt lat="43.98232" lon="5.05699">
        <ele>135</ele>
        <time>2019-12-08T16:00:14.854Z</time>
      </trkpt>
      <trkpt lat="43.98249" lon="5.0571">
        <ele>133</ele>
        <time>2019-12-08T16:00:15.854Z</time>
      </trkpt>
      <trkpt lat="43.98257" lon="5.05716">
        <ele>132</ele>
        <time>2019-12-08T16:00:16.854Z</time>
      </trkpt>
      <trkpt lat="43.98272" lon="5.05734">
        <ele>131</ele>
        <time>2019-12-08T16:00:17.854Z</time>
      </trkpt>
      <trkpt lat="43.98285" lon="5.0575">
        <ele>130</ele>
        <time>2019-12-08T16:00:18.854Z</time>
      </trkpt>
      <trkpt lat="43.98292" lon="5.05765">
        <ele>128</ele>
        <time>2019-12-08T16:00:19.854Z</time>
      </trkpt>
      <trkpt lat="43.98298" lon="5.05777">
        <ele>126</ele>
        <time>2019-12-08T16:00:20.854Z</time>
      </trkpt>
      <trkpt lat="43.98303" lon="5.05781">
        <ele>126</ele>
        <time>2019-12-08T16:00:21.854Z</time>
      </trkpt>
      <trkpt lat="43.98316" lon="5.05794">
        <ele>124</ele>
        <time>2019-12-08T16:00:22.854Z</time>
      </trkpt>
      <trkpt lat="43.98327" lon="5.05803">
        <ele>122</ele>
        <time>2019-12-08T16:00:23.854Z</time>
      </trkpt>
      <trkpt lat="43.98332" lon="5.05807">
        <ele>122</ele>
        <time>2019-12-08T16:00:24.854Z</time>
      </trkpt>
      <trkpt lat="43.98341" lon="5.05812">
        <ele>119</ele>
        <time>2019-12-08T16:00:25.854Z</time>
      </trkpt>
      <trkpt lat="43.9835" lon="5.05813">
        <ele>117</ele>
        <time>2019-12-08T16:00:26.854Z</time>
      </trkpt>
      <trkpt lat="43.98355" lon="5.0581">
        <ele>117</ele>
        <time>2019-12-08T16:00:27.854Z</time>
      </trkpt>
      <trkpt lat="43.9836" lon="5.05808">
        <ele>116</ele>
        <time>2019-12-08T16:00:28.854Z</time>
      </trkpt>
      <trkpt lat="43.98364" lon="5.05804">
        <ele>116</ele>
        <time>2019-12-08T16:00:29.854Z</time>
      </trkpt>
      <trkpt lat="43.98372" lon="5.05799">
        <ele>116</ele>
        <time>2019-12-08T16:00:30.854Z</time>
      </trkpt>
      <trkpt lat="43.98379" lon="5.05793">
        <ele>116</ele>
        <time>2019-12-08T16:00:31.854Z</time>
      </trkpt>
      <trkpt lat="43.984" lon="5.05785">
        <ele>113</ele>
        <time>2019-12-08T16:00:32.854Z</time>
      </trkpt>
      <trkpt lat="43.98412" lon="5.05777">
        <ele>112</ele>
        <time>2019-12-08T16:00:33.854Z</time>
      </trkpt>
      <trkpt lat="43.98441" lon="5.05756">
        <ele>110</ele>
        <time>2019-12-08T16:00:34.854Z</time>
      </trkpt>
      <trkpt lat="43.98445" lon="5.05752">
        <ele>110</ele>
        <time>2019-12-08T16:00:35.854Z</time>
      </trkpt>
      <trkpt lat="43.9845" lon="5.05751">
        <ele>109</ele>
        <time>2019-12-08T16:00:36.854Z</time>
      </trkpt>
      <trkpt lat="43.98452" lon="5.0575">
        <ele>109</ele>
        <time>2019-12-08T16:00:37.854Z</time>
      </trkpt>
      <trkpt lat="43.98468" lon="5.05735">
        <ele>106</ele>
        <time>2019-12-08T16:00:38.854Z</time>
      </trkpt>
      <trkpt lat="43.98471" lon="5.05732">
        <ele>105</ele>
        <time>2019-12-08T16:00:39.854Z</time>
      </trkpt>
      <trkpt lat="43.98473" lon="5.05732">
        <ele>104</ele>
        <time>2019-12-08T16:00:40.854Z</time>
      </trkpt>
      <trkpt lat="43.98474" lon="5.05734">
        <ele>104</ele>
        <time>2019-12-08T16:00:41.854Z</time>
      </trkpt>
      <trkpt lat="43.98472" lon="5.05739">
        <ele>104</ele>
        <time>2019-12-08T16:00:42.854Z</time>
      </trkpt>
      <trkpt lat="43.98469" lon="5.05746">
        <ele>105</ele>
        <time>2019-12-08T16:00:43.854Z</time>
      </trkpt>
      <trkpt lat="43.98461" lon="5.05759">
        <ele>105</ele>
        <time>2019-12-08T16:00:44.854Z</time>
      </trkpt>
      <trkpt lat="43.98458" lon="5.05764">
        <ele>105</ele>
        <time>2019-12-08T16:00:45.854Z</time>
      </trkpt>
      <trkpt lat="43.98452" lon="5.05774">
        <ele>105</ele>
        <time>2019-12-08T16:00:46.854Z</time>
      </trkpt>
      <trkpt lat="43.98426" lon="5.05808">
        <ele>104</ele>
        <time>2019-12-08T16:00:47.854Z</time>
      </trkpt>
      <trkpt lat="43.98419" lon="5.05817">
        <ele>103</ele>
        <time>2019-12-08T16:00:48.854Z</time>
      </trkpt>
      <trkpt lat="43.98415" lon="5.05821">
        <ele>103</ele>
        <time>2019-12-08T16:00:49.854Z</time>
      </trkpt>
      <trkpt lat="43.98406" lon="5.0583">
        <ele>103</ele>
        <time>2019-12-08T16:00:50.854Z</time>
      </trkpt>
      <trkpt lat="43.98392" lon="5.05846">
        <ele>103</ele>
        <time>2019-12-08T16:00:51.854Z</time>
      </trkpt>
      <trkpt lat="43.9838" lon="5.05858">
        <ele>104</ele>
        <time>2019-12-08T16:00:52.854Z</time>
      </trkpt>
      <trkpt lat="43.98367" lon="5.0587">
        <ele>105</ele>
        <time>2019-12-08T16:00:53.854Z</time>
      </trkpt>
      <trkpt lat="43.98344" lon="5.05885">
        <ele>105</ele>
        <time>2019-12-08T16:00:54.854Z</time>
      </trkpt>
      <trkpt lat="43.98334" lon="5.05894">
        <ele>105</ele>
        <time>2019-12-08T16:00:55.854Z</time>
      </trkpt>
      <trkpt lat="43.98325" lon="5.05906">
        <ele>104</ele>
        <time>2019-12-08T16:00:56.854Z</time>
      </trkpt>
      <trkpt lat="43.98325" lon="5.05906">
        <ele>104</ele>
        <time>2019-12-08T16:00:57.854Z</time>
      </trkpt>
      <trkpt lat="43.9832" lon="5.05914">
        <ele>103</ele>
        <time>2019-12-08T16:00:58.854Z</time>
      </trkpt>
      <trkpt lat="43.98304" lon="5.05935">
        <ele>103</ele>
        <time>2019-12-08T16:00:59.854Z</time>
      </trkpt>
      <trkpt lat="43.98291" lon="5.05954">
        <ele>104</ele>
        <time>2019-12-08T16:01:00.854Z</time>
      </trkpt>
      <trkpt lat="43.9828" lon="5.05974">
        <ele>105</ele>
        <time>2019-12-08T16:01:01.854Z</time>
      </trkpt>
      <trkpt lat="43.98279" lon="5.05975">
        <ele>105</ele>
        <time>2019-12-08T16:01:02.854Z</time>
      </trkpt>
      <trkpt lat="43.98279" lon="5.05977">
        <ele>105</ele>
        <time>2019-12-08T16:01:03.854Z</time>
      </trkpt>
      <trkpt lat="43.98278" lon="5.0598">
        <ele>105</ele>
        <time>2019-12-08T16:01:04.854Z</time>
      </trkpt>
      <trkpt lat="43.98278" lon="5.05984">
        <ele>105</ele>
        <time>2019-12-08T16:01:05.854Z</time>
      </trkpt>
      <trkpt lat="43.9828" lon="5.05996">
        <ele>104</ele>
        <time>2019-12-08T16:01:06.854Z</time>
      </trkpt>
      <trkpt lat="43.9829" lon="5.06022">
        <ele>102</ele>
        <time>2019-12-08T16:01:07.854Z</time>
      </trkpt>
      <trkpt lat="43.98291" lon="5.06032">
        <ele>102</ele>
        <time>2019-12-08T16:01:08.854Z</time>
      </trkpt>
      <trkpt lat="43.98279" lon="5.06053">
        <ele>103</ele>
        <time>2019-12-08T16:01:09.854Z</time>
      </trkpt>
      <trkpt lat="43.98273" lon="5.06063">
        <ele>103</ele>
        <time>2019-12-08T16:01:10.854Z</time>
      </trkpt>
      <trkpt lat="43.98258" lon="5.06095">
        <ele>103</ele>
        <time>2019-12-08T16:01:11.854Z</time>
      </trkpt>
      <trkpt lat="43.98253" lon="5.0611">
        <ele>103</ele>
        <time>2019-12-08T16:01:12.854Z</time>
      </trkpt>
      <trkpt lat="43.98242" lon="5.06126">
        <ele>104</ele>
        <time>2019-12-08T16:01:13.854Z</time>
      </trkpt>
      <trkpt lat="43.9823" lon="5.06138">
        <ele>104</ele>
        <time>2019-12-08T16:01:14.854Z</time>
      </trkpt>
      <trkpt lat="43.98212" lon="5.0616">
        <ele>104</ele>
        <time>2019-12-08T16:01:15.854Z</time>
      </trkpt>
      <trkpt lat="43.98205" lon="5.06168">
        <ele>104</ele>
        <time>2019-12-08T16:01:16.854Z</time>
      </trkpt>
      <trkpt lat="43.98202" lon="5.06173">
        <ele>104</ele>
        <time>2019-12-08T16:01:17.854Z</time>
      </trkpt>
      <trkpt lat="43.98199" lon="5.06178">
        <ele>104</ele>
        <time>2019-12-08T16:01:18.854Z</time>
      </trkpt>
      <trkpt lat="43.98195" lon="5.06182">
        <ele>104</ele>
        <time>2019-12-08T16:01:19.854Z</time>
      </trkpt>
      <trkpt lat="43.98191" lon="5.06186">
        <ele>104</ele>
        <time>2019-12-08T16:01:20.854Z</time>
      </trkpt>
      <trkpt lat="43.98179" lon="5.06195">
        <ele>104</ele>
        <time>2019-12-08T16:01:21.854Z</time>
      </trkpt>
      <trkpt lat="43.98175" lon="5.06199">
        <ele>104</ele>
        <time>2019-12-08T16:01:22.854Z</time>
      </trkpt>
      <trkpt lat="43.98169" lon="5.0621">
        <ele>103</ele>
        <time>2019-12-08T16:01:23.854Z</time>
      </trkpt>
      <trkpt lat="43.98165" lon="5.06213">
        <ele>103</ele>
        <time>2019-12-08T16:01:24.854Z</time>
      </trkpt>
      <trkpt lat="43.98157" lon="5.06231">
        <ele>103</ele>
        <time>2019-12-08T16:01:25.854Z</time>
      </trkpt>
      <trkpt lat="43.98149" lon="5.06243">
        <ele>103</ele>
        <time>2019-12-08T16:01:26.854Z</time>
      </trkpt>
      <trkpt lat="43.98136" lon="5.06251">
        <ele>103</ele>
        <time>2019-12-08T16:01:27.854Z</time>
      </trkpt>
      <trkpt lat="43.98132" lon="5.06254">
        <ele>103</ele>
        <time>2019-12-08T16:01:28.854Z</time>
      </trkpt>
      <trkpt lat="43.98129" lon="5.06258">
        <ele>104</ele>
        <time>2019-12-08T16:01:29.854Z</time>
      </trkpt>
      <trkpt lat="43.98123" lon="5.06266">
        <ele>104</ele>
        <time>2019-12-08T16:01:30.854Z</time>
      </trkpt>
      <trkpt lat="43.98115" lon="5.06274">
        <ele>104</ele>
        <time>2019-12-08T16:01:31.854Z</time>
      </trkpt>
      <trkpt lat="43.98107" lon="5.06282">
        <ele>104</ele>
        <time>2019-12-08T16:01:32.854Z</time>
      </trkpt>
      <trkpt lat="43.981" lon="5.06291">
        <ele>104</ele>
        <time>2019-12-08T16:01:33.854Z</time>
      </trkpt>
      <trkpt lat="43.98097" lon="5.06296">
        <ele>104</ele>
        <time>2019-12-08T16:01:34.854Z</time>
      </trkpt>
      <trkpt lat="43.98089" lon="5.06317">
        <ele>104</ele>
        <time>2019-12-08T16:01:35.854Z</time>
      </trkpt>
      <trkpt lat="43.98078" lon="5.06336">
        <ele>103</ele>
        <time>2019-12-08T16:01:36.854Z</time>
      </trkpt>
      <trkpt lat="43.98062" lon="5.0636">
        <ele>103</ele>
        <time>2019-12-08T16:01:37.854Z</time>
      </trkpt>
      <trkpt lat="43.98062" lon="5.06361">
        <ele>103</ele>
        <time>2019-12-08T16:01:38.854Z</time>
      </trkpt>
      <trkpt lat="43.98049" lon="5.06376">
        <ele>104</ele>
        <time>2019-12-08T16:01:39.854Z</time>
      </trkpt>
      <trkpt lat="43.98046" lon="5.0638">
        <ele>103</ele>
        <time>2019-12-08T16:01:40.854Z</time>
      </trkpt>
      <trkpt lat="43.97997" lon="5.06446">
        <ele>103</ele>
        <time>2019-12-08T16:01:41.854Z</time>
      </trkpt>
      <trkpt lat="43.97982" lon="5.06467">
        <ele>104</ele>
        <time>2019-12-08T16:01:42.854Z</time>
      </trkpt>
      <trkpt lat="43.9788" lon="5.06592">
        <ele>110</ele>
        <time>2019-12-08T16:01:43.854Z</time>
      </trkpt>
      <trkpt lat="43.9787" lon="5.06605">
        <ele>111</ele>
        <time>2019-12-08T16:01:44.854Z</time>
      </trkpt>
      <trkpt lat="43.97866" lon="5.06612">
        <ele>112</ele>
        <time>2019-12-08T16:01:45.854Z</time>
      </trkpt>
      <trkpt lat="43.97864" lon="5.06616">
        <ele>112</ele>
        <time>2019-12-08T16:01:46.854Z</time>
      </trkpt>
      <trkpt lat="43.97864" lon="5.06631">
        <ele>113</ele>
        <time>2019-12-08T16:01:47.854Z</time>
      </trkpt>
      <trkpt lat="43.97865" lon="5.06647">
        <ele>113</ele>
        <time>2019-12-08T16:01:48.854Z</time>
      </trkpt>
      <trkpt lat="43.97864" lon="5.06651">
        <ele>113</ele>
        <time>2019-12-08T16:01:49.854Z</time>
      </trkpt>
      <trkpt lat="43.97863" lon="5.06654">
        <ele>113</ele>
        <time>2019-12-08T16:01:50.854Z</time>
      </trkpt>
      <trkpt lat="43.97862" lon="5.06653">
        <ele>113</ele>
        <time>2019-12-08T16:01:51.854Z</time>
      </trkpt>
      <trkpt lat="43.97861" lon="5.0665">
        <ele>113</ele>
        <time>2019-12-08T16:01:52.854Z</time>
      </trkpt>
      <trkpt lat="43.97857" lon="5.06647">
        <ele>114</ele>
        <time>2019-12-08T16:01:53.854Z</time>
      </trkpt>
      <trkpt lat="43.97853" lon="5.0664">
        <ele>114</ele>
        <time>2019-12-08T16:01:54.854Z</time>
      </trkpt>
      <trkpt lat="43.97848" lon="5.06633">
        <ele>114</ele>
        <time>2019-12-08T16:01:55.854Z</time>
      </trkpt>
      <trkpt lat="43.97845" lon="5.0663">
        <ele>114</ele>
        <time>2019-12-08T16:01:56.854Z</time>
      </trkpt>
      <trkpt lat="43.97844" lon="5.06631">
        <ele>115</ele>
        <time>2019-12-08T16:01:57.854Z</time>
      </trkpt>
      <trkpt lat="43.97844" lon="5.06631">
        <ele>115</ele>
        <time>2019-12-08T16:01:58.854Z</time>
      </trkpt>
      <trkpt lat="43.97842" lon="5.06628">
        <ele>115</ele>
        <time>2019-12-08T16:01:59.854Z</time>
      </trkpt>
      <trkpt lat="43.97842" lon="5.06628">
        <ele>115</ele>
        <time>2019-12-08T16:02:00.854Z</time>
      </trkpt>
      <trkpt lat="43.9784" lon="5.06627">
        <ele>115</ele>
        <time>2019-12-08T16:02:01.854Z</time>
      </trkpt>
      <trkpt lat="43.97838" lon="5.06621">
        <ele>115</ele>
        <time>2019-12-08T16:02:02.854Z</time>
      </trkpt>
      <trkpt lat="43.97837" lon="5.06617">
        <ele>115</ele>
        <time>2019-12-08T16:02:03.854Z</time>
      </trkpt>
      <trkpt lat="43.97827" lon="5.06606">
        <ele>116</ele>
        <time>2019-12-08T16:02:04.854Z</time>
      </trkpt>
      <trkpt lat="43.97818" lon="5.06598">
        <ele>118</ele>
        <time>2019-12-08T16:02:05.854Z</time>
      </trkpt>
      <trkpt lat="43.9781" lon="5.0659">
        <ele>119</ele>
        <time>2019-12-08T16:02:06.854Z</time>
      </trkpt>
      <trkpt lat="43.97802" lon="5.06583">
        <ele>121</ele>
        <time>2019-12-08T16:02:07.854Z</time>
      </trkpt>
      <trkpt lat="43.97795" lon="5.06576">
        <ele>122</ele>
        <time>2019-12-08T16:02:08.854Z</time>
      </trkpt>
      <trkpt lat="43.97784" lon="5.06565">
        <ele>124</ele>
        <time>2019-12-08T16:02:09.854Z</time>
      </trkpt>
      <trkpt lat="43.97782" lon="5.06563">
        <ele>124</ele>
        <time>2019-12-08T16:02:10.854Z</time>
      </trkpt>
      <trkpt lat="43.97772" lon="5.06558">
        <ele>126</ele>
        <time>2019-12-08T16:02:11.854Z</time>
      </trkpt>
      <trkpt lat="43.97767" lon="5.06555">
        <ele>127</ele>
        <time>2019-12-08T16:02:12.854Z</time>
      </trkpt>
      <trkpt lat="43.97745" lon="5.06539">
        <ele>130</ele>
        <time>2019-12-08T16:02:13.854Z</time>
      </trkpt>
      <trkpt lat="43.9774" lon="5.06536">
        <ele>131</ele>
        <time>2019-12-08T16:02:14.854Z</time>
      </trkpt>
      <trkpt lat="43.97734" lon="5.0653">
        <ele>131</ele>
        <time>2019-12-08T16:02:15.854Z</time>
      </trkpt>
      <trkpt lat="43.97727" lon="5.06524">
        <ele>132</ele>
        <time>2019-12-08T16:02:16.854Z</time>
      </trkpt>
      <trkpt lat="43.97682" lon="5.06474">
        <ele>136</ele>
        <time>2019-12-08T16:02:17.854Z</time>
      </trkpt>
      <trkpt lat="43.97672" lon="5.06463">
        <ele>137</ele>
        <time>2019-12-08T16:02:18.854Z</time>
      </trkpt>
      <trkpt lat="43.97647" lon="5.06432">
        <ele>139</ele>
        <time>2019-12-08T16:02:19.854Z</time>
      </trkpt>
      <trkpt lat="43.9764" lon="5.06424">
        <ele>139</ele>
        <time>2019-12-08T16:02:20.854Z</time>
      </trkpt>
      <trkpt lat="43.9761" lon="5.06385">
        <ele>141</ele>
        <time>2019-12-08T16:02:21.854Z</time>
      </trkpt>
      <trkpt lat="43.97608" lon="5.06381">
        <ele>142</ele>
        <time>2019-12-08T16:02:22.854Z</time>
      </trkpt>
      <trkpt lat="43.9759" lon="5.06361">
        <ele>144</ele>
        <time>2019-12-08T16:02:23.854Z</time>
      </trkpt>
      <trkpt lat="43.97585" lon="5.06356">
        <ele>145</ele>
        <time>2019-12-08T16:02:24.854Z</time>
      </trkpt>
      <trkpt lat="43.97567" lon="5.06341">
        <ele>147</ele>
        <time>2019-12-08T16:02:25.854Z</time>
      </trkpt>
      <trkpt lat="43.97554" lon="5.0633">
        <ele>149</ele>
        <time>2019-12-08T16:02:26.854Z</time>
      </trkpt>
      <trkpt lat="43.97545" lon="5.0632">
        <ele>151</ele>
        <time>2019-12-08T16:02:27.854Z</time>
      </trkpt>
      <trkpt lat="43.97545" lon="5.0632">
        <ele>151</ele>
        <time>2019-12-08T16:02:28.854Z</time>
      </trkpt>
      <trkpt lat="43.97537" lon="5.06324">
        <ele>151</ele>
        <time>2019-12-08T16:02:29.854Z</time>
      </trkpt>
      <trkpt lat="43.97537" lon="5.06325">
        <ele>151</ele>
        <time>2019-12-08T16:02:30.854Z</time>
      </trkpt>
      <trkpt lat="43.97525" lon="5.0633">
        <ele>151</ele>
        <time>2019-12-08T16:02:31.854Z</time>
      </trkpt>
      <trkpt lat="43.97513" lon="5.06334">
        <ele>151</ele>
        <time>2019-12-08T16:02:32.854Z</time>
      </trkpt>
      <trkpt lat="43.97509" lon="5.06335">
        <ele>151</ele>
        <time>2019-12-08T16:02:33.854Z</time>
      </trkpt>
      <trkpt lat="43.97491" lon="5.06341">
        <ele>152</ele>
        <time>2019-12-08T16:02:34.854Z</time>
      </trkpt>
      <trkpt lat="43.97478" lon="5.06342">
        <ele>152</ele>
        <time>2019-12-08T16:02:35.854Z</time>
      </trkpt>
      <trkpt lat="43.97456" lon="5.06348">
        <ele>153</ele>
        <time>2019-12-08T16:02:36.854Z</time>
      </trkpt>
      <trkpt lat="43.97443" lon="5.06347">
        <ele>154</ele>
        <time>2019-12-08T16:02:37.854Z</time>
      </trkpt>
      <trkpt lat="43.9744" lon="5.06348">
        <ele>155</ele>
        <time>2019-12-08T16:02:38.854Z</time>
      </trkpt>
      <trkpt lat="43.97429" lon="5.06343">
        <ele>156</ele>
        <time>2019-12-08T16:02:39.854Z</time>
      </trkpt>
      <trkpt lat="43.97425" lon="5.06341">
        <ele>157</ele>
        <time>2019-12-08T16:02:40.854Z</time>
      </trkpt>
      <trkpt lat="43.97412" lon="5.06337">
        <ele>158</ele>
        <time>2019-12-08T16:02:41.854Z</time>
      </trkpt>
      <trkpt lat="43.97402" lon="5.06333">
        <ele>160</ele>
        <time>2019-12-08T16:02:42.854Z</time>
      </trkpt>
      <trkpt lat="43.97384" lon="5.06332">
        <ele>162</ele>
        <time>2019-12-08T16:02:43.854Z</time>
      </trkpt>
      <trkpt lat="43.97378" lon="5.06331">
        <ele>162</ele>
        <time>2019-12-08T16:02:44.854Z</time>
      </trkpt>
      <trkpt lat="43.97365" lon="5.06333">
        <ele>164</ele>
        <time>2019-12-08T16:02:45.854Z</time>
      </trkpt>
      <trkpt lat="43.97361" lon="5.06333">
        <ele>164</ele>
        <time>2019-12-08T16:02:46.854Z</time>
      </trkpt>
      <trkpt lat="43.97352" lon="5.06337">
        <ele>165</ele>
        <time>2019-12-08T16:02:47.854Z</time>
      </trkpt>
      <trkpt lat="43.97351" lon="5.06337">
        <ele>165</ele>
        <time>2019-12-08T16:02:48.854Z</time>
      </trkpt>
      <trkpt lat="43.97345" lon="5.06338">
        <ele>166</ele>
        <time>2019-12-08T16:02:49.854Z</time>
      </trkpt>
      <trkpt lat="43.97344" lon="5.06337">
        <ele>166</ele>
        <time>2019-12-08T16:02:50.854Z</time>
      </trkpt>
      <trkpt lat="43.97344" lon="5.06337">
        <ele>166</ele>
        <time>2019-12-08T16:02:51.854Z</time>
      </trkpt>
      <trkpt lat="43.97335" lon="5.0634">
        <ele>167</ele>
        <time>2019-12-08T16:02:52.854Z</time>
      </trkpt>
      <trkpt lat="43.9733" lon="5.06341">
        <ele>167</ele>
        <time>2019-12-08T16:02:53.854Z</time>
      </trkpt>
      <trkpt lat="43.97327" lon="5.06344">
        <ele>168</ele>
        <time>2019-12-08T16:02:54.854Z</time>
      </trkpt>
      <trkpt lat="43.9732" lon="5.06349">
        <ele>169</ele>
        <time>2019-12-08T16:02:55.854Z</time>
      </trkpt>
      <trkpt lat="43.97316" lon="5.0635">
        <ele>170</ele>
        <time>2019-12-08T16:02:56.854Z</time>
      </trkpt>
      <trkpt lat="43.97312" lon="5.06354">
        <ele>171</ele>
        <time>2019-12-08T16:02:57.854Z</time>
      </trkpt>
      <trkpt lat="43.97309" lon="5.06356">
        <ele>172</ele>
        <time>2019-12-08T16:02:58.854Z</time>
      </trkpt>
      <trkpt lat="43.97305" lon="5.06359">
        <ele>173</ele>
        <time>2019-12-08T16:02:59.854Z</time>
      </trkpt>
      <trkpt lat="43.973" lon="5.06365">
        <ele>174</ele>
        <time>2019-12-08T16:03:00.854Z</time>
      </trkpt>
      <trkpt lat="43.97297" lon="5.06373">
        <ele>174</ele>
        <time>2019-12-08T16:03:01.854Z</time>
      </trkpt>
      <trkpt lat="43.97291" lon="5.0638">
        <ele>176</ele>
        <time>2019-12-08T16:03:02.854Z</time>
      </trkpt>
      <trkpt lat="43.97287" lon="5.06384">
        <ele>177</ele>
        <time>2019-12-08T16:03:03.854Z</time>
      </trkpt>
      <trkpt lat="43.97273" lon="5.06406">
        <ele>180</ele>
        <time>2019-12-08T16:03:04.854Z</time>
      </trkpt>
      <trkpt lat="43.97268" lon="5.06413">
        <ele>181</ele>
        <time>2019-12-08T16:03:05.854Z</time>
      </trkpt>
      <trkpt lat="43.9726" lon="5.06426">
        <ele>183</ele>
        <time>2019-12-08T16:03:06.854Z</time>
      </trkpt>
      <trkpt lat="43.97259" lon="5.06428">
        <ele>184</ele>
        <time>2019-12-08T16:03:07.854Z</time>
      </trkpt>
      <trkpt lat="43.97256" lon="5.0644">
        <ele>184</ele>
        <time>2019-12-08T16:03:08.854Z</time>
      </trkpt>
      <trkpt lat="43.97256" lon="5.0645">
        <ele>184</ele>
        <time>2019-12-08T16:03:09.854Z</time>
      </trkpt>
      <trkpt lat="43.97254" lon="5.06457">
        <ele>185</ele>
        <time>2019-12-08T16:03:10.854Z</time>
      </trkpt>
      <trkpt lat="43.97251" lon="5.0647">
        <ele>186</ele>
        <time>2019-12-08T16:03:11.854Z</time>
      </trkpt>
      <trkpt lat="43.97249" lon="5.06476">
        <ele>186</ele>
        <time>2019-12-08T16:03:12.854Z</time>
      </trkpt>
      <trkpt lat="43.97248" lon="5.0648">
        <ele>187</ele>
        <time>2019-12-08T16:03:13.854Z</time>
      </trkpt>
      <trkpt lat="43.97244" lon="5.06486">
        <ele>188</ele>
        <time>2019-12-08T16:03:14.854Z</time>
      </trkpt>
      <trkpt lat="43.97241" lon="5.0649">
        <ele>188</ele>
        <time>2019-12-08T16:03:15.854Z</time>
      </trkpt>
      <trkpt lat="43.97238" lon="5.06493">
        <ele>189</ele>
        <time>2019-12-08T16:03:16.854Z</time>
      </trkpt>
      <trkpt lat="43.97234" lon="5.06493">
        <ele>190</ele>
        <time>2019-12-08T16:03:17.854Z</time>
      </trkpt>
      <trkpt lat="43.97231" lon="5.06494">
        <ele>191</ele>
        <time>2019-12-08T16:03:18.854Z</time>
      </trkpt>
      <trkpt lat="43.97211" lon="5.06507">
        <ele>195</ele>
        <time>2019-12-08T16:03:19.854Z</time>
      </trkpt>
      <trkpt lat="43.9721" lon="5.06507">
        <ele>195</ele>
        <time>2019-12-08T16:03:20.854Z</time>
      </trkpt>
      <trkpt lat="43.97205" lon="5.06512">
        <ele>196</ele>
        <time>2019-12-08T16:03:21.854Z</time>
      </trkpt>
      <trkpt lat="43.97203" lon="5.06513">
        <ele>197</ele>
        <time>2019-12-08T16:03:22.854Z</time>
      </trkpt>
      <trkpt lat="43.97202" lon="5.06514">
        <ele>197</ele>
        <time>2019-12-08T16:03:23.854Z</time>
      </trkpt>
      <trkpt lat="43.97198" lon="5.0652">
        <ele>197</ele>
        <time>2019-12-08T16:03:24.854Z</time>
      </trkpt>
      <trkpt lat="43.97195" lon="5.06527">
        <ele>197</ele>
        <time>2019-12-08T16:03:25.854Z</time>
      </trkpt>
      <trkpt lat="43.97193" lon="5.06531">
        <ele>197</ele>
        <time>2019-12-08T16:03:26.854Z</time>
      </trkpt>
      <trkpt lat="43.97189" lon="5.06537">
        <ele>197</ele>
        <time>2019-12-08T16:03:27.854Z</time>
      </trkpt>
      <trkpt lat="43.97181" lon="5.06547">
        <ele>198</ele>
        <time>2019-12-08T16:03:28.854Z</time>
      </trkpt>
      <trkpt lat="43.97167" lon="5.06562">
        <ele>200</ele>
        <time>2019-12-08T16:03:29.854Z</time>
      </trkpt>
      <trkpt lat="43.97151" lon="5.06578">
        <ele>203</ele>
        <time>2019-12-08T16:03:30.854Z</time>
      </trkpt>
      <trkpt lat="43.97141" lon="5.06592">
        <ele>204</ele>
        <time>2019-12-08T16:03:31.854Z</time>
      </trkpt>
      <trkpt lat="43.97139" lon="5.06593">
        <ele>204</ele>
        <time>2019-12-08T16:03:32.854Z</time>
      </trkpt>
      <trkpt lat="43.9713" lon="5.06601">
        <ele>205</ele>
        <time>2019-12-08T16:03:33.854Z</time>
      </trkpt>
      <trkpt lat="43.97126" lon="5.06606">
        <ele>205</ele>
        <time>2019-12-08T16:03:34.854Z</time>
      </trkpt>
      <trkpt lat="43.97123" lon="5.0661">
        <ele>205</ele>
        <time>2019-12-08T16:03:35.854Z</time>
      </trkpt>
      <trkpt lat="43.97117" lon="5.06618">
        <ele>206</ele>
        <time>2019-12-08T16:03:36.854Z</time>
      </trkpt>
      <trkpt lat="43.97115" lon="5.06622">
        <ele>205</ele>
        <time>2019-12-08T16:03:37.854Z</time>
      </trkpt>
      <trkpt lat="43.97099" lon="5.06638">
        <ele>207</ele>
        <time>2019-12-08T16:03:38.854Z</time>
      </trkpt>
      <trkpt lat="43.97091" lon="5.06649">
        <ele>206</ele>
        <time>2019-12-08T16:03:39.854Z</time>
      </trkpt>
      <trkpt lat="43.97091" lon="5.06651">
        <ele>206</ele>
        <time>2019-12-08T16:03:40.854Z</time>
      </trkpt>
      <trkpt lat="43.97089" lon="5.06665">
        <ele>204</ele>
        <time>2019-12-08T16:03:41.854Z</time>
      </trkpt>
      <trkpt lat="43.9709" lon="5.06678">
        <ele>201</ele>
        <time>2019-12-08T16:03:42.854Z</time>
      </trkpt>
      <trkpt lat="43.9709" lon="5.06683">
        <ele>200</ele>
        <time>2019-12-08T16:03:43.854Z</time>
      </trkpt>
      <trkpt lat="43.97087" lon="5.06694">
        <ele>198</ele>
        <time>2019-12-08T16:03:44.854Z</time>
      </trkpt>
      <trkpt lat="43.97085" lon="5.06697">
        <ele>198</ele>
        <time>2019-12-08T16:03:45.854Z</time>
      </trkpt>
      <trkpt lat="43.9708" lon="5.06699">
        <ele>198</ele>
        <time>2019-12-08T16:03:46.854Z</time>
      </trkpt>
      <trkpt lat="43.97074" lon="5.06704">
        <ele>198</ele>
        <time>2019-12-08T16:03:47.854Z</time>
      </trkpt>
      <trkpt lat="43.97071" lon="5.06707">
        <ele>198</ele>
        <time>2019-12-08T16:03:48.854Z</time>
      </trkpt>
      <trkpt lat="43.97068" lon="5.06712">
        <ele>197</ele>
        <time>2019-12-08T16:03:49.854Z</time>
      </trkpt>
      <trkpt lat="43.97064" lon="5.06716">
        <ele>196</ele>
        <time>2019-12-08T16:03:50.854Z</time>
      </trkpt>
      <trkpt lat="43.97058" lon="5.06719">
        <ele>196</ele>
        <time>2019-12-08T16:03:51.854Z</time>
      </trkpt>
      <trkpt lat="43.97048" lon="5.06724">
        <ele>196</ele>
        <time>2019-12-08T16:03:52.854Z</time>
      </trkpt>
      <trkpt lat="43.97027" lon="5.06727">
        <ele>197</ele>
        <time>2019-12-08T16:03:53.854Z</time>
      </trkpt>
      <trkpt lat="43.97023" lon="5.06727">
        <ele>198</ele>
        <time>2019-12-08T16:03:54.854Z</time>
      </trkpt>
      <trkpt lat="43.96986" lon="5.06735">
        <ele>198</ele>
        <time>2019-12-08T16:03:55.854Z</time>
      </trkpt>
      <trkpt lat="43.96975" lon="5.06735">
        <ele>198</ele>
        <time>2019-12-08T16:03:56.854Z</time>
      </trkpt>
      <trkpt lat="43.96974" lon="5.06738">
        <ele>197</ele>
        <time>2019-12-08T16:03:57.854Z</time>
      </trkpt>
      <trkpt lat="43.96973" lon="5.06748">
        <ele>195</ele>
        <time>2019-12-08T16:03:58.854Z</time>
      </trkpt>
      <trkpt lat="43.96974" lon="5.06754">
        <ele>193</ele>
        <time>2019-12-08T16:03:59.854Z</time>
      </trkpt>
      <trkpt lat="43.9697" lon="5.06767">
        <ele>190</ele>
        <time>2019-12-08T16:04:00.854Z</time>
      </trkpt>
      <trkpt lat="43.96962" lon="5.06774">
        <ele>189</ele>
        <time>2019-12-08T16:04:01.854Z</time>
      </trkpt>
      <trkpt lat="43.96959" lon="5.06776">
        <ele>188</ele>
        <time>2019-12-08T16:04:02.854Z</time>
      </trkpt>
      <trkpt lat="43.96957" lon="5.06782">
        <ele>187</ele>
        <time>2019-12-08T16:04:03.854Z</time>
      </trkpt>
      <trkpt lat="43.96956" lon="5.06788">
        <ele>186</ele>
        <time>2019-12-08T16:04:04.854Z</time>
      </trkpt>
      <trkpt lat="43.96957" lon="5.06796">
        <ele>184</ele>
        <time>2019-12-08T16:04:05.854Z</time>
      </trkpt>
      <trkpt lat="43.96961" lon="5.068">
        <ele>183</ele>
        <time>2019-12-08T16:04:06.854Z</time>
      </trkpt>
      <trkpt lat="43.96963" lon="5.06806">
        <ele>181</ele>
        <time>2019-12-08T16:04:07.854Z</time>
      </trkpt>
      <trkpt lat="43.96963" lon="5.06828">
        <ele>176</ele>
        <time>2019-12-08T16:04:08.854Z</time>
      </trkpt>
      <trkpt lat="43.9696" lon="5.06835">
        <ele>175</ele>
        <time>2019-12-08T16:04:09.854Z</time>
      </trkpt>
      <trkpt lat="43.96962" lon="5.06852">
        <ele>171</ele>
        <time>2019-12-08T16:04:10.854Z</time>
      </trkpt>
      <trkpt lat="43.96963" lon="5.06857">
        <ele>171</ele>
        <time>2019-12-08T16:04:11.854Z</time>
      </trkpt>
      <trkpt lat="43.96966" lon="5.06919">
        <ele>159</ele>
        <time>2019-12-08T16:04:12.854Z</time>
      </trkpt>
      <trkpt lat="43.96966" lon="5.06927">
        <ele>158</ele>
        <time>2019-12-08T16:04:13.854Z</time>
      </trkpt>
      <trkpt lat="43.96965" lon="5.06932">
        <ele>157</ele>
        <time>2019-12-08T16:04:14.854Z</time>
      </trkpt>
      <trkpt lat="43.96964" lon="5.06946">
        <ele>156</ele>
        <time>2019-12-08T16:04:15.854Z</time>
      </trkpt>
      <trkpt lat="43.96962" lon="5.06965">
        <ele>153</ele>
        <time>2019-12-08T16:04:16.854Z</time>
      </trkpt>
      <trkpt lat="43.96962" lon="5.06973">
        <ele>152</ele>
        <time>2019-12-08T16:04:17.854Z</time>
      </trkpt>
      <trkpt lat="43.96959" lon="5.06985">
        <ele>150</ele>
        <time>2019-12-08T16:04:18.854Z</time>
      </trkpt>
      <trkpt lat="43.96959" lon="5.06992">
        <ele>150</ele>
        <time>2019-12-08T16:04:19.854Z</time>
      </trkpt>
      <trkpt lat="43.96959" lon="5.07">
        <ele>149</ele>
        <time>2019-12-08T16:04:20.854Z</time>
      </trkpt>
      <trkpt lat="43.9696" lon="5.07004">
        <ele>148</ele>
        <time>2019-12-08T16:04:21.854Z</time>
      </trkpt>
      <trkpt lat="43.96963" lon="5.07014">
        <ele>147</ele>
        <time>2019-12-08T16:04:22.854Z</time>
      </trkpt>
      <trkpt lat="43.96963" lon="5.07019">
        <ele>146</ele>
        <time>2019-12-08T16:04:23.854Z</time>
      </trkpt>
      <trkpt lat="43.96961" lon="5.07026">
        <ele>145</ele>
        <time>2019-12-08T16:04:24.854Z</time>
      </trkpt>
      <trkpt lat="43.96958" lon="5.07042">
        <ele>143</ele>
        <time>2019-12-08T16:04:25.854Z</time>
      </trkpt>
      <trkpt lat="43.96956" lon="5.07048">
        <ele>142</ele>
        <time>2019-12-08T16:04:26.854Z</time>
      </trkpt>
      <trkpt lat="43.96953" lon="5.07052">
        <ele>142</ele>
        <time>2019-12-08T16:04:27.854Z</time>
      </trkpt>
      <trkpt lat="43.96949" lon="5.07054">
        <ele>141</ele>
        <time>2019-12-08T16:04:28.854Z</time>
      </trkpt>
      <trkpt lat="43.9694" lon="5.07057">
        <ele>141</ele>
        <time>2019-12-08T16:04:29.854Z</time>
      </trkpt>
      <trkpt lat="43.96931" lon="5.07055">
        <ele>142</ele>
        <time>2019-12-08T16:04:30.854Z</time>
      </trkpt>
      <trkpt lat="43.96918" lon="5.07054">
        <ele>142</ele>
        <time>2019-12-08T16:04:31.854Z</time>
      </trkpt>
      <trkpt lat="43.96908" lon="5.07055">
        <ele>143</ele>
        <time>2019-12-08T16:04:32.854Z</time>
      </trkpt>
      <trkpt lat="43.96906" lon="5.07058">
        <ele>143</ele>
        <time>2019-12-08T16:04:33.854Z</time>
      </trkpt>
      <trkpt lat="43.96905" lon="5.07062">
        <ele>142</ele>
        <time>2019-12-08T16:04:34.854Z</time>
      </trkpt>
      <trkpt lat="43.96903" lon="5.0708">
        <ele>141</ele>
        <time>2019-12-08T16:04:35.854Z</time>
      </trkpt>
      <trkpt lat="43.96904" lon="5.0708">
        <ele>141</ele>
        <time>2019-12-08T16:04:36.854Z</time>
      </trkpt>
      <trkpt lat="43.96908" lon="5.07088">
        <ele>140</ele>
        <time>2019-12-08T16:04:37.854Z</time>
      </trkpt>
      <trkpt lat="43.96913" lon="5.071">
        <ele>138</ele>
        <time>2019-12-08T16:04:38.854Z</time>
      </trkpt>
      <trkpt lat="43.96918" lon="5.07112">
        <ele>137</ele>
        <time>2019-12-08T16:04:39.854Z</time>
      </trkpt>
      <trkpt lat="43.96933" lon="5.07147">
        <ele>133</ele>
        <time>2019-12-08T16:04:40.854Z</time>
      </trkpt>
      <trkpt lat="43.96936" lon="5.07156">
        <ele>132</ele>
        <time>2019-12-08T16:04:41.854Z</time>
      </trkpt>
      <trkpt lat="43.9694" lon="5.07168">
        <ele>131</ele>
        <time>2019-12-08T16:04:42.854Z</time>
      </trkpt>
      <trkpt lat="43.96964" lon="5.07228">
        <ele>132</ele>
        <time>2019-12-08T16:04:43.854Z</time>
      </trkpt>
      <trkpt lat="43.96972" lon="5.07245">
        <ele>133</ele>
        <time>2019-12-08T16:04:44.854Z</time>
      </trkpt>
      <trkpt lat="43.96972" lon="5.07249">
        <ele>133</ele>
        <time>2019-12-08T16:04:45.854Z</time>
      </trkpt>
      <trkpt lat="43.9697" lon="5.07251">
        <ele>133</ele>
        <time>2019-12-08T16:04:46.854Z</time>
      </trkpt>
      <trkpt lat="43.96967" lon="5.07258">
        <ele>134</ele>
        <time>2019-12-08T16:04:47.854Z</time>
      </trkpt>
      <trkpt lat="43.96963" lon="5.07261">
        <ele>134</ele>
        <time>2019-12-08T16:04:48.854Z</time>
      </trkpt>
      <trkpt lat="43.96953" lon="5.07266">
        <ele>134</ele>
        <time>2019-12-08T16:04:49.854Z</time>
      </trkpt>
      <trkpt lat="43.96934" lon="5.07275">
        <ele>135</ele>
        <time>2019-12-08T16:04:50.854Z</time>
      </trkpt>
      <trkpt lat="43.96919" lon="5.07283">
        <ele>135</ele>
        <time>2019-12-08T16:04:51.854Z</time>
      </trkpt>
      <trkpt lat="43.96878" lon="5.07299">
        <ele>137</ele>
        <time>2019-12-08T16:04:52.854Z</time>
      </trkpt>
      <trkpt lat="43.96873" lon="5.07301">
        <ele>137</ele>
        <time>2019-12-08T16:04:53.854Z</time>
      </trkpt>
      <trkpt lat="43.96826" lon="5.07318">
        <ele>138</ele>
        <time>2019-12-08T16:04:54.854Z</time>
      </trkpt>
      <trkpt lat="43.96813" lon="5.07323">
        <ele>139</ele>
        <time>2019-12-08T16:04:55.854Z</time>
      </trkpt>
      <trkpt lat="43.96786" lon="5.07335">
        <ele>140</ele>
        <time>2019-12-08T16:04:56.854Z</time>
      </trkpt>
      <trkpt lat="43.96764" lon="5.07346">
        <ele>142</ele>
        <time>2019-12-08T16:04:57.854Z</time>
      </trkpt>
      <trkpt lat="43.96725" lon="5.07367">
        <ele>145</ele>
        <time>2019-12-08T16:04:58.854Z</time>
      </trkpt>
      <trkpt lat="43.9672" lon="5.0737">
        <ele>145</ele>
        <time>2019-12-08T16:04:59.854Z</time>
      </trkpt>
      <trkpt lat="43.96715" lon="5.07374">
        <ele>145</ele>
        <time>2019-12-08T16:05:00.854Z</time>
      </trkpt>
      <trkpt lat="43.96703" lon="5.07382">
        <ele>146</ele>
        <time>2019-12-08T16:05:01.854Z</time>
      </trkpt>
      <trkpt lat="43.96682" lon="5.07394">
        <ele>148</ele>
        <time>2019-12-08T16:05:02.854Z</time>
      </trkpt>
      <trkpt lat="43.9667" lon="5.07401">
        <ele>148</ele>
        <time>2019-12-08T16:05:03.854Z</time>
      </trkpt>
      <trkpt lat="43.96662" lon="5.07405">
        <ele>149</ele>
        <time>2019-12-08T16:05:04.854Z</time>
      </trkpt>
      <trkpt lat="43.96647" lon="5.07412">
        <ele>150</ele>
        <time>2019-12-08T16:05:05.854Z</time>
      </trkpt>
      <trkpt lat="43.96613" lon="5.07429">
        <ele>152</ele>
        <time>2019-12-08T16:05:06.854Z</time>
      </trkpt>
      <trkpt lat="43.96606" lon="5.07433">
        <ele>153</ele>
        <time>2019-12-08T16:05:07.854Z</time>
      </trkpt>
      <trkpt lat="43.96564" lon="5.07451">
        <ele>158</ele>
        <time>2019-12-08T16:05:08.854Z</time>
      </trkpt>
      <trkpt lat="43.96554" lon="5.07455">
        <ele>159</ele>
        <time>2019-12-08T16:05:09.854Z</time>
      </trkpt>
      <trkpt lat="43.96542" lon="5.07464">
        <ele>161</ele>
        <time>2019-12-08T16:05:10.854Z</time>
      </trkpt>
      <trkpt lat="43.96536" lon="5.07469">
        <ele>161</ele>
        <time>2019-12-08T16:05:11.854Z</time>
      </trkpt>
      <trkpt lat="43.96491" lon="5.07512">
        <ele>168</ele>
        <time>2019-12-08T16:05:12.854Z</time>
      </trkpt>
      <trkpt lat="43.96488" lon="5.07514">
        <ele>169</ele>
        <time>2019-12-08T16:05:13.854Z</time>
      </trkpt>
      <trkpt lat="43.96475" lon="5.07527">
        <ele>172</ele>
        <time>2019-12-08T16:05:14.854Z</time>
      </trkpt>
      <trkpt lat="43.9647" lon="5.07532">
        <ele>173</ele>
        <time>2019-12-08T16:05:15.854Z</time>
      </trkpt>
      <trkpt lat="43.96453" lon="5.07543">
        <ele>176</ele>
        <time>2019-12-08T16:05:16.854Z</time>
      </trkpt>
      <trkpt lat="43.96448" lon="5.07546">
        <ele>176</ele>
        <time>2019-12-08T16:05:17.854Z</time>
      </trkpt>
      <trkpt lat="43.96438" lon="5.07548">
        <ele>177</ele>
        <time>2019-12-08T16:05:18.854Z</time>
      </trkpt>
      <trkpt lat="43.96415" lon="5.0755">
        <ele>179</ele>
        <time>2019-12-08T16:05:19.854Z</time>
      </trkpt>
      <trkpt lat="43.96407" lon="5.0755">
        <ele>179</ele>
        <time>2019-12-08T16:05:20.854Z</time>
      </trkpt>
      <trkpt lat="43.96392" lon="5.07551">
        <ele>180</ele>
        <time>2019-12-08T16:05:21.854Z</time>
      </trkpt>
      <trkpt lat="43.96384" lon="5.0755">
        <ele>180</ele>
        <time>2019-12-08T16:05:22.854Z</time>
      </trkpt>
      <trkpt lat="43.96374" lon="5.07549">
        <ele>181</ele>
        <time>2019-12-08T16:05:23.854Z</time>
      </trkpt>
      <trkpt lat="43.96369" lon="5.07548">
        <ele>181</ele>
        <time>2019-12-08T16:05:24.854Z</time>
      </trkpt>
      <trkpt lat="43.9636" lon="5.07554">
        <ele>181</ele>
        <time>2019-12-08T16:05:25.854Z</time>
      </trkpt>
      <trkpt lat="43.9636" lon="5.07556">
        <ele>181</ele>
        <time>2019-12-08T16:05:26.854Z</time>
      </trkpt>
      <trkpt lat="43.9636" lon="5.07556">
        <ele>181</ele>
        <time>2019-12-08T16:05:27.854Z</time>
      </trkpt>
      <trkpt lat="43.96362" lon="5.07559">
        <ele>181</ele>
        <time>2019-12-08T16:05:28.854Z</time>
      </trkpt>
      <trkpt lat="43.96375" lon="5.07563">
        <ele>181</ele>
        <time>2019-12-08T16:05:29.854Z</time>
      </trkpt>
      <trkpt lat="43.96376" lon="5.07563">
        <ele>181</ele>
        <time>2019-12-08T16:05:30.854Z</time>
      </trkpt>
      <trkpt lat="43.96381" lon="5.07566">
        <ele>181</ele>
        <time>2019-12-08T16:05:31.854Z</time>
      </trkpt>
      <trkpt lat="43.96383" lon="5.07567">
        <ele>181</ele>
        <time>2019-12-08T16:05:32.854Z</time>
      </trkpt>
      <trkpt lat="43.96392" lon="5.07566">
        <ele>180</ele>
        <time>2019-12-08T16:05:33.854Z</time>
      </trkpt>
      <trkpt lat="43.96402" lon="5.07571">
        <ele>180</ele>
        <time>2019-12-08T16:05:34.854Z</time>
      </trkpt>
      <trkpt lat="43.96404" lon="5.07573">
        <ele>180</ele>
        <time>2019-12-08T16:05:35.854Z</time>
      </trkpt>
      <trkpt lat="43.96407" lon="5.07576">
        <ele>179</ele>
        <time>2019-12-08T16:05:36.854Z</time>
      </trkpt>
      <trkpt lat="43.96408" lon="5.07581">
        <ele>179</ele>
        <time>2019-12-08T16:05:37.854Z</time>
      </trkpt>
      <trkpt lat="43.96411" lon="5.07587">
        <ele>180</ele>
        <time>2019-12-08T16:05:38.854Z</time>
      </trkpt>
      <trkpt lat="43.96413" lon="5.07589">
        <ele>180</ele>
        <time>2019-12-08T16:05:39.854Z</time>
      </trkpt>
      <trkpt lat="43.96417" lon="5.07591">
        <ele>180</ele>
        <time>2019-12-08T16:05:40.854Z</time>
      </trkpt>
      <trkpt lat="43.96424" lon="5.07598">
        <ele>181</ele>
        <time>2019-12-08T16:05:41.854Z</time>
      </trkpt>
      <trkpt lat="43.96426" lon="5.076">
        <ele>181</ele>
        <time>2019-12-08T16:05:42.854Z</time>
      </trkpt>
      <trkpt lat="43.96426" lon="5.07604">
        <ele>181</ele>
        <time>2019-12-08T16:05:43.854Z</time>
      </trkpt>
      <trkpt lat="43.96426" lon="5.07607">
        <ele>182</ele>
        <time>2019-12-08T16:05:44.854Z</time>
      </trkpt>
      <trkpt lat="43.96431" lon="5.07616">
        <ele>183</ele>
        <time>2019-12-08T16:05:45.854Z</time>
      </trkpt>
      <trkpt lat="43.96432" lon="5.07623">
        <ele>184</ele>
        <time>2019-12-08T16:05:46.854Z</time>
      </trkpt>
      <trkpt lat="43.96432" lon="5.0763">
        <ele>185</ele>
        <time>2019-12-08T16:05:47.854Z</time>
      </trkpt>
      <trkpt lat="43.96432" lon="5.07632">
        <ele>185</ele>
        <time>2019-12-08T16:05:48.854Z</time>
      </trkpt>
      <trkpt lat="43.96431" lon="5.07643">
        <ele>186</ele>
        <time>2019-12-08T16:05:49.854Z</time>
      </trkpt>
      <trkpt lat="43.96432" lon="5.07654">
        <ele>187</ele>
        <time>2019-12-08T16:05:50.854Z</time>
      </trkpt>
      <trkpt lat="43.96428" lon="5.07661">
        <ele>188</ele>
        <time>2019-12-08T16:05:51.854Z</time>
      </trkpt>
      <trkpt lat="43.96428" lon="5.07663">
        <ele>189</ele>
        <time>2019-12-08T16:05:52.854Z</time>
      </trkpt>
      <trkpt lat="43.9643" lon="5.07674">
        <ele>190</ele>
        <time>2019-12-08T16:05:53.854Z</time>
      </trkpt>
      <trkpt lat="43.9643" lon="5.07675">
        <ele>190</ele>
        <time>2019-12-08T16:05:54.854Z</time>
      </trkpt>
      <trkpt lat="43.96429" lon="5.0768">
        <ele>190</ele>
        <time>2019-12-08T16:05:55.854Z</time>
      </trkpt>
      <trkpt lat="43.96428" lon="5.07681">
        <ele>190</ele>
        <time>2019-12-08T16:05:56.854Z</time>
      </trkpt>
      <trkpt lat="43.96424" lon="5.0769">
        <ele>191</ele>
        <time>2019-12-08T16:05:57.854Z</time>
      </trkpt>
      <trkpt lat="43.96423" lon="5.07695">
        <ele>192</ele>
        <time>2019-12-08T16:05:58.854Z</time>
      </trkpt>
      <trkpt lat="43.96419" lon="5.07702">
        <ele>192</ele>
        <time>2019-12-08T16:05:59.854Z</time>
      </trkpt>
      <trkpt lat="43.96422" lon="5.0771">
        <ele>193</ele>
        <time>2019-12-08T16:06:00.854Z</time>
      </trkpt>
      <trkpt lat="43.96429" lon="5.07708">
        <ele>193</ele>
        <time>2019-12-08T16:06:01.854Z</time>
      </trkpt>
      <trkpt lat="43.9643" lon="5.07708">
        <ele>193</ele>
        <time>2019-12-08T16:06:02.854Z</time>
      </trkpt>
      <trkpt lat="43.96433" lon="5.0771">
        <ele>193</ele>
        <time>2019-12-08T16:06:03.854Z</time>
      </trkpt>
      <trkpt lat="43.96435" lon="5.07713">
        <ele>194</ele>
        <time>2019-12-08T16:06:04.854Z</time>
      </trkpt>
      <trkpt lat="43.96441" lon="5.07717">
        <ele>194</ele>
        <time>2019-12-08T16:06:05.854Z</time>
      </trkpt>
      <trkpt lat="43.96446" lon="5.07721">
        <ele>195</ele>
        <time>2019-12-08T16:06:06.854Z</time>
      </trkpt>
      <trkpt lat="43.96457" lon="5.0772">
        <ele>195</ele>
        <time>2019-12-08T16:06:07.854Z</time>
      </trkpt>
      <trkpt lat="43.96467" lon="5.07722">
        <ele>196</ele>
        <time>2019-12-08T16:06:08.854Z</time>
      </trkpt>
      <trkpt lat="43.96474" lon="5.07729">
        <ele>197</ele>
        <time>2019-12-08T16:06:09.854Z</time>
      </trkpt>
      <trkpt lat="43.96484" lon="5.07736">
        <ele>198</ele>
        <time>2019-12-08T16:06:10.854Z</time>
      </trkpt>
      <trkpt lat="43.96487" lon="5.07738">
        <ele>198</ele>
        <time>2019-12-08T16:06:11.854Z</time>
      </trkpt>
      <trkpt lat="43.96488" lon="5.0774">
        <ele>198</ele>
        <time>2019-12-08T16:06:12.854Z</time>
      </trkpt>
      <trkpt lat="43.96489" lon="5.07743">
        <ele>199</ele>
        <time>2019-12-08T16:06:13.854Z</time>
      </trkpt>
      <trkpt lat="43.96491" lon="5.07746">
        <ele>199</ele>
        <time>2019-12-08T16:06:14.854Z</time>
      </trkpt>
      <trkpt lat="43.96491" lon="5.07747">
        <ele>199</ele>
        <time>2019-12-08T16:06:15.854Z</time>
      </trkpt>
      <trkpt lat="43.96491" lon="5.07746">
        <ele>199</ele>
        <time>2019-12-08T16:06:16.854Z</time>
      </trkpt>
      <trkpt lat="43.96492" lon="5.07746">
        <ele>199</ele>
        <time>2019-12-08T16:06:17.854Z</time>
      </trkpt>
      <trkpt lat="43.96497" lon="5.07748">
        <ele>200</ele>
        <time>2019-12-08T16:06:18.854Z</time>
      </trkpt>
      <trkpt lat="43.96505" lon="5.07753">
        <ele>200</ele>
        <time>2019-12-08T16:06:19.854Z</time>
      </trkpt>
      <trkpt lat="43.96513" lon="5.07766">
        <ele>200</ele>
        <time>2019-12-08T16:06:20.854Z</time>
      </trkpt>
      <trkpt lat="43.96525" lon="5.07779">
        <ele>199</ele>
        <time>2019-12-08T16:06:21.854Z</time>
      </trkpt>
      <trkpt lat="43.96526" lon="5.07785">
        <ele>199</ele>
        <time>2019-12-08T16:06:22.854Z</time>
      </trkpt>
      <trkpt lat="43.96526" lon="5.07789">
        <ele>200</ele>
        <time>2019-12-08T16:06:23.854Z</time>
      </trkpt>
      <trkpt lat="43.96525" lon="5.07793">
        <ele>200</ele>
        <time>2019-12-08T16:06:24.854Z</time>
      </trkpt>
      <trkpt lat="43.9652" lon="5.07805">
        <ele>200</ele>
        <time>2019-12-08T16:06:25.854Z</time>
      </trkpt>
      <trkpt lat="43.96519" lon="5.07831">
        <ele>201</ele>
        <time>2019-12-08T16:06:26.854Z</time>
      </trkpt>
      <trkpt lat="43.96519" lon="5.07831">
        <ele>201</ele>
        <time>2019-12-08T16:06:27.854Z</time>
      </trkpt>
      <trkpt lat="43.96519" lon="5.07839">
        <ele>202</ele>
        <time>2019-12-08T16:06:28.854Z</time>
      </trkpt>
      <trkpt lat="43.96526" lon="5.07857">
        <ele>203</ele>
        <time>2019-12-08T16:06:29.854Z</time>
      </trkpt>
      <trkpt lat="43.96528" lon="5.07861">
        <ele>203</ele>
        <time>2019-12-08T16:06:30.854Z</time>
      </trkpt>
      <trkpt lat="43.96529" lon="5.07866">
        <ele>204</ele>
        <time>2019-12-08T16:06:31.854Z</time>
      </trkpt>
      <trkpt lat="43.96527" lon="5.07874">
        <ele>205</ele>
        <time>2019-12-08T16:06:32.854Z</time>
      </trkpt>
      <trkpt lat="43.96528" lon="5.07885">
        <ele>206</ele>
        <time>2019-12-08T16:06:33.854Z</time>
      </trkpt>
      <trkpt lat="43.96527" lon="5.07894">
        <ele>207</ele>
        <time>2019-12-08T16:06:34.854Z</time>
      </trkpt>
      <trkpt lat="43.96524" lon="5.07911">
        <ele>208</ele>
        <time>2019-12-08T16:06:35.854Z</time>
      </trkpt>
      <trkpt lat="43.96525" lon="5.07918">
        <ele>209</ele>
        <time>2019-12-08T16:06:36.854Z</time>
      </trkpt>
      <trkpt lat="43.96528" lon="5.07924">
        <ele>209</ele>
        <time>2019-12-08T16:06:37.854Z</time>
      </trkpt>
      <trkpt lat="43.96531" lon="5.07927">
        <ele>210</ele>
        <time>2019-12-08T16:06:38.854Z</time>
      </trkpt>
      <trkpt lat="43.96539" lon="5.07928">
        <ele>210</ele>
        <time>2019-12-08T16:06:39.854Z</time>
      </trkpt>
      <trkpt lat="43.9654" lon="5.07928">
        <ele>210</ele>
        <time>2019-12-08T16:06:40.854Z</time>
      </trkpt>
      <trkpt lat="43.96546" lon="5.07934">
        <ele>210</ele>
        <time>2019-12-08T16:06:41.854Z</time>
      </trkpt>
      <trkpt lat="43.96549" lon="5.07936">
        <ele>210</ele>
        <time>2019-12-08T16:06:42.854Z</time>
      </trkpt>
      <trkpt lat="43.96556" lon="5.07939">
        <ele>211</ele>
        <time>2019-12-08T16:06:43.854Z</time>
      </trkpt>
      <trkpt lat="43.96559" lon="5.07939">
        <ele>211</ele>
        <time>2019-12-08T16:06:44.854Z</time>
      </trkpt>
      <trkpt lat="43.96567" lon="5.07938">
        <ele>211</ele>
        <time>2019-12-08T16:06:45.854Z</time>
      </trkpt>
      <trkpt lat="43.96571" lon="5.07937">
        <ele>210</ele>
        <time>2019-12-08T16:06:46.854Z</time>
      </trkpt>
      <trkpt lat="43.96577" lon="5.07929">
        <ele>210</ele>
        <time>2019-12-08T16:06:47.854Z</time>
      </trkpt>
      <trkpt lat="43.96583" lon="5.07926">
        <ele>209</ele>
        <time>2019-12-08T16:06:48.854Z</time>
      </trkpt>
      <trkpt lat="43.9659" lon="5.07928">
        <ele>210</ele>
        <time>2019-12-08T16:06:49.854Z</time>
      </trkpt>
      <trkpt lat="43.96593" lon="5.0793">
        <ele>210</ele>
        <time>2019-12-08T16:06:50.854Z</time>
      </trkpt>
      <trkpt lat="43.96597" lon="5.07928">
        <ele>210</ele>
        <time>2019-12-08T16:06:51.854Z</time>
      </trkpt>
      <trkpt lat="43.9661" lon="5.07919">
        <ele>210</ele>
        <time>2019-12-08T16:06:52.854Z</time>
      </trkpt>
      <trkpt lat="43.9662" lon="5.07918">
        <ele>211</ele>
        <time>2019-12-08T16:06:53.854Z</time>
      </trkpt>
      <trkpt lat="43.96622" lon="5.07918">
        <ele>211</ele>
        <time>2019-12-08T16:06:54.854Z</time>
      </trkpt>
      <trkpt lat="43.96638" lon="5.07924">
        <ele>213</ele>
        <time>2019-12-08T16:06:55.854Z</time>
      </trkpt>
      <trkpt lat="43.96656" lon="5.07935">
        <ele>215</ele>
        <time>2019-12-08T16:06:56.854Z</time>
      </trkpt>
      <trkpt lat="43.96668" lon="5.07941">
        <ele>216</ele>
        <time>2019-12-08T16:06:57.854Z</time>
      </trkpt>
      <trkpt lat="43.96674" lon="5.07943">
        <ele>217</ele>
        <time>2019-12-08T16:06:58.854Z</time>
      </trkpt>
      <trkpt lat="43.96678" lon="5.07941">
        <ele>216</ele>
        <time>2019-12-08T16:06:59.854Z</time>
      </trkpt>
      <trkpt lat="43.96681" lon="5.07939">
        <ele>216</ele>
        <time>2019-12-08T16:07:00.854Z</time>
      </trkpt>
      <trkpt lat="43.96692" lon="5.07938">
        <ele>216</ele>
        <time>2019-12-08T16:07:01.854Z</time>
      </trkpt>
      <trkpt lat="43.96694" lon="5.0794">
        <ele>217</ele>
        <time>2019-12-08T16:07:02.854Z</time>
      </trkpt>
      <trkpt lat="43.96696" lon="5.07942">
        <ele>217</ele>
        <time>2019-12-08T16:07:03.854Z</time>
      </trkpt>
      <trkpt lat="43.96698" lon="5.07948">
        <ele>217</ele>
        <time>2019-12-08T16:07:04.854Z</time>
      </trkpt>
      <trkpt lat="43.96698" lon="5.07966">
        <ele>219</ele>
        <time>2019-12-08T16:07:05.854Z</time>
      </trkpt>
      <trkpt lat="43.96698" lon="5.07971">
        <ele>220</ele>
        <time>2019-12-08T16:07:06.854Z</time>
      </trkpt>
      <trkpt lat="43.96697" lon="5.07987">
        <ele>222</ele>
        <time>2019-12-08T16:07:07.854Z</time>
      </trkpt>
      <trkpt lat="43.96694" lon="5.08004">
        <ele>223</ele>
        <time>2019-12-08T16:07:08.854Z</time>
      </trkpt>
      <trkpt lat="43.9669" lon="5.08009">
        <ele>223</ele>
        <time>2019-12-08T16:07:09.854Z</time>
      </trkpt>
      <trkpt lat="43.96689" lon="5.08014">
        <ele>223</ele>
        <time>2019-12-08T16:07:10.854Z</time>
      </trkpt>
      <trkpt lat="43.96688" lon="5.08019">
        <ele>223</ele>
        <time>2019-12-08T16:07:11.854Z</time>
      </trkpt>
      <trkpt lat="43.96689" lon="5.0802">
        <ele>224</ele>
        <time>2019-12-08T16:07:12.854Z</time>
      </trkpt>
      <trkpt lat="43.96691" lon="5.08022">
        <ele>224</ele>
        <time>2019-12-08T16:07:13.854Z</time>
      </trkpt>
      <trkpt lat="43.96695" lon="5.08021">
        <ele>224</ele>
        <time>2019-12-08T16:07:14.854Z</time>
      </trkpt>
      <trkpt lat="43.96699" lon="5.08021">
        <ele>224</ele>
        <time>2019-12-08T16:07:15.854Z</time>
      </trkpt>
      <trkpt lat="43.96704" lon="5.0802">
        <ele>224</ele>
        <time>2019-12-08T16:07:16.854Z</time>
      </trkpt>
      <trkpt lat="43.96708" lon="5.0802">
        <ele>224</ele>
        <time>2019-12-08T16:07:17.854Z</time>
      </trkpt>
      <trkpt lat="43.96714" lon="5.08022">
        <ele>224</ele>
        <time>2019-12-08T16:07:18.854Z</time>
      </trkpt>
      <trkpt lat="43.96716" lon="5.08023">
        <ele>224</ele>
        <time>2019-12-08T16:07:19.854Z</time>
      </trkpt>
      <trkpt lat="43.96729" lon="5.08032">
        <ele>225</ele>
        <time>2019-12-08T16:07:20.854Z</time>
      </trkpt>
      <trkpt lat="43.96734" lon="5.08034">
        <ele>225</ele>
        <time>2019-12-08T16:07:21.854Z</time>
      </trkpt>
      <trkpt lat="43.96735" lon="5.08035">
        <ele>225</ele>
        <time>2019-12-08T16:07:22.854Z</time>
      </trkpt>
      <trkpt lat="43.96738" lon="5.08035">
        <ele>225</ele>
        <time>2019-12-08T16:07:23.854Z</time>
      </trkpt>
      <trkpt lat="43.9674" lon="5.08034">
        <ele>225</ele>
        <time>2019-12-08T16:07:24.854Z</time>
      </trkpt>
      <trkpt lat="43.96742" lon="5.0803">
        <ele>225</ele>
        <time>2019-12-08T16:07:25.854Z</time>
      </trkpt>
      <trkpt lat="43.9674" lon="5.08026">
        <ele>225</ele>
        <time>2019-12-08T16:07:26.854Z</time>
      </trkpt>
      <trkpt lat="43.96739" lon="5.08019">
        <ele>225</ele>
        <time>2019-12-08T16:07:27.854Z</time>
      </trkpt>
      <trkpt lat="43.9674" lon="5.08018">
        <ele>225</ele>
        <time>2019-12-08T16:07:28.854Z</time>
      </trkpt>
      <trkpt lat="43.96744" lon="5.08015">
        <ele>225</ele>
        <time>2019-12-08T16:07:29.854Z</time>
      </trkpt>
      <trkpt lat="43.96756" lon="5.08">
        <ele>225</ele>
        <time>2019-12-08T16:07:30.854Z</time>
      </trkpt>
      <trkpt lat="43.96761" lon="5.07997">
        <ele>225</ele>
        <time>2019-12-08T16:07:31.854Z</time>
      </trkpt>
      <trkpt lat="43.96765" lon="5.07996">
        <ele>225</ele>
        <time>2019-12-08T16:07:32.854Z</time>
      </trkpt>
      <trkpt lat="43.96768" lon="5.07998">
        <ele>226</ele>
        <time>2019-12-08T16:07:33.854Z</time>
      </trkpt>
      <trkpt lat="43.96772" lon="5.08003">
        <ele>226</ele>
        <time>2019-12-08T16:07:34.854Z</time>
      </trkpt>
      <trkpt lat="43.96781" lon="5.08009">
        <ele>227</ele>
        <time>2019-12-08T16:07:35.854Z</time>
      </trkpt>
      <trkpt lat="43.96793" lon="5.08005">
        <ele>228</ele>
        <time>2019-12-08T16:07:36.854Z</time>
      </trkpt>
      <trkpt lat="43.96806" lon="5.08002">
        <ele>228</ele>
        <time>2019-12-08T16:07:37.854Z</time>
      </trkpt>
      <trkpt lat="43.96816" lon="5.08006">
        <ele>229</ele>
        <time>2019-12-08T16:07:38.854Z</time>
      </trkpt>
      <trkpt lat="43.96818" lon="5.08008">
        <ele>229</ele>
        <time>2019-12-08T16:07:39.854Z</time>
      </trkpt>
      <trkpt lat="43.96821" lon="5.0801">
        <ele>229</ele>
        <time>2019-12-08T16:07:40.854Z</time>
      </trkpt>
      <trkpt lat="43.96829" lon="5.08008">
        <ele>230</ele>
        <time>2019-12-08T16:07:41.854Z</time>
      </trkpt>
      <trkpt lat="43.96834" lon="5.07999">
        <ele>230</ele>
        <time>2019-12-08T16:07:42.854Z</time>
      </trkpt>
      <trkpt lat="43.96846" lon="5.07989">
        <ele>228</ele>
        <time>2019-12-08T16:07:43.854Z</time>
      </trkpt>
      <trkpt lat="43.96861" lon="5.07994">
        <ele>230</ele>
        <time>2019-12-08T16:07:44.854Z</time>
      </trkpt>
      <trkpt lat="43.96873" lon="5.08002">
        <ele>231</ele>
        <time>2019-12-08T16:07:45.854Z</time>
      </trkpt>
      <trkpt lat="43.96873" lon="5.08001">
        <ele>231</ele>
        <time>2019-12-08T16:07:46.854Z</time>
      </trkpt>
      <trkpt lat="43.96878" lon="5.08004">
        <ele>231</ele>
        <time>2019-12-08T16:07:47.854Z</time>
      </trkpt>
      <trkpt lat="43.9689" lon="5.08002">
        <ele>231</ele>
        <time>2019-12-08T16:07:48.854Z</time>
      </trkpt>
      <trkpt lat="43.96895" lon="5.08">
        <ele>231</ele>
        <time>2019-12-08T16:07:49.854Z</time>
      </trkpt>
      <trkpt lat="43.96912" lon="5.07989">
        <ele>230</ele>
        <time>2019-12-08T16:07:50.854Z</time>
      </trkpt>
      <trkpt lat="43.96921" lon="5.07984">
        <ele>229</ele>
        <time>2019-12-08T16:07:51.854Z</time>
      </trkpt>
      <trkpt lat="43.96935" lon="5.07982">
        <ele>228</ele>
        <time>2019-12-08T16:07:52.854Z</time>
      </trkpt>
      <trkpt lat="43.96943" lon="5.07983">
        <ele>227</ele>
        <time>2019-12-08T16:07:53.854Z</time>
      </trkpt>
      <trkpt lat="43.96951" lon="5.07986">
        <ele>226</ele>
        <time>2019-12-08T16:07:54.854Z</time>
      </trkpt>
      <trkpt lat="43.96963" lon="5.07992">
        <ele>225</ele>
        <time>2019-12-08T16:07:55.854Z</time>
      </trkpt>
      <trkpt lat="43.96964" lon="5.07991">
        <ele>225</ele>
        <time>2019-12-08T16:07:56.854Z</time>
      </trkpt>
      <trkpt lat="43.96968" lon="5.07995">
        <ele>225</ele>
        <time>2019-12-08T16:07:57.854Z</time>
      </trkpt>
      <trkpt lat="43.96968" lon="5.07998">
        <ele>225</ele>
        <time>2019-12-08T16:07:58.854Z</time>
      </trkpt>
      <trkpt lat="43.96965" lon="5.08007">
        <ele>226</ele>
        <time>2019-12-08T16:07:59.854Z</time>
      </trkpt>
      <trkpt lat="43.96963" lon="5.08013">
        <ele>227</ele>
        <time>2019-12-08T16:08:00.854Z</time>
      </trkpt>
      <trkpt lat="43.9696" lon="5.08027">
        <ele>228</ele>
        <time>2019-12-08T16:08:01.854Z</time>
      </trkpt>
      <trkpt lat="43.96959" lon="5.0803">
        <ele>229</ele>
        <time>2019-12-08T16:08:02.854Z</time>
      </trkpt>
      <trkpt lat="43.96957" lon="5.08049">
        <ele>231</ele>
        <time>2019-12-08T16:08:03.854Z</time>
      </trkpt>
      <trkpt lat="43.96956" lon="5.08063">
        <ele>232</ele>
        <time>2019-12-08T16:08:04.854Z</time>
      </trkpt>
      <trkpt lat="43.96957" lon="5.08087">
        <ele>234</ele>
        <time>2019-12-08T16:08:05.854Z</time>
      </trkpt>
      <trkpt lat="43.96958" lon="5.08098">
        <ele>234</ele>
        <time>2019-12-08T16:08:06.854Z</time>
      </trkpt>
      <trkpt lat="43.96961" lon="5.08108">
        <ele>235</ele>
        <time>2019-12-08T16:08:07.854Z</time>
      </trkpt>
      <trkpt lat="43.96967" lon="5.08125">
        <ele>235</ele>
        <time>2019-12-08T16:08:08.854Z</time>
      </trkpt>
      <trkpt lat="43.96971" lon="5.08135">
        <ele>236</ele>
        <time>2019-12-08T16:08:09.854Z</time>
      </trkpt>
      <trkpt lat="43.96976" lon="5.08144">
        <ele>236</ele>
        <time>2019-12-08T16:08:10.854Z</time>
      </trkpt>
      <trkpt lat="43.96981" lon="5.08149">
        <ele>237</ele>
        <time>2019-12-08T16:08:11.854Z</time>
      </trkpt>
      <trkpt lat="43.96997" lon="5.08161">
        <ele>237</ele>
        <time>2019-12-08T16:08:12.854Z</time>
      </trkpt>
      <trkpt lat="43.97005" lon="5.08176">
        <ele>238</ele>
        <time>2019-12-08T16:08:13.854Z</time>
      </trkpt>
      <trkpt lat="43.97007" lon="5.08183">
        <ele>238</ele>
        <time>2019-12-08T16:08:14.854Z</time>
      </trkpt>
      <trkpt lat="43.9701" lon="5.08186">
        <ele>238</ele>
        <time>2019-12-08T16:08:15.854Z</time>
      </trkpt>
      <trkpt lat="43.97012" lon="5.08201">
        <ele>239</ele>
        <time>2019-12-08T16:08:16.854Z</time>
      </trkpt>
      <trkpt lat="43.97012" lon="5.082">
        <ele>239</ele>
        <time>2019-12-08T16:08:17.854Z</time>
      </trkpt>
      <trkpt lat="43.97013" lon="5.08203">
        <ele>239</ele>
        <time>2019-12-08T16:08:18.854Z</time>
      </trkpt>
      <trkpt lat="43.97015" lon="5.08208">
        <ele>239</ele>
        <time>2019-12-08T16:08:19.854Z</time>
      </trkpt>
      <trkpt lat="43.97016" lon="5.08219">
        <ele>240</ele>
        <time>2019-12-08T16:08:20.854Z</time>
      </trkpt>
      <trkpt lat="43.97017" lon="5.0822">
        <ele>240</ele>
        <time>2019-12-08T16:08:21.854Z</time>
      </trkpt>
      <trkpt lat="43.97018" lon="5.08223">
        <ele>240</ele>
        <time>2019-12-08T16:08:22.854Z</time>
      </trkpt>
      <trkpt lat="43.97025" lon="5.08242">
        <ele>241</ele>
        <time>2019-12-08T16:08:23.854Z</time>
      </trkpt>
      <trkpt lat="43.97027" lon="5.08248">
        <ele>242</ele>
        <time>2019-12-08T16:08:24.854Z</time>
      </trkpt>
      <trkpt lat="43.97064" lon="5.08305">
        <ele>242</ele>
        <time>2019-12-08T16:08:25.854Z</time>
      </trkpt>
      <trkpt lat="43.97072" lon="5.08318">
        <ele>243</ele>
        <time>2019-12-08T16:08:26.854Z</time>
      </trkpt>
      <trkpt lat="43.97077" lon="5.08316">
        <ele>243</ele>
        <time>2019-12-08T16:08:27.854Z</time>
      </trkpt>
      <trkpt lat="43.9708" lon="5.08318">
        <ele>243</ele>
        <time>2019-12-08T16:08:28.854Z</time>
      </trkpt>
      <trkpt lat="43.97093" lon="5.08333">
        <ele>242</ele>
        <time>2019-12-08T16:08:29.854Z</time>
      </trkpt>
      <trkpt lat="43.97102" lon="5.0835">
        <ele>242</ele>
        <time>2019-12-08T16:08:30.854Z</time>
      </trkpt>
      <trkpt lat="43.97108" lon="5.08357">
        <ele>241</ele>
        <time>2019-12-08T16:08:31.854Z</time>
      </trkpt>
      <trkpt lat="43.97114" lon="5.0837">
        <ele>241</ele>
        <time>2019-12-08T16:08:32.854Z</time>
      </trkpt>
      <trkpt lat="43.97121" lon="5.08411">
        <ele>245</ele>
        <time>2019-12-08T16:08:33.854Z</time>
      </trkpt>
      <trkpt lat="43.97123" lon="5.08415">
        <ele>245</ele>
        <time>2019-12-08T16:08:34.854Z</time>
      </trkpt>
      <trkpt lat="43.97141" lon="5.08434">
        <ele>244</ele>
        <time>2019-12-08T16:08:35.854Z</time>
      </trkpt>
      <trkpt lat="43.97152" lon="5.08445">
        <ele>244</ele>
        <time>2019-12-08T16:08:36.854Z</time>
      </trkpt>
      <trkpt lat="43.97176" lon="5.08482">
        <ele>246</ele>
        <time>2019-12-08T16:08:37.854Z</time>
      </trkpt>
      <trkpt lat="43.97179" lon="5.08488">
        <ele>246</ele>
        <time>2019-12-08T16:08:38.854Z</time>
      </trkpt>
      <trkpt lat="43.97196" lon="5.08508">
        <ele>246</ele>
        <time>2019-12-08T16:08:39.854Z</time>
      </trkpt>
      <trkpt lat="43.97197" lon="5.08508">
        <ele>246</ele>
        <time>2019-12-08T16:08:40.854Z</time>
      </trkpt>
      <trkpt lat="43.97206" lon="5.08527">
        <ele>247</ele>
        <time>2019-12-08T16:08:41.854Z</time>
      </trkpt>
      <trkpt lat="43.97214" lon="5.08542">
        <ele>248</ele>
        <time>2019-12-08T16:08:42.854Z</time>
      </trkpt>
      <trkpt lat="43.97256" lon="5.08601">
        <ele>252</ele>
        <time>2019-12-08T16:08:43.854Z</time>
      </trkpt>
      <trkpt lat="43.97258" lon="5.08603">
        <ele>251</ele>
        <time>2019-12-08T16:08:44.854Z</time>
      </trkpt>
      <trkpt lat="43.97259" lon="5.08605">
        <ele>251</ele>
        <time>2019-12-08T16:08:45.854Z</time>
      </trkpt>
      <trkpt lat="43.97259" lon="5.08606">
        <ele>251</ele>
        <time>2019-12-08T16:08:46.854Z</time>
      </trkpt>
      <trkpt lat="43.97264" lon="5.08613">
        <ele>250</ele>
        <time>2019-12-08T16:08:47.854Z</time>
      </trkpt>
      <trkpt lat="43.97267" lon="5.08617">
        <ele>250</ele>
        <time>2019-12-08T16:08:48.854Z</time>
      </trkpt>
      <trkpt lat="43.97277" lon="5.08633">
        <ele>249</ele>
        <time>2019-12-08T16:08:49.854Z</time>
      </trkpt>
      <trkpt lat="43.97277" lon="5.08633">
        <ele>249</ele>
        <time>2019-12-08T16:08:50.854Z</time>
      </trkpt>
      <trkpt lat="43.9729" lon="5.08673">
        <ele>250</ele>
        <time>2019-12-08T16:08:51.854Z</time>
      </trkpt>
      <trkpt lat="43.97303" lon="5.08691">
        <ele>249</ele>
        <time>2019-12-08T16:08:52.854Z</time>
      </trkpt>
      <trkpt lat="43.97311" lon="5.08699">
        <ele>249</ele>
        <time>2019-12-08T16:08:53.854Z</time>
      </trkpt>
      <trkpt lat="43.97321" lon="5.08707">
        <ele>249</ele>
        <time>2019-12-08T16:08:54.854Z</time>
      </trkpt>
      <trkpt lat="43.97334" lon="5.08712">
        <ele>249</ele>
        <time>2019-12-08T16:08:55.854Z</time>
      </trkpt>
      <trkpt lat="43.97341" lon="5.08716">
        <ele>247</ele>
        <time>2019-12-08T16:08:56.854Z</time>
      </trkpt>
      <trkpt lat="43.97346" lon="5.08723">
        <ele>247</ele>
        <time>2019-12-08T16:08:57.854Z</time>
      </trkpt>
      <trkpt lat="43.97358" lon="5.08741">
        <ele>246</ele>
        <time>2019-12-08T16:08:58.854Z</time>
      </trkpt>
      <trkpt lat="43.97358" lon="5.08744">
        <ele>246</ele>
        <time>2019-12-08T16:08:59.854Z</time>
      </trkpt>
      <trkpt lat="43.97359" lon="5.08746">
        <ele>246</ele>
        <time>2019-12-08T16:09:00.854Z</time>
      </trkpt>
      <trkpt lat="43.9736" lon="5.08747">
        <ele>246</ele>
        <time>2019-12-08T16:09:01.854Z</time>
      </trkpt>
      <trkpt lat="43.97364" lon="5.08756">
        <ele>246</ele>
        <time>2019-12-08T16:09:02.854Z</time>
      </trkpt>
      <trkpt lat="43.97371" lon="5.08772">
        <ele>246</ele>
        <time>2019-12-08T16:09:03.854Z</time>
      </trkpt>
      <trkpt lat="43.97386" lon="5.08793">
        <ele>245</ele>
        <time>2019-12-08T16:09:04.854Z</time>
      </trkpt>
      <trkpt lat="43.97388" lon="5.08798">
        <ele>245</ele>
        <time>2019-12-08T16:09:05.854Z</time>
      </trkpt>
      <trkpt lat="43.97392" lon="5.08801">
        <ele>244</ele>
        <time>2019-12-08T16:09:06.854Z</time>
      </trkpt>
      <trkpt lat="43.97392" lon="5.08801">
        <ele>244</ele>
        <time>2019-12-08T16:09:07.854Z</time>
      </trkpt>
      <trkpt lat="43.97396" lon="5.08812">
        <ele>245</ele>
        <time>2019-12-08T16:09:08.854Z</time>
      </trkpt>
      <trkpt lat="43.97402" lon="5.08832">
        <ele>245</ele>
        <time>2019-12-08T16:09:09.854Z</time>
      </trkpt>
      <trkpt lat="43.97401" lon="5.08851">
        <ele>248</ele>
        <time>2019-12-08T16:09:10.854Z</time>
      </trkpt>
      <trkpt lat="43.97401" lon="5.08857">
        <ele>249</ele>
        <time>2019-12-08T16:09:11.854Z</time>
      </trkpt>
      <trkpt lat="43.97405" lon="5.08876">
        <ele>250</ele>
        <time>2019-12-08T16:09:12.854Z</time>
      </trkpt>
      <trkpt lat="43.97406" lon="5.08883">
        <ele>251</ele>
        <time>2019-12-08T16:09:13.854Z</time>
      </trkpt>
      <trkpt lat="43.97414" lon="5.08915">
        <ele>254</ele>
        <time>2019-12-08T16:09:14.854Z</time>
      </trkpt>
      <trkpt lat="43.97416" lon="5.0892">
        <ele>255</ele>
        <time>2019-12-08T16:09:15.854Z</time>
      </trkpt>
      <trkpt lat="43.97432" lon="5.08967">
        <ele>257</ele>
        <time>2019-12-08T16:09:16.854Z</time>
      </trkpt>
      <trkpt lat="43.97436" lon="5.08978">
        <ele>257</ele>
        <time>2019-12-08T16:09:17.854Z</time>
      </trkpt>
      <trkpt lat="43.97443" lon="5.09002">
        <ele>259</ele>
        <time>2019-12-08T16:09:18.854Z</time>
      </trkpt>
      <trkpt lat="43.97447" lon="5.09013">
        <ele>259</ele>
        <time>2019-12-08T16:09:19.854Z</time>
      </trkpt>
      <trkpt lat="43.97448" lon="5.09023">
        <ele>260</ele>
        <time>2019-12-08T16:09:20.854Z</time>
      </trkpt>
      <trkpt lat="43.9745" lon="5.0904">
        <ele>262</ele>
        <time>2019-12-08T16:09:21.854Z</time>
      </trkpt>
      <trkpt lat="43.97458" lon="5.09042">
        <ele>261</ele>
        <time>2019-12-08T16:09:22.854Z</time>
      </trkpt>
      <trkpt lat="43.97471" lon="5.09048">
        <ele>259</ele>
        <time>2019-12-08T16:09:23.854Z</time>
      </trkpt>
      <trkpt lat="43.97502" lon="5.09058">
        <ele>257</ele>
        <time>2019-12-08T16:09:24.854Z</time>
      </trkpt>
      <trkpt lat="43.97521" lon="5.09066">
        <ele>256</ele>
        <time>2019-12-08T16:09:25.854Z</time>
      </trkpt>
      <trkpt lat="43.97538" lon="5.0908">
        <ele>256</ele>
        <time>2019-12-08T16:09:26.854Z</time>
      </trkpt>
      <trkpt lat="43.97556" lon="5.09103">
        <ele>257</ele>
        <time>2019-12-08T16:09:27.854Z</time>
      </trkpt>
      <trkpt lat="43.97562" lon="5.09113">
        <ele>258</ele>
        <time>2019-12-08T16:09:28.854Z</time>
      </trkpt>
      <trkpt lat="43.97575" lon="5.09124">
        <ele>258</ele>
        <time>2019-12-08T16:09:29.854Z</time>
      </trkpt>
      <trkpt lat="43.97582" lon="5.09125">
        <ele>257</ele>
        <time>2019-12-08T16:09:30.854Z</time>
      </trkpt>
      <trkpt lat="43.9759" lon="5.09118">
        <ele>257</ele>
        <time>2019-12-08T16:09:31.854Z</time>
      </trkpt>
      <trkpt lat="43.97591" lon="5.09114">
        <ele>256</ele>
        <time>2019-12-08T16:09:32.854Z</time>
      </trkpt>
      <trkpt lat="43.97591" lon="5.09112">
        <ele>256</ele>
        <time>2019-12-08T16:09:33.854Z</time>
      </trkpt>
      <trkpt lat="43.97602" lon="5.09059">
        <ele>249</ele>
        <time>2019-12-08T16:09:34.854Z</time>
      </trkpt>
      <trkpt lat="43.97605" lon="5.09037">
        <ele>246</ele>
        <time>2019-12-08T16:09:35.854Z</time>
      </trkpt>
      <trkpt lat="43.97611" lon="5.09017">
        <ele>244</ele>
        <time>2019-12-08T16:09:36.854Z</time>
      </trkpt>
      <trkpt lat="43.97613" lon="5.0901">
        <ele>243</ele>
        <time>2019-12-08T16:09:37.854Z</time>
      </trkpt>
      <trkpt lat="43.97614" lon="5.08994">
        <ele>240</ele>
        <time>2019-12-08T16:09:38.854Z</time>
      </trkpt>
      <trkpt lat="43.97617" lon="5.0898">
        <ele>238</ele>
        <time>2019-12-08T16:09:39.854Z</time>
      </trkpt>
      <trkpt lat="43.97621" lon="5.08968">
        <ele>236</ele>
        <time>2019-12-08T16:09:40.854Z</time>
      </trkpt>
      <trkpt lat="43.97625" lon="5.08956">
        <ele>235</ele>
        <time>2019-12-08T16:09:41.854Z</time>
      </trkpt>
      <trkpt lat="43.97629" lon="5.0895">
        <ele>234</ele>
        <time>2019-12-08T16:09:42.854Z</time>
      </trkpt>
      <trkpt lat="43.97634" lon="5.08946">
        <ele>234</ele>
        <time>2019-12-08T16:09:43.854Z</time>
      </trkpt>
      <trkpt lat="43.97639" lon="5.08941">
        <ele>234</ele>
        <time>2019-12-08T16:09:44.854Z</time>
      </trkpt>
      <trkpt lat="43.97646" lon="5.0894">
        <ele>234</ele>
        <time>2019-12-08T16:09:45.854Z</time>
      </trkpt>
      <trkpt lat="43.97652" lon="5.0894">
        <ele>235</ele>
        <time>2019-12-08T16:09:46.854Z</time>
      </trkpt>
      <trkpt lat="43.97666" lon="5.08937">
        <ele>237</ele>
        <time>2019-12-08T16:09:47.854Z</time>
      </trkpt>
      <trkpt lat="43.97672" lon="5.08934">
        <ele>237</ele>
        <time>2019-12-08T16:09:48.854Z</time>
      </trkpt>
      <trkpt lat="43.97675" lon="5.08927">
        <ele>236</ele>
        <time>2019-12-08T16:09:49.854Z</time>
      </trkpt>
      <trkpt lat="43.97676" lon="5.08919">
        <ele>234</ele>
        <time>2019-12-08T16:09:50.854Z</time>
      </trkpt>
      <trkpt lat="43.97676" lon="5.08911">
        <ele>233</ele>
        <time>2019-12-08T16:09:51.854Z</time>
      </trkpt>
      <trkpt lat="43.97673" lon="5.08899">
        <ele>231</ele>
        <time>2019-12-08T16:09:52.854Z</time>
      </trkpt>
      <trkpt lat="43.97671" lon="5.08894">
        <ele>230</ele>
        <time>2019-12-08T16:09:53.854Z</time>
      </trkpt>
      <trkpt lat="43.97668" lon="5.08874">
        <ele>227</ele>
        <time>2019-12-08T16:09:54.854Z</time>
      </trkpt>
      <trkpt lat="43.97674" lon="5.0885">
        <ele>225</ele>
        <time>2019-12-08T16:09:55.854Z</time>
      </trkpt>
      <trkpt lat="43.97678" lon="5.08846">
        <ele>226</ele>
        <time>2019-12-08T16:09:56.854Z</time>
      </trkpt>
      <trkpt lat="43.97684" lon="5.08834">
        <ele>226</ele>
        <time>2019-12-08T16:09:57.854Z</time>
      </trkpt>
      <trkpt lat="43.97688" lon="5.08828">
        <ele>226</ele>
        <time>2019-12-08T16:09:58.854Z</time>
      </trkpt>
      <trkpt lat="43.97698" lon="5.08814">
        <ele>225</ele>
        <time>2019-12-08T16:09:59.854Z</time>
      </trkpt>
      <trkpt lat="43.97704" lon="5.08807">
        <ele>225</ele>
        <time>2019-12-08T16:10:00.854Z</time>
      </trkpt>
      <trkpt lat="43.97708" lon="5.08799">
        <ele>225</ele>
        <time>2019-12-08T16:10:01.854Z</time>
      </trkpt>
      <trkpt lat="43.97719" lon="5.08781">
        <ele>224</ele>
        <time>2019-12-08T16:10:02.854Z</time>
      </trkpt>
      <trkpt lat="43.97728" lon="5.08764">
        <ele>222</ele>
        <time>2019-12-08T16:10:03.854Z</time>
      </trkpt>
      <trkpt lat="43.97731" lon="5.08754">
        <ele>221</ele>
        <time>2019-12-08T16:10:04.854Z</time>
      </trkpt>
      <trkpt lat="43.97733" lon="5.08745">
        <ele>220</ele>
        <time>2019-12-08T16:10:05.854Z</time>
      </trkpt>
      <trkpt lat="43.97734" lon="5.08735">
        <ele>219</ele>
        <time>2019-12-08T16:10:06.854Z</time>
      </trkpt>
      <trkpt lat="43.97734" lon="5.08736">
        <ele>219</ele>
        <time>2019-12-08T16:10:07.854Z</time>
      </trkpt>
      <trkpt lat="43.97732" lon="5.08709">
        <ele>216</ele>
        <time>2019-12-08T16:10:08.854Z</time>
      </trkpt>
      <trkpt lat="43.97732" lon="5.08702">
        <ele>215</ele>
        <time>2019-12-08T16:10:09.854Z</time>
      </trkpt>
      <trkpt lat="43.97731" lon="5.08693">
        <ele>214</ele>
        <time>2019-12-08T16:10:10.854Z</time>
      </trkpt>
      <trkpt lat="43.97725" lon="5.08675">
        <ele>211</ele>
        <time>2019-12-08T16:10:11.854Z</time>
      </trkpt>
      <trkpt lat="43.97724" lon="5.08664">
        <ele>210</ele>
        <time>2019-12-08T16:10:12.854Z</time>
      </trkpt>
      <trkpt lat="43.97723" lon="5.08653">
        <ele>209</ele>
        <time>2019-12-08T16:10:13.854Z</time>
      </trkpt>
      <trkpt lat="43.97724" lon="5.08642">
        <ele>208</ele>
        <time>2019-12-08T16:10:14.854Z</time>
      </trkpt>
      <trkpt lat="43.97728" lon="5.08633">
        <ele>207</ele>
        <time>2019-12-08T16:10:15.854Z</time>
      </trkpt>
      <trkpt lat="43.97732" lon="5.08601">
        <ele>204</ele>
        <time>2019-12-08T16:10:16.854Z</time>
      </trkpt>
      <trkpt lat="43.97733" lon="5.08595">
        <ele>204</ele>
        <time>2019-12-08T16:10:17.854Z</time>
      </trkpt>
      <trkpt lat="43.97735" lon="5.08588">
        <ele>203</ele>
        <time>2019-12-08T16:10:18.854Z</time>
      </trkpt>
      <trkpt lat="43.97738" lon="5.08573">
        <ele>201</ele>
        <time>2019-12-08T16:10:19.854Z</time>
      </trkpt>
      <trkpt lat="43.97743" lon="5.08561">
        <ele>200</ele>
        <time>2019-12-08T16:10:20.854Z</time>
      </trkpt>
      <trkpt lat="43.97749" lon="5.0855">
        <ele>199</ele>
        <time>2019-12-08T16:10:21.854Z</time>
      </trkpt>
      <trkpt lat="43.97756" lon="5.08543">
        <ele>197</ele>
        <time>2019-12-08T16:10:22.854Z</time>
      </trkpt>
      <trkpt lat="43.9777" lon="5.08538">
        <ele>196</ele>
        <time>2019-12-08T16:10:23.854Z</time>
      </trkpt>
      <trkpt lat="43.97774" lon="5.08536">
        <ele>195</ele>
        <time>2019-12-08T16:10:24.854Z</time>
      </trkpt>
      <trkpt lat="43.9779" lon="5.08537">
        <ele>195</ele>
        <time>2019-12-08T16:10:25.854Z</time>
      </trkpt>
      <trkpt lat="43.97796" lon="5.08538">
        <ele>195</ele>
        <time>2019-12-08T16:10:26.854Z</time>
      </trkpt>
      <trkpt lat="43.97804" lon="5.08538">
        <ele>194</ele>
        <time>2019-12-08T16:10:27.854Z</time>
      </trkpt>
      <trkpt lat="43.97812" lon="5.08537">
        <ele>194</ele>
        <time>2019-12-08T16:10:28.854Z</time>
      </trkpt>
      <trkpt lat="43.97829" lon="5.08534">
        <ele>192</ele>
        <time>2019-12-08T16:10:29.854Z</time>
      </trkpt>
      <trkpt lat="43.97833" lon="5.08532">
        <ele>192</ele>
        <time>2019-12-08T16:10:30.854Z</time>
      </trkpt>
      <trkpt lat="43.97849" lon="5.08523">
        <ele>188</ele>
        <time>2019-12-08T16:10:31.854Z</time>
      </trkpt>
      <trkpt lat="43.97859" lon="5.08513">
        <ele>186</ele>
        <time>2019-12-08T16:10:32.854Z</time>
      </trkpt>
      <trkpt lat="43.97861" lon="5.08507">
        <ele>185</ele>
        <time>2019-12-08T16:10:33.854Z</time>
      </trkpt>
      <trkpt lat="43.97863" lon="5.08498">
        <ele>183</ele>
        <time>2019-12-08T16:10:34.854Z</time>
      </trkpt>
      <trkpt lat="43.9787" lon="5.08478">
        <ele>180</ele>
        <time>2019-12-08T16:10:35.854Z</time>
      </trkpt>
      <trkpt lat="43.97872" lon="5.08471">
        <ele>179</ele>
        <time>2019-12-08T16:10:36.854Z</time>
      </trkpt>
      <trkpt lat="43.97876" lon="5.08449">
        <ele>176</ele>
        <time>2019-12-08T16:10:37.854Z</time>
      </trkpt>
      <trkpt lat="43.97878" lon="5.08433">
        <ele>174</ele>
        <time>2019-12-08T16:10:38.854Z</time>
      </trkpt>
      <trkpt lat="43.97882" lon="5.08416">
        <ele>172</ele>
        <time>2019-12-08T16:10:39.854Z</time>
      </trkpt>
      <trkpt lat="43.97888" lon="5.084">
        <ele>171</ele>
        <time>2019-12-08T16:10:40.854Z</time>
      </trkpt>
      <trkpt lat="43.97904" lon="5.0836">
        <ele>168</ele>
        <time>2019-12-08T16:10:41.854Z</time>
      </trkpt>
      <trkpt lat="43.97911" lon="5.08344">
        <ele>167</ele>
        <time>2019-12-08T16:10:42.854Z</time>
      </trkpt>
      <trkpt lat="43.97943" lon="5.08278">
        <ele>162</ele>
        <time>2019-12-08T16:10:43.854Z</time>
      </trkpt>
      <trkpt lat="43.97951" lon="5.08263">
        <ele>162</ele>
        <time>2019-12-08T16:10:44.854Z</time>
      </trkpt>
      <trkpt lat="43.97964" lon="5.08229">
        <ele>160</ele>
        <time>2019-12-08T16:10:45.854Z</time>
      </trkpt>
      <trkpt lat="43.97973" lon="5.08202">
        <ele>160</ele>
        <time>2019-12-08T16:10:46.854Z</time>
      </trkpt>
      <trkpt lat="43.97985" lon="5.08174">
        <ele>159</ele>
        <time>2019-12-08T16:10:47.854Z</time>
      </trkpt>
      <trkpt lat="43.98007" lon="5.08118">
        <ele>157</ele>
        <time>2019-12-08T16:10:48.854Z</time>
      </trkpt>
      <trkpt lat="43.98017" lon="5.08089">
        <ele>158</ele>
        <time>2019-12-08T16:10:49.854Z</time>
      </trkpt>
      <trkpt lat="43.9802" lon="5.0808">
        <ele>158</ele>
        <time>2019-12-08T16:10:50.854Z</time>
      </trkpt>
      <trkpt lat="43.98032" lon="5.08055">
        <ele>158</ele>
        <time>2019-12-08T16:10:51.854Z</time>
      </trkpt>
      <trkpt lat="43.98036" lon="5.08047">
        <ele>158</ele>
        <time>2019-12-08T16:10:52.854Z</time>
      </trkpt>
      <trkpt lat="43.98049" lon="5.08025">
        <ele>158</ele>
        <time>2019-12-08T16:10:53.854Z</time>
      </trkpt>
      <trkpt lat="43.98053" lon="5.08021">
        <ele>158</ele>
        <time>2019-12-08T16:10:54.854Z</time>
      </trkpt>
      <trkpt lat="43.98058" lon="5.08018">
        <ele>158</ele>
        <time>2019-12-08T16:10:55.854Z</time>
      </trkpt>
      <trkpt lat="43.98059" lon="5.08019">
        <ele>158</ele>
        <time>2019-12-08T16:10:56.854Z</time>
      </trkpt>
      <trkpt lat="43.98061" lon="5.08021">
        <ele>158</ele>
        <time>2019-12-08T16:10:57.854Z</time>
      </trkpt>
      <trkpt lat="43.98064" lon="5.0804">
        <ele>159</ele>
        <time>2019-12-08T16:10:58.854Z</time>
      </trkpt>
      <trkpt lat="43.98066" lon="5.08044">
        <ele>160</ele>
        <time>2019-12-08T16:10:59.854Z</time>
      </trkpt>
      <trkpt lat="43.98072" lon="5.08062">
        <ele>161</ele>
        <time>2019-12-08T16:11:00.854Z</time>
      </trkpt>
      <trkpt lat="43.98082" lon="5.0809">
        <ele>163</ele>
        <time>2019-12-08T16:11:01.854Z</time>
      </trkpt>
      <trkpt lat="43.98084" lon="5.08094">
        <ele>163</ele>
        <time>2019-12-08T16:11:02.854Z</time>
      </trkpt>
      <trkpt lat="43.98093" lon="5.08116">
        <ele>163</ele>
        <time>2019-12-08T16:11:03.854Z</time>
      </trkpt>
      <trkpt lat="43.98095" lon="5.0812">
        <ele>163</ele>
        <time>2019-12-08T16:11:04.854Z</time>
      </trkpt>
      <trkpt lat="43.98125" lon="5.0818">
        <ele>163</ele>
        <time>2019-12-08T16:11:05.854Z</time>
      </trkpt>
      <trkpt lat="43.98129" lon="5.08188">
        <ele>163</ele>
        <time>2019-12-08T16:11:06.854Z</time>
      </trkpt>
      <trkpt lat="43.9815" lon="5.08252">
        <ele>161</ele>
        <time>2019-12-08T16:11:07.854Z</time>
      </trkpt>
      <trkpt lat="43.98159" lon="5.08279">
        <ele>162</ele>
        <time>2019-12-08T16:11:08.854Z</time>
      </trkpt>
      <trkpt lat="43.9817" lon="5.08303">
        <ele>163</ele>
        <time>2019-12-08T16:11:09.854Z</time>
      </trkpt>
      <trkpt lat="43.98178" lon="5.0832">
        <ele>164</ele>
        <time>2019-12-08T16:11:10.854Z</time>
      </trkpt>
      <trkpt lat="43.98187" lon="5.08342">
        <ele>165</ele>
        <time>2019-12-08T16:11:11.854Z</time>
      </trkpt>
      <trkpt lat="43.98192" lon="5.08358">
        <ele>165</ele>
        <time>2019-12-08T16:11:12.854Z</time>
      </trkpt>
      <trkpt lat="43.98196" lon="5.08367">
        <ele>166</ele>
        <time>2019-12-08T16:11:13.854Z</time>
      </trkpt>
      <trkpt lat="43.98199" lon="5.08368">
        <ele>166</ele>
        <time>2019-12-08T16:11:14.854Z</time>
      </trkpt>
      <trkpt lat="43.98205" lon="5.08367">
        <ele>166</ele>
        <time>2019-12-08T16:11:15.854Z</time>
      </trkpt>
      <trkpt lat="43.98207" lon="5.08367">
        <ele>166</ele>
        <time>2019-12-08T16:11:16.854Z</time>
      </trkpt>
      <trkpt lat="43.98213" lon="5.08375">
        <ele>166</ele>
        <time>2019-12-08T16:11:17.854Z</time>
      </trkpt>
      <trkpt lat="43.98216" lon="5.08377">
        <ele>166</ele>
        <time>2019-12-08T16:11:18.854Z</time>
      </trkpt>
      <trkpt lat="43.98228" lon="5.08385">
        <ele>166</ele>
        <time>2019-12-08T16:11:19.854Z</time>
      </trkpt>
      <trkpt lat="43.98236" lon="5.08387">
        <ele>166</ele>
        <time>2019-12-08T16:11:20.854Z</time>
      </trkpt>
      <trkpt lat="43.98239" lon="5.08387">
        <ele>167</ele>
        <time>2019-12-08T16:11:21.854Z</time>
      </trkpt>
      <trkpt lat="43.98242" lon="5.08385">
        <ele>167</ele>
        <time>2019-12-08T16:11:22.854Z</time>
      </trkpt>
      <trkpt lat="43.98255" lon="5.08376">
        <ele>167</ele>
        <time>2019-12-08T16:11:23.854Z</time>
      </trkpt>
      <trkpt lat="43.98259" lon="5.08372">
        <ele>167</ele>
        <time>2019-12-08T16:11:24.854Z</time>
      </trkpt>
      <trkpt lat="43.98263" lon="5.08369">
        <ele>167</ele>
        <time>2019-12-08T16:11:25.854Z</time>
      </trkpt>
      <trkpt lat="43.98282" lon="5.08358">
        <ele>167</ele>
        <time>2019-12-08T16:11:26.854Z</time>
      </trkpt>
      <trkpt lat="43.98293" lon="5.08349">
        <ele>167</ele>
        <time>2019-12-08T16:11:27.854Z</time>
      </trkpt>
      <trkpt lat="43.98298" lon="5.08344">
        <ele>167</ele>
        <time>2019-12-08T16:11:28.854Z</time>
      </trkpt>
      <trkpt lat="43.98314" lon="5.08328">
        <ele>166</ele>
        <time>2019-12-08T16:11:29.854Z</time>
      </trkpt>
      <trkpt lat="43.98319" lon="5.08322">
        <ele>165</ele>
        <time>2019-12-08T16:11:30.854Z</time>
      </trkpt>
      <trkpt lat="43.98323" lon="5.08316">
        <ele>165</ele>
        <time>2019-12-08T16:11:31.854Z</time>
      </trkpt>
      <trkpt lat="43.98326" lon="5.0831">
        <ele>165</ele>
        <time>2019-12-08T16:11:32.854Z</time>
      </trkpt>
      <trkpt lat="43.98333" lon="5.08288">
        <ele>164</ele>
        <time>2019-12-08T16:11:33.854Z</time>
      </trkpt>
      <trkpt lat="43.98335" lon="5.08272">
        <ele>164</ele>
        <time>2019-12-08T16:11:34.854Z</time>
      </trkpt>
      <trkpt lat="43.98341" lon="5.0825">
        <ele>164</ele>
        <time>2019-12-08T16:11:35.854Z</time>
      </trkpt>
      <trkpt lat="43.98347" lon="5.08236">
        <ele>163</ele>
        <time>2019-12-08T16:11:36.854Z</time>
      </trkpt>
      <trkpt lat="43.98352" lon="5.08225">
        <ele>162</ele>
        <time>2019-12-08T16:11:37.854Z</time>
      </trkpt>
      <trkpt lat="43.98359" lon="5.08216">
        <ele>161</ele>
        <time>2019-12-08T16:11:38.854Z</time>
      </trkpt>
      <trkpt lat="43.98368" lon="5.08206">
        <ele>160</ele>
        <time>2019-12-08T16:11:39.854Z</time>
      </trkpt>
      <trkpt lat="43.98372" lon="5.082">
        <ele>159</ele>
        <time>2019-12-08T16:11:40.854Z</time>
      </trkpt>
      <trkpt lat="43.98383" lon="5.08174">
        <ele>158</ele>
        <time>2019-12-08T16:11:41.854Z</time>
      </trkpt>
      <trkpt lat="43.98406" lon="5.08101">
        <ele>154</ele>
        <time>2019-12-08T16:11:42.854Z</time>
      </trkpt>
      <trkpt lat="43.98407" lon="5.08098">
        <ele>154</ele>
        <time>2019-12-08T16:11:43.854Z</time>
      </trkpt>
      <trkpt lat="43.98407" lon="5.08098">
        <ele>154</ele>
        <time>2019-12-08T16:11:44.854Z</time>
      </trkpt>
      <trkpt lat="43.98412" lon="5.08088">
        <ele>153</ele>
        <time>2019-12-08T16:11:45.854Z</time>
      </trkpt>
      <trkpt lat="43.98429" lon="5.08044">
        <ele>152</ele>
        <time>2019-12-08T16:11:46.854Z</time>
      </trkpt>
      <trkpt lat="43.98436" lon="5.08024">
        <ele>152</ele>
        <time>2019-12-08T16:11:47.854Z</time>
      </trkpt>
      <trkpt lat="43.98439" lon="5.08011">
        <ele>152</ele>
        <time>2019-12-08T16:11:48.854Z</time>
      </trkpt>
      <trkpt lat="43.98444" lon="5.07993">
        <ele>152</ele>
        <time>2019-12-08T16:11:49.854Z</time>
      </trkpt>
      <trkpt lat="43.98443" lon="5.07987">
        <ele>152</ele>
        <time>2019-12-08T16:11:50.854Z</time>
      </trkpt>
      <trkpt lat="43.98435" lon="5.07965">
        <ele>152</ele>
        <time>2019-12-08T16:11:51.854Z</time>
      </trkpt>
      <trkpt lat="43.98434" lon="5.07958">
        <ele>152</ele>
        <time>2019-12-08T16:11:52.854Z</time>
      </trkpt>
      <trkpt lat="43.9844" lon="5.07933">
        <ele>151</ele>
        <time>2019-12-08T16:11:53.854Z</time>
      </trkpt>
      <trkpt lat="43.9844" lon="5.07927">
        <ele>151</ele>
        <time>2019-12-08T16:11:54.854Z</time>
      </trkpt>
      <trkpt lat="43.98436" lon="5.0788">
        <ele>151</ele>
        <time>2019-12-08T16:11:55.854Z</time>
      </trkpt>
      <trkpt lat="43.98436" lon="5.07871">
        <ele>151</ele>
        <time>2019-12-08T16:11:56.854Z</time>
      </trkpt>
      <trkpt lat="43.98438" lon="5.07862">
        <ele>150</ele>
        <time>2019-12-08T16:11:57.854Z</time>
      </trkpt>
      <trkpt lat="43.98439" lon="5.07853">
        <ele>150</ele>
        <time>2019-12-08T16:11:58.854Z</time>
      </trkpt>
      <trkpt lat="43.98446" lon="5.07821">
        <ele>148</ele>
        <time>2019-12-08T16:11:59.854Z</time>
      </trkpt>
      <trkpt lat="43.98448" lon="5.07814">
        <ele>148</ele>
        <time>2019-12-08T16:12:00.854Z</time>
      </trkpt>
      <trkpt lat="43.98457" lon="5.07792">
        <ele>145</ele>
        <time>2019-12-08T16:12:01.854Z</time>
      </trkpt>
      <trkpt lat="43.9846" lon="5.07776">
        <ele>144</ele>
        <time>2019-12-08T16:12:02.854Z</time>
      </trkpt>
      <trkpt lat="43.98461" lon="5.07767">
        <ele>143</ele>
        <time>2019-12-08T16:12:03.854Z</time>
      </trkpt>
      <trkpt lat="43.98468" lon="5.0773">
        <ele>140</ele>
        <time>2019-12-08T16:12:04.854Z</time>
      </trkpt>
      <trkpt lat="43.98469" lon="5.07725">
        <ele>139</ele>
        <time>2019-12-08T16:12:05.854Z</time>
      </trkpt>
      <trkpt lat="43.98469" lon="5.07715">
        <ele>138</ele>
        <time>2019-12-08T16:12:06.854Z</time>
      </trkpt>
      <trkpt lat="43.98467" lon="5.07709">
        <ele>137</ele>
        <time>2019-12-08T16:12:07.854Z</time>
      </trkpt>
      <trkpt lat="43.98465" lon="5.07703">
        <ele>137</ele>
        <time>2019-12-08T16:12:08.854Z</time>
      </trkpt>
      <trkpt lat="43.98462" lon="5.07693">
        <ele>136</ele>
        <time>2019-12-08T16:12:09.854Z</time>
      </trkpt>
      <trkpt lat="43.98463" lon="5.07689">
        <ele>136</ele>
        <time>2019-12-08T16:12:10.854Z</time>
      </trkpt>
      <trkpt lat="43.98465" lon="5.07685">
        <ele>135</ele>
        <time>2019-12-08T16:12:11.854Z</time>
      </trkpt>
      <trkpt lat="43.98468" lon="5.0768">
        <ele>134</ele>
        <time>2019-12-08T16:12:12.854Z</time>
      </trkpt>
      <trkpt lat="43.98488" lon="5.07651">
        <ele>132</ele>
        <time>2019-12-08T16:12:13.854Z</time>
      </trkpt>
      <trkpt lat="43.98496" lon="5.0764">
        <ele>131</ele>
        <time>2019-12-08T16:12:14.854Z</time>
      </trkpt>
      <trkpt lat="43.98503" lon="5.07632">
        <ele>130</ele>
        <time>2019-12-08T16:12:15.854Z</time>
      </trkpt>
      <trkpt lat="43.98506" lon="5.0763">
        <ele>130</ele>
        <time>2019-12-08T16:12:16.854Z</time>
      </trkpt>
      <trkpt lat="43.98507" lon="5.07628">
        <ele>130</ele>
        <time>2019-12-08T16:12:17.854Z</time>
      </trkpt>
      <trkpt lat="43.98506" lon="5.07628">
        <ele>130</ele>
        <time>2019-12-08T16:12:18.854Z</time>
      </trkpt>
      <trkpt lat="43.98505" lon="5.07631">
        <ele>130</ele>
        <time>2019-12-08T16:12:19.854Z</time>
      </trkpt>
      <trkpt lat="43.98505" lon="5.07631">
        <ele>130</ele>
        <time>2019-12-08T16:12:20.854Z</time>
      </trkpt>
      <trkpt lat="43.98513" lon="5.07656">
        <ele>131</ele>
        <time>2019-12-08T16:12:21.854Z</time>
      </trkpt>
      <trkpt lat="43.98522" lon="5.07684">
        <ele>133</ele>
        <time>2019-12-08T16:12:22.854Z</time>
      </trkpt>
      <trkpt lat="43.98528" lon="5.07719">
        <ele>136</ele>
        <time>2019-12-08T16:12:23.854Z</time>
      </trkpt>
      <trkpt lat="43.98532" lon="5.07743">
        <ele>138</ele>
        <time>2019-12-08T16:12:24.854Z</time>
      </trkpt>
      <trkpt lat="43.9853" lon="5.07751">
        <ele>139</ele>
        <time>2019-12-08T16:12:25.854Z</time>
      </trkpt>
      <trkpt lat="43.98526" lon="5.0776">
        <ele>139</ele>
        <time>2019-12-08T16:12:26.854Z</time>
      </trkpt>
      <trkpt lat="43.98523" lon="5.07765">
        <ele>140</ele>
        <time>2019-12-08T16:12:27.854Z</time>
      </trkpt>
      <trkpt lat="43.98517" lon="5.07772">
        <ele>141</ele>
        <time>2019-12-08T16:12:28.854Z</time>
      </trkpt>
      <trkpt lat="43.98511" lon="5.07785">
        <ele>142</ele>
        <time>2019-12-08T16:12:29.854Z</time>
      </trkpt>
      <trkpt lat="43.98506" lon="5.07793">
        <ele>143</ele>
        <time>2019-12-08T16:12:30.854Z</time>
      </trkpt>
      <trkpt lat="43.98483" lon="5.0784">
        <ele>147</ele>
        <time>2019-12-08T16:12:31.854Z</time>
      </trkpt>
      <trkpt lat="43.98479" lon="5.07858">
        <ele>148</ele>
        <time>2019-12-08T16:12:32.854Z</time>
      </trkpt>
      <trkpt lat="43.98478" lon="5.07864">
        <ele>148</ele>
        <time>2019-12-08T16:12:33.854Z</time>
      </trkpt>
      <trkpt lat="43.98479" lon="5.07874">
        <ele>148</ele>
        <time>2019-12-08T16:12:34.854Z</time>
      </trkpt>
      <trkpt lat="43.9848" lon="5.07884">
        <ele>149</ele>
        <time>2019-12-08T16:12:35.854Z</time>
      </trkpt>
      <trkpt lat="43.98482" lon="5.07893">
        <ele>149</ele>
        <time>2019-12-08T16:12:36.854Z</time>
      </trkpt>
      <trkpt lat="43.98488" lon="5.07919">
        <ele>150</ele>
        <time>2019-12-08T16:12:37.854Z</time>
      </trkpt>
      <trkpt lat="43.98489" lon="5.07923">
        <ele>150</ele>
        <time>2019-12-08T16:12:38.854Z</time>
      </trkpt>
      <trkpt lat="43.98489" lon="5.07931">
        <ele>150</ele>
        <time>2019-12-08T16:12:39.854Z</time>
      </trkpt>
      <trkpt lat="43.98487" lon="5.07943">
        <ele>150</ele>
        <time>2019-12-08T16:12:40.854Z</time>
      </trkpt>
      <trkpt lat="43.98488" lon="5.07956">
        <ele>151</ele>
        <time>2019-12-08T16:12:41.854Z</time>
      </trkpt>
      <trkpt lat="43.98489" lon="5.07959">
        <ele>151</ele>
        <time>2019-12-08T16:12:42.854Z</time>
      </trkpt>
      <trkpt lat="43.98491" lon="5.07965">
        <ele>151</ele>
        <time>2019-12-08T16:12:43.854Z</time>
      </trkpt>
      <trkpt lat="43.98494" lon="5.07972">
        <ele>151</ele>
        <time>2019-12-08T16:12:44.854Z</time>
      </trkpt>
      <trkpt lat="43.98496" lon="5.07977">
        <ele>151</ele>
        <time>2019-12-08T16:12:45.854Z</time>
      </trkpt>
      <trkpt lat="43.98497" lon="5.07982">
        <ele>151</ele>
        <time>2019-12-08T16:12:46.854Z</time>
      </trkpt>
      <trkpt lat="43.98497" lon="5.07985">
        <ele>151</ele>
        <time>2019-12-08T16:12:47.854Z</time>
      </trkpt>
      <trkpt lat="43.98496" lon="5.07988">
        <ele>152</ele>
        <time>2019-12-08T16:12:48.854Z</time>
      </trkpt>
      <trkpt lat="43.98493" lon="5.07996">
        <ele>152</ele>
        <time>2019-12-08T16:12:49.854Z</time>
      </trkpt>
      <trkpt lat="43.98489" lon="5.08017">
        <ele>152</ele>
        <time>2019-12-08T16:12:50.854Z</time>
      </trkpt>
      <trkpt lat="43.98483" lon="5.08041">
        <ele>153</ele>
        <time>2019-12-08T16:12:51.854Z</time>
      </trkpt>
      <trkpt lat="43.9848" lon="5.08062">
        <ele>153</ele>
        <time>2019-12-08T16:12:52.854Z</time>
      </trkpt>
      <trkpt lat="43.98478" lon="5.08075">
        <ele>153</ele>
        <time>2019-12-08T16:12:53.854Z</time>
      </trkpt>
      <trkpt lat="43.98477" lon="5.08085">
        <ele>153</ele>
        <time>2019-12-08T16:12:54.854Z</time>
      </trkpt>
      <trkpt lat="43.98473" lon="5.08108">
        <ele>154</ele>
        <time>2019-12-08T16:12:55.854Z</time>
      </trkpt>
      <trkpt lat="43.98453" lon="5.08146">
        <ele>155</ele>
        <time>2019-12-08T16:12:56.854Z</time>
      </trkpt>
      <trkpt lat="43.98452" lon="5.08147">
        <ele>155</ele>
        <time>2019-12-08T16:12:57.854Z</time>
      </trkpt>
      <trkpt lat="43.98453" lon="5.08148">
        <ele>155</ele>
        <time>2019-12-08T16:12:58.854Z</time>
      </trkpt>
      <trkpt lat="43.98457" lon="5.08162">
        <ele>155</ele>
        <time>2019-12-08T16:12:59.854Z</time>
      </trkpt>
      <trkpt lat="43.98462" lon="5.08168">
        <ele>156</ele>
        <time>2019-12-08T16:13:00.854Z</time>
      </trkpt>
      <trkpt lat="43.98465" lon="5.08175">
        <ele>156</ele>
        <time>2019-12-08T16:13:01.854Z</time>
      </trkpt>
      <trkpt lat="43.98469" lon="5.08182">
        <ele>156</ele>
        <time>2019-12-08T16:13:02.854Z</time>
      </trkpt>
      <trkpt lat="43.98477" lon="5.08196">
        <ele>157</ele>
        <time>2019-12-08T16:13:03.854Z</time>
      </trkpt>
      <trkpt lat="43.9848" lon="5.08199">
        <ele>157</ele>
        <time>2019-12-08T16:13:04.854Z</time>
      </trkpt>
      <trkpt lat="43.98505" lon="5.08236">
        <ele>159</ele>
        <time>2019-12-08T16:13:05.854Z</time>
      </trkpt>
      <trkpt lat="43.98509" lon="5.08245">
        <ele>160</ele>
        <time>2019-12-08T16:13:06.854Z</time>
      </trkpt>
      <trkpt lat="43.98509" lon="5.08248">
        <ele>160</ele>
        <time>2019-12-08T16:13:07.854Z</time>
      </trkpt>
      <trkpt lat="43.98508" lon="5.0825">
        <ele>160</ele>
        <time>2019-12-08T16:13:08.854Z</time>
      </trkpt>
      <trkpt lat="43.98499" lon="5.08268">
        <ele>161</ele>
        <time>2019-12-08T16:13:09.854Z</time>
      </trkpt>
      <trkpt lat="43.98498" lon="5.08272">
        <ele>161</ele>
        <time>2019-12-08T16:13:10.854Z</time>
      </trkpt>
      <trkpt lat="43.98486" lon="5.08289">
        <ele>162</ele>
        <time>2019-12-08T16:13:11.854Z</time>
      </trkpt>
      <trkpt lat="43.98468" lon="5.08311">
        <ele>164</ele>
        <time>2019-12-08T16:13:12.854Z</time>
      </trkpt>
      <trkpt lat="43.98463" lon="5.08323">
        <ele>165</ele>
        <time>2019-12-08T16:13:13.854Z</time>
      </trkpt>
      <trkpt lat="43.98469" lon="5.08343">
        <ele>166</ele>
        <time>2019-12-08T16:13:14.854Z</time>
      </trkpt>
      <trkpt lat="43.9847" lon="5.08351">
        <ele>166</ele>
        <time>2019-12-08T16:13:15.854Z</time>
      </trkpt>
      <trkpt lat="43.9847" lon="5.08367">
        <ele>167</ele>
        <time>2019-12-08T16:13:16.854Z</time>
      </trkpt>
      <trkpt lat="43.9847" lon="5.0837">
        <ele>167</ele>
        <time>2019-12-08T16:13:17.854Z</time>
      </trkpt>
      <trkpt lat="43.98472" lon="5.08373">
        <ele>167</ele>
        <time>2019-12-08T16:13:18.854Z</time>
      </trkpt>
      <trkpt lat="43.98476" lon="5.08383">
        <ele>168</ele>
        <time>2019-12-08T16:13:19.854Z</time>
      </trkpt>
      <trkpt lat="43.98483" lon="5.08395">
        <ele>168</ele>
        <time>2019-12-08T16:13:20.854Z</time>
      </trkpt>
      <trkpt lat="43.98487" lon="5.08413">
        <ele>169</ele>
        <time>2019-12-08T16:13:21.854Z</time>
      </trkpt>
      <trkpt lat="43.98485" lon="5.08423">
        <ele>169</ele>
        <time>2019-12-08T16:13:22.854Z</time>
      </trkpt>
      <trkpt lat="43.98482" lon="5.0843">
        <ele>170</ele>
        <time>2019-12-08T16:13:23.854Z</time>
      </trkpt>
      <trkpt lat="43.98482" lon="5.08446">
        <ele>171</ele>
        <time>2019-12-08T16:13:24.854Z</time>
      </trkpt>
      <trkpt lat="43.98483" lon="5.0845">
        <ele>171</ele>
        <time>2019-12-08T16:13:25.854Z</time>
      </trkpt>
      <trkpt lat="43.98483" lon="5.08463">
        <ele>172</ele>
        <time>2019-12-08T16:13:26.854Z</time>
      </trkpt>
      <trkpt lat="43.98484" lon="5.08467">
        <ele>172</ele>
        <time>2019-12-08T16:13:27.854Z</time>
      </trkpt>
      <trkpt lat="43.98482" lon="5.08482">
        <ele>173</ele>
        <time>2019-12-08T16:13:28.854Z</time>
      </trkpt>
      <trkpt lat="43.98482" lon="5.08484">
        <ele>174</ele>
        <time>2019-12-08T16:13:29.854Z</time>
      </trkpt>
      <trkpt lat="43.98479" lon="5.08489">
        <ele>174</ele>
        <time>2019-12-08T16:13:30.854Z</time>
      </trkpt>
      <trkpt lat="43.9847" lon="5.08494">
        <ele>175</ele>
        <time>2019-12-08T16:13:31.854Z</time>
      </trkpt>
      <trkpt lat="43.98467" lon="5.08497">
        <ele>175</ele>
        <time>2019-12-08T16:13:32.854Z</time>
      </trkpt>
      <trkpt lat="43.98465" lon="5.08501">
        <ele>175</ele>
        <time>2019-12-08T16:13:33.854Z</time>
      </trkpt>
      <trkpt lat="43.98456" lon="5.08511">
        <ele>176</ele>
        <time>2019-12-08T16:13:34.854Z</time>
      </trkpt>
      <trkpt lat="43.98446" lon="5.08524">
        <ele>176</ele>
        <time>2019-12-08T16:13:35.854Z</time>
      </trkpt>
      <trkpt lat="43.98429" lon="5.08531">
        <ele>176</ele>
        <time>2019-12-08T16:13:36.854Z</time>
      </trkpt>
      <trkpt lat="43.98414" lon="5.08539">
        <ele>176</ele>
        <time>2019-12-08T16:13:37.854Z</time>
      </trkpt>
      <trkpt lat="43.98402" lon="5.08551">
        <ele>175</ele>
        <time>2019-12-08T16:13:38.854Z</time>
      </trkpt>
      <trkpt lat="43.98398" lon="5.08553">
        <ele>175</ele>
        <time>2019-12-08T16:13:39.854Z</time>
      </trkpt>
      <trkpt lat="43.98387" lon="5.08563">
        <ele>175</ele>
        <time>2019-12-08T16:13:40.854Z</time>
      </trkpt>
      <trkpt lat="43.98386" lon="5.08563">
        <ele>175</ele>
        <time>2019-12-08T16:13:41.854Z</time>
      </trkpt>
      <trkpt lat="43.98385" lon="5.08566">
        <ele>175</ele>
        <time>2019-12-08T16:13:42.854Z</time>
      </trkpt>
      <trkpt lat="43.98384" lon="5.08569">
        <ele>175</ele>
        <time>2019-12-08T16:13:43.854Z</time>
      </trkpt>
      <trkpt lat="43.98374" lon="5.08581">
        <ele>174</ele>
        <time>2019-12-08T16:13:44.854Z</time>
      </trkpt>
      <trkpt lat="43.98373" lon="5.08584">
        <ele>174</ele>
        <time>2019-12-08T16:13:45.854Z</time>
      </trkpt>
      <trkpt lat="43.98375" lon="5.08592">
        <ele>174</ele>
        <time>2019-12-08T16:13:46.854Z</time>
      </trkpt>
      <trkpt lat="43.98381" lon="5.08601">
        <ele>175</ele>
        <time>2019-12-08T16:13:47.854Z</time>
      </trkpt>
      <trkpt lat="43.98391" lon="5.08614">
        <ele>175</ele>
        <time>2019-12-08T16:13:48.854Z</time>
      </trkpt>
      <trkpt lat="43.98395" lon="5.08619">
        <ele>175</ele>
        <time>2019-12-08T16:13:49.854Z</time>
      </trkpt>
      <trkpt lat="43.98415" lon="5.08638">
        <ele>176</ele>
        <time>2019-12-08T16:13:50.854Z</time>
      </trkpt>
      <trkpt lat="43.98442" lon="5.08655">
        <ele>176</ele>
        <time>2019-12-08T16:13:51.854Z</time>
      </trkpt>
      <trkpt lat="43.98464" lon="5.08671">
        <ele>176</ele>
        <time>2019-12-08T16:13:52.854Z</time>
      </trkpt>
      <trkpt lat="43.98475" lon="5.08685">
        <ele>176</ele>
        <time>2019-12-08T16:13:53.854Z</time>
      </trkpt>
      <trkpt lat="43.98479" lon="5.08688">
        <ele>176</ele>
        <time>2019-12-08T16:13:54.854Z</time>
      </trkpt>
      <trkpt lat="43.98497" lon="5.08716">
        <ele>177</ele>
        <time>2019-12-08T16:13:55.854Z</time>
      </trkpt>
      <trkpt lat="43.98508" lon="5.08737">
        <ele>176</ele>
        <time>2019-12-08T16:13:56.854Z</time>
      </trkpt>
      <trkpt lat="43.98532" lon="5.08769">
        <ele>176</ele>
        <time>2019-12-08T16:13:57.854Z</time>
      </trkpt>
      <trkpt lat="43.98535" lon="5.08774">
        <ele>175</ele>
        <time>2019-12-08T16:13:58.854Z</time>
      </trkpt>
      <trkpt lat="43.98541" lon="5.0879">
        <ele>175</ele>
        <time>2019-12-08T16:13:59.854Z</time>
      </trkpt>
      <trkpt lat="43.98544" lon="5.08798">
        <ele>175</ele>
        <time>2019-12-08T16:14:00.854Z</time>
      </trkpt>
      <trkpt lat="43.98544" lon="5.08807">
        <ele>175</ele>
        <time>2019-12-08T16:14:01.854Z</time>
      </trkpt>
      <trkpt lat="43.98544" lon="5.0881">
        <ele>175</ele>
        <time>2019-12-08T16:14:02.854Z</time>
      </trkpt>
      <trkpt lat="43.98546" lon="5.0881">
        <ele>175</ele>
        <time>2019-12-08T16:14:03.854Z</time>
      </trkpt>
      <trkpt lat="43.98549" lon="5.08812">
        <ele>175</ele>
        <time>2019-12-08T16:14:04.854Z</time>
      </trkpt>
      <trkpt lat="43.98553" lon="5.0882">
        <ele>175</ele>
        <time>2019-12-08T16:14:05.854Z</time>
      </trkpt>
      <trkpt lat="43.98568" lon="5.08858">
        <ele>174</ele>
        <time>2019-12-08T16:14:06.854Z</time>
      </trkpt>
      <trkpt lat="43.9857" lon="5.08864">
        <ele>173</ele>
        <time>2019-12-08T16:14:07.854Z</time>
      </trkpt>
      <trkpt lat="43.98577" lon="5.0887">
        <ele>173</ele>
        <time>2019-12-08T16:14:08.854Z</time>
      </trkpt>
      <trkpt lat="43.98581" lon="5.08879">
        <ele>172</ele>
        <time>2019-12-08T16:14:09.854Z</time>
      </trkpt>
      <trkpt lat="43.98583" lon="5.08884">
        <ele>172</ele>
        <time>2019-12-08T16:14:10.854Z</time>
      </trkpt>
      <trkpt lat="43.98584" lon="5.089">
        <ele>172</ele>
        <time>2019-12-08T16:14:11.854Z</time>
      </trkpt>
      <trkpt lat="43.98584" lon="5.08905">
        <ele>172</ele>
        <time>2019-12-08T16:14:12.854Z</time>
      </trkpt>
      <trkpt lat="43.98585" lon="5.08909">
        <ele>172</ele>
        <time>2019-12-08T16:14:13.854Z</time>
      </trkpt>
      <trkpt lat="43.98588" lon="5.08914">
        <ele>172</ele>
        <time>2019-12-08T16:14:14.854Z</time>
      </trkpt>
      <trkpt lat="43.98591" lon="5.08918">
        <ele>172</ele>
        <time>2019-12-08T16:14:15.854Z</time>
      </trkpt>
      <trkpt lat="43.98597" lon="5.08917">
        <ele>173</ele>
        <time>2019-12-08T16:14:16.854Z</time>
      </trkpt>
      <trkpt lat="43.98599" lon="5.08916">
        <ele>173</ele>
        <time>2019-12-08T16:14:17.854Z</time>
      </trkpt>
      <trkpt lat="43.98605" lon="5.08915">
        <ele>173</ele>
        <time>2019-12-08T16:14:18.854Z</time>
      </trkpt>
      <trkpt lat="43.98608" lon="5.08914">
        <ele>173</ele>
        <time>2019-12-08T16:14:19.854Z</time>
      </trkpt>
      <trkpt lat="43.98639" lon="5.08924">
        <ele>175</ele>
        <time>2019-12-08T16:14:20.854Z</time>
      </trkpt>
      <trkpt lat="43.98642" lon="5.08925">
        <ele>175</ele>
        <time>2019-12-08T16:14:21.854Z</time>
      </trkpt>
      <trkpt lat="43.98653" lon="5.08933">
        <ele>176</ele>
        <time>2019-12-08T16:14:22.854Z</time>
      </trkpt>
      <trkpt lat="43.98654" lon="5.08932">
        <ele>176</ele>
        <time>2019-12-08T16:14:23.854Z</time>
      </trkpt>
      <trkpt lat="43.98657" lon="5.08936">
        <ele>176</ele>
        <time>2019-12-08T16:14:24.854Z</time>
      </trkpt>
      <trkpt lat="43.98658" lon="5.08937">
        <ele>176</ele>
        <time>2019-12-08T16:14:25.854Z</time>
      </trkpt>
      <trkpt lat="43.98663" lon="5.0894">
        <ele>177</ele>
        <time>2019-12-08T16:14:26.854Z</time>
      </trkpt>
      <trkpt lat="43.98665" lon="5.08941">
        <ele>177</ele>
        <time>2019-12-08T16:14:27.854Z</time>
      </trkpt>
      <trkpt lat="43.98667" lon="5.08944">
        <ele>177</ele>
        <time>2019-12-08T16:14:28.854Z</time>
      </trkpt>
      <trkpt lat="43.98668" lon="5.08944">
        <ele>177</ele>
        <time>2019-12-08T16:14:29.854Z</time>
      </trkpt>
      <trkpt lat="43.9867" lon="5.08943">
        <ele>177</ele>
        <time>2019-12-08T16:14:30.854Z</time>
      </trkpt>
      <trkpt lat="43.98671" lon="5.08931">
        <ele>176</ele>
        <time>2019-12-08T16:14:31.854Z</time>
      </trkpt>
      <trkpt lat="43.98674" lon="5.08926">
        <ele>175</ele>
        <time>2019-12-08T16:14:32.854Z</time>
      </trkpt>
      <trkpt lat="43.98678" lon="5.08923">
        <ele>175</ele>
        <time>2019-12-08T16:14:33.854Z</time>
      </trkpt>
      <trkpt lat="43.98685" lon="5.08917">
        <ele>174</ele>
        <time>2019-12-08T16:14:34.854Z</time>
      </trkpt>
      <trkpt lat="43.98691" lon="5.08899">
        <ele>173</ele>
        <time>2019-12-08T16:14:35.854Z</time>
      </trkpt>
      <trkpt lat="43.98692" lon="5.08894">
        <ele>172</ele>
        <time>2019-12-08T16:14:36.854Z</time>
      </trkpt>
      <trkpt lat="43.98707" lon="5.0887">
        <ele>170</ele>
        <time>2019-12-08T16:14:37.854Z</time>
      </trkpt>
      <trkpt lat="43.98714" lon="5.0886">
        <ele>170</ele>
        <time>2019-12-08T16:14:38.854Z</time>
      </trkpt>
      <trkpt lat="43.98719" lon="5.08849">
        <ele>169</ele>
        <time>2019-12-08T16:14:39.854Z</time>
      </trkpt>
      <trkpt lat="43.98722" lon="5.08845">
        <ele>169</ele>
        <time>2019-12-08T16:14:40.854Z</time>
      </trkpt>
      <trkpt lat="43.98726" lon="5.08834">
        <ele>168</ele>
        <time>2019-12-08T16:14:41.854Z</time>
      </trkpt>
      <trkpt lat="43.98727" lon="5.08829">
        <ele>168</ele>
        <time>2019-12-08T16:14:42.854Z</time>
      </trkpt>
      <trkpt lat="43.98736" lon="5.0881">
        <ele>168</ele>
        <time>2019-12-08T16:14:43.854Z</time>
      </trkpt>
      <trkpt lat="43.98739" lon="5.08805">
        <ele>168</ele>
        <time>2019-12-08T16:14:44.854Z</time>
      </trkpt>
      <trkpt lat="43.98746" lon="5.08795">
        <ele>168</ele>
        <time>2019-12-08T16:14:45.854Z</time>
      </trkpt>
      <trkpt lat="43.98753" lon="5.08792">
        <ele>167</ele>
        <time>2019-12-08T16:14:46.854Z</time>
      </trkpt>
      <trkpt lat="43.98756" lon="5.08793">
        <ele>167</ele>
        <time>2019-12-08T16:14:47.854Z</time>
      </trkpt>
      <trkpt lat="43.98759" lon="5.08786">
        <ele>167</ele>
        <time>2019-12-08T16:14:48.854Z</time>
      </trkpt>
      <trkpt lat="43.98763" lon="5.08777">
        <ele>167</ele>
        <time>2019-12-08T16:14:49.854Z</time>
      </trkpt>
      <trkpt lat="43.98771" lon="5.08751">
        <ele>166</ele>
        <time>2019-12-08T16:14:50.854Z</time>
      </trkpt>
      <trkpt lat="43.98774" lon="5.08744">
        <ele>165</ele>
        <time>2019-12-08T16:14:51.854Z</time>
      </trkpt>
      <trkpt lat="43.98781" lon="5.08708">
        <ele>163</ele>
        <time>2019-12-08T16:14:52.854Z</time>
      </trkpt>
      <trkpt lat="43.98783" lon="5.08699">
        <ele>163</ele>
        <time>2019-12-08T16:14:53.854Z</time>
      </trkpt>
      <trkpt lat="43.98793" lon="5.08673">
        <ele>161</ele>
        <time>2019-12-08T16:14:54.854Z</time>
      </trkpt>
      <trkpt lat="43.98805" lon="5.08646">
        <ele>160</ele>
        <time>2019-12-08T16:14:55.854Z</time>
      </trkpt>
      <trkpt lat="43.98812" lon="5.08626">
        <ele>159</ele>
        <time>2019-12-08T16:14:56.854Z</time>
      </trkpt>
      <trkpt lat="43.98815" lon="5.08617">
        <ele>158</ele>
        <time>2019-12-08T16:14:57.854Z</time>
      </trkpt>
      <trkpt lat="43.98826" lon="5.08575">
        <ele>157</ele>
        <time>2019-12-08T16:14:58.854Z</time>
      </trkpt>
      <trkpt lat="43.98838" lon="5.08533">
        <ele>155</ele>
        <time>2019-12-08T16:14:59.854Z</time>
      </trkpt>
      <trkpt lat="43.98851" lon="5.08503">
        <ele>153</ele>
        <time>2019-12-08T16:15:00.854Z</time>
      </trkpt>
      <trkpt lat="43.98862" lon="5.0847">
        <ele>150</ele>
        <time>2019-12-08T16:15:01.854Z</time>
      </trkpt>
      <trkpt lat="43.98866" lon="5.08458">
        <ele>149</ele>
        <time>2019-12-08T16:15:02.854Z</time>
      </trkpt>
      <trkpt lat="43.98869" lon="5.08446">
        <ele>148</ele>
        <time>2019-12-08T16:15:03.854Z</time>
      </trkpt>
      <trkpt lat="43.98874" lon="5.08422">
        <ele>146</ele>
        <time>2019-12-08T16:15:04.854Z</time>
      </trkpt>
      <trkpt lat="43.9888" lon="5.08395">
        <ele>143</ele>
        <time>2019-12-08T16:15:05.854Z</time>
      </trkpt>
      <trkpt lat="43.98881" lon="5.0838">
        <ele>142</ele>
        <time>2019-12-08T16:15:06.854Z</time>
      </trkpt>
      <trkpt lat="43.98883" lon="5.08366">
        <ele>140</ele>
        <time>2019-12-08T16:15:07.854Z</time>
      </trkpt>
      <trkpt lat="43.98887" lon="5.08353">
        <ele>139</ele>
        <time>2019-12-08T16:15:08.854Z</time>
      </trkpt>
      <trkpt lat="43.98892" lon="5.0834">
        <ele>137</ele>
        <time>2019-12-08T16:15:09.854Z</time>
      </trkpt>
      <trkpt lat="43.98909" lon="5.08303">
        <ele>133</ele>
        <time>2019-12-08T16:15:10.854Z</time>
      </trkpt>
      <trkpt lat="43.98914" lon="5.0829">
        <ele>132</ele>
        <time>2019-12-08T16:15:11.854Z</time>
      </trkpt>
      <trkpt lat="43.98918" lon="5.08277">
        <ele>131</ele>
        <time>2019-12-08T16:15:12.854Z</time>
      </trkpt>
      <trkpt lat="43.98927" lon="5.08238">
        <ele>129</ele>
        <time>2019-12-08T16:15:13.854Z</time>
      </trkpt>
      <trkpt lat="43.9893" lon="5.08226">
        <ele>128</ele>
        <time>2019-12-08T16:15:14.854Z</time>
      </trkpt>
      <trkpt lat="43.98939" lon="5.08203">
        <ele>128</ele>
        <time>2019-12-08T16:15:15.854Z</time>
      </trkpt>
      <trkpt lat="43.98945" lon="5.08194">
        <ele>127</ele>
        <time>2019-12-08T16:15:16.854Z</time>
      </trkpt>
      <trkpt lat="43.9895" lon="5.08184">
        <ele>127</ele>
        <time>2019-12-08T16:15:17.854Z</time>
      </trkpt>
      <trkpt lat="43.98973" lon="5.08135">
        <ele>125</ele>
        <time>2019-12-08T16:15:18.854Z</time>
      </trkpt>
      <trkpt lat="43.98978" lon="5.08125">
        <ele>124</ele>
        <time>2019-12-08T16:15:19.854Z</time>
      </trkpt>
      <trkpt lat="43.9899" lon="5.08106">
        <ele>123</ele>
        <time>2019-12-08T16:15:20.854Z</time>
      </trkpt>
      <trkpt lat="43.99014" lon="5.08074">
        <ele>122</ele>
        <time>2019-12-08T16:15:21.854Z</time>
      </trkpt>
      <trkpt lat="43.99025" lon="5.08058">
        <ele>121</ele>
        <time>2019-12-08T16:15:22.854Z</time>
      </trkpt>
      <trkpt lat="43.99028" lon="5.08049">
        <ele>121</ele>
        <time>2019-12-08T16:15:23.854Z</time>
      </trkpt>
      <trkpt lat="43.99033" lon="5.08027">
        <ele>121</ele>
        <time>2019-12-08T16:15:24.854Z</time>
      </trkpt>
      <trkpt lat="43.99036" lon="5.08015">
        <ele>121</ele>
        <time>2019-12-08T16:15:25.854Z</time>
      </trkpt>
      <trkpt lat="43.99043" lon="5.07993">
        <ele>120</ele>
        <time>2019-12-08T16:15:26.854Z</time>
      </trkpt>
      <trkpt lat="43.99048" lon="5.07974">
        <ele>120</ele>
        <time>2019-12-08T16:15:27.854Z</time>
      </trkpt>
      <trkpt lat="43.99059" lon="5.07937">
        <ele>119</ele>
        <time>2019-12-08T16:15:28.854Z</time>
      </trkpt>
      <trkpt lat="43.99061" lon="5.07931">
        <ele>118</ele>
        <time>2019-12-08T16:15:29.854Z</time>
      </trkpt>
      <trkpt lat="43.99067" lon="5.07918">
        <ele>118</ele>
        <time>2019-12-08T16:15:30.854Z</time>
      </trkpt>
      <trkpt lat="43.99075" lon="5.07902">
        <ele>118</ele>
        <time>2019-12-08T16:15:31.854Z</time>
      </trkpt>
      <trkpt lat="43.99074" lon="5.07896">
        <ele>118</ele>
        <time>2019-12-08T16:15:32.854Z</time>
      </trkpt>
      <trkpt lat="43.99064" lon="5.0787">
        <ele>117</ele>
        <time>2019-12-08T16:15:33.854Z</time>
      </trkpt>
      <trkpt lat="43.9904" lon="5.07831">
        <ele>116</ele>
        <time>2019-12-08T16:15:34.854Z</time>
      </trkpt>
      <trkpt lat="43.99021" lon="5.07803">
        <ele>116</ele>
        <time>2019-12-08T16:15:35.854Z</time>
      </trkpt>
      <trkpt lat="43.98951" lon="5.07719">
        <ele>116</ele>
        <time>2019-12-08T16:15:36.854Z</time>
      </trkpt>
      <trkpt lat="43.98928" lon="5.07688">
        <ele>117</ele>
        <time>2019-12-08T16:15:37.854Z</time>
      </trkpt>
      <trkpt lat="43.9885" lon="5.07564">
        <ele>119</ele>
        <time>2019-12-08T16:15:38.854Z</time>
      </trkpt>
      <trkpt lat="43.98821" lon="5.07517">
        <ele>120</ele>
        <time>2019-12-08T16:15:39.854Z</time>
      </trkpt>
      <trkpt lat="43.98809" lon="5.07495">
        <ele>121</ele>
        <time>2019-12-08T16:15:40.854Z</time>
      </trkpt>
      <trkpt lat="43.98809" lon="5.07496">
        <ele>121</ele>
        <time>2019-12-08T16:15:41.854Z</time>
      </trkpt>
      <trkpt lat="43.98809" lon="5.07496">
        <ele>121</ele>
        <time>2019-12-08T16:15:42.854Z</time>
      </trkpt>
      <trkpt lat="43.98808" lon="5.07496">
        <ele>121</ele>
        <time>2019-12-08T16:15:43.854Z</time>
      </trkpt>
      <trkpt lat="43.98808" lon="5.07495">
        <ele>121</ele>
        <time>2019-12-08T16:15:44.854Z</time>
      </trkpt>
      <trkpt lat="43.98807" lon="5.07491">
        <ele>121</ele>
        <time>2019-12-08T16:15:45.854Z</time>
      </trkpt>
      <trkpt lat="43.98815" lon="5.07482">
        <ele>121</ele>
        <time>2019-12-08T16:15:46.854Z</time>
      </trkpt>
      <trkpt lat="43.98835" lon="5.07461">
        <ele>121</ele>
        <time>2019-12-08T16:15:47.854Z</time>
      </trkpt>
      <trkpt lat="43.98856" lon="5.07449">
        <ele>120</ele>
        <time>2019-12-08T16:15:48.854Z</time>
      </trkpt>
      <trkpt lat="43.98937" lon="5.07399">
        <ele>119</ele>
        <time>2019-12-08T16:15:49.854Z</time>
      </trkpt>
      <trkpt lat="43.9896" lon="5.07389">
        <ele>118</ele>
        <time>2019-12-08T16:15:50.854Z</time>
      </trkpt>
      <trkpt lat="43.98966" lon="5.07383">
        <ele>118</ele>
        <time>2019-12-08T16:15:51.854Z</time>
      </trkpt>
      <trkpt lat="43.98967" lon="5.07383">
        <ele>118</ele>
        <time>2019-12-08T16:15:52.854Z</time>
      </trkpt>
      <trkpt lat="43.98968" lon="5.07379">
        <ele>118</ele>
        <time>2019-12-08T16:15:53.854Z</time>
      </trkpt>
      <trkpt lat="43.9897" lon="5.07373">
        <ele>118</ele>
        <time>2019-12-08T16:15:54.854Z</time>
      </trkpt>
      <trkpt lat="43.98977" lon="5.07373">
        <ele>118</ele>
        <time>2019-12-08T16:15:55.854Z</time>
      </trkpt>
      <trkpt lat="43.9898" lon="5.0737">
        <ele>118</ele>
        <time>2019-12-08T16:15:56.854Z</time>
      </trkpt>
      <trkpt lat="43.98988" lon="5.07356">
        <ele>118</ele>
        <time>2019-12-08T16:15:57.854Z</time>
      </trkpt>
      <trkpt lat="43.99" lon="5.07339">
        <ele>119</ele>
        <time>2019-12-08T16:15:58.854Z</time>
      </trkpt>
      <trkpt lat="43.99014" lon="5.07331">
        <ele>118</ele>
        <time>2019-12-08T16:15:59.854Z</time>
      </trkpt>
      <trkpt lat="43.99032" lon="5.07334">
        <ele>117</ele>
        <time>2019-12-08T16:16:00.854Z</time>
      </trkpt>
      <trkpt lat="43.99053" lon="5.07331">
        <ele>115</ele>
        <time>2019-12-08T16:16:01.854Z</time>
      </trkpt>
      <trkpt lat="43.99059" lon="5.07331">
        <ele>115</ele>
        <time>2019-12-08T16:16:02.854Z</time>
      </trkpt>
      <trkpt lat="43.99067" lon="5.07334">
        <ele>114</ele>
        <time>2019-12-08T16:16:03.854Z</time>
      </trkpt>
      <trkpt lat="43.99074" lon="5.07338">
        <ele>113</ele>
        <time>2019-12-08T16:16:04.854Z</time>
      </trkpt>
      <trkpt lat="43.9908" lon="5.07337">
        <ele>113</ele>
        <time>2019-12-08T16:16:05.854Z</time>
      </trkpt>
      <trkpt lat="43.9909" lon="5.07328">
        <ele>113</ele>
        <time>2019-12-08T16:16:06.854Z</time>
      </trkpt>
      <trkpt lat="43.99102" lon="5.07316">
        <ele>113</ele>
        <time>2019-12-08T16:16:07.854Z</time>
      </trkpt>
      <trkpt lat="43.99108" lon="5.07308">
        <ele>113</ele>
        <time>2019-12-08T16:16:08.854Z</time>
      </trkpt>
      <trkpt lat="43.99119" lon="5.07294">
        <ele>114</ele>
        <time>2019-12-08T16:16:09.854Z</time>
      </trkpt>
      <trkpt lat="43.99137" lon="5.07277">
        <ele>113</ele>
        <time>2019-12-08T16:16:10.854Z</time>
      </trkpt>
      <trkpt lat="43.99143" lon="5.07271">
        <ele>113</ele>
        <time>2019-12-08T16:16:11.854Z</time>
      </trkpt>
      <trkpt lat="43.99168" lon="5.07239">
        <ele>112</ele>
        <time>2019-12-08T16:16:12.854Z</time>
      </trkpt>
      <trkpt lat="43.99173" lon="5.07232">
        <ele>111</ele>
        <time>2019-12-08T16:16:13.854Z</time>
      </trkpt>
      <trkpt lat="43.99192" lon="5.07201">
        <ele>109</ele>
        <time>2019-12-08T16:16:14.854Z</time>
      </trkpt>
      <trkpt lat="43.99205" lon="5.07176">
        <ele>108</ele>
        <time>2019-12-08T16:16:15.854Z</time>
      </trkpt>
      <trkpt lat="43.9922" lon="5.07155">
        <ele>107</ele>
        <time>2019-12-08T16:16:16.854Z</time>
      </trkpt>
      <trkpt lat="43.9924" lon="5.07145">
        <ele>106</ele>
        <time>2019-12-08T16:16:17.854Z</time>
      </trkpt>
      <trkpt lat="43.99248" lon="5.07142">
        <ele>106</ele>
        <time>2019-12-08T16:16:18.854Z</time>
      </trkpt>
      <trkpt lat="43.99254" lon="5.07137">
        <ele>105</ele>
        <time>2019-12-08T16:16:19.854Z</time>
      </trkpt>
      <trkpt lat="43.99268" lon="5.0713">
        <ele>105</ele>
        <time>2019-12-08T16:16:20.854Z</time>
      </trkpt>
      <trkpt lat="43.99275" lon="5.07127">
        <ele>105</ele>
        <time>2019-12-08T16:16:21.854Z</time>
      </trkpt>
      <trkpt lat="43.9929" lon="5.07128">
        <ele>104</ele>
        <time>2019-12-08T16:16:22.854Z</time>
      </trkpt>
      <trkpt lat="43.99298" lon="5.07129">
        <ele>104</ele>
        <time>2019-12-08T16:16:23.854Z</time>
      </trkpt>
      <trkpt lat="43.99305" lon="5.07131">
        <ele>104</ele>
        <time>2019-12-08T16:16:24.854Z</time>
      </trkpt>
      <trkpt lat="43.99387" lon="5.07161">
        <ele>101</ele>
        <time>2019-12-08T16:16:25.854Z</time>
      </trkpt>
      <trkpt lat="43.99393" lon="5.07163">
        <ele>101</ele>
        <time>2019-12-08T16:16:26.854Z</time>
      </trkpt>
      <trkpt lat="43.99413" lon="5.07166">
        <ele>100</ele>
        <time>2019-12-08T16:16:27.854Z</time>
      </trkpt>
      <trkpt lat="43.99416" lon="5.07163">
        <ele>100</ele>
        <time>2019-12-08T16:16:28.854Z</time>
      </trkpt>
      <trkpt lat="43.99422" lon="5.07152">
        <ele>100</ele>
        <time>2019-12-08T16:16:29.854Z</time>
      </trkpt>
      <trkpt lat="43.99434" lon="5.07121">
        <ele>100</ele>
        <time>2019-12-08T16:16:30.854Z</time>
      </trkpt>
      <trkpt lat="43.9945" lon="5.07068">
        <ele>99</ele>
        <time>2019-12-08T16:16:31.854Z</time>
      </trkpt>
      <trkpt lat="43.99458" lon="5.07008">
        <ele>99</ele>
        <time>2019-12-08T16:16:32.854Z</time>
      </trkpt>
      <trkpt lat="43.99465" lon="5.06959">
        <ele>99</ele>
        <time>2019-12-08T16:16:33.854Z</time>
      </trkpt>
      <trkpt lat="43.99469" lon="5.06919">
        <ele>98</ele>
        <time>2019-12-08T16:16:34.854Z</time>
      </trkpt>
      <trkpt lat="43.99475" lon="5.06873">
        <ele>98</ele>
        <time>2019-12-08T16:16:35.854Z</time>
      </trkpt>
      <trkpt lat="43.99479" lon="5.06869">
        <ele>98</ele>
        <time>2019-12-08T16:16:36.854Z</time>
      </trkpt>
      <trkpt lat="43.99489" lon="5.06875">
        <ele>98</ele>
        <time>2019-12-08T16:16:37.854Z</time>
      </trkpt>
      <trkpt lat="43.99512" lon="5.06898">
        <ele>98</ele>
        <time>2019-12-08T16:16:38.854Z</time>
      </trkpt>
      <trkpt lat="43.99519" lon="5.06904">
        <ele>98</ele>
        <time>2019-12-08T16:16:39.854Z</time>
      </trkpt>
      <trkpt lat="43.9955" lon="5.0693">
        <ele>98</ele>
        <time>2019-12-08T16:16:40.854Z</time>
      </trkpt>
      <trkpt lat="43.99602" lon="5.06971">
        <ele>98</ele>
        <time>2019-12-08T16:16:41.854Z</time>
      </trkpt>
      <trkpt lat="43.99611" lon="5.06976">
        <ele>98</ele>
        <time>2019-12-08T16:16:42.854Z</time>
      </trkpt>
      <trkpt lat="43.99616" lon="5.06969">
        <ele>98</ele>
        <time>2019-12-08T16:16:43.854Z</time>
      </trkpt>
      <trkpt lat="43.99623" lon="5.06937">
        <ele>98</ele>
        <time>2019-12-08T16:16:44.854Z</time>
      </trkpt>
      <trkpt lat="43.99635" lon="5.06916">
        <ele>98</ele>
        <time>2019-12-08T16:16:45.854Z</time>
      </trkpt>
      <trkpt lat="43.99672" lon="5.06859">
        <ele>96</ele>
        <time>2019-12-08T16:16:46.854Z</time>
      </trkpt>
      <trkpt lat="43.99719" lon="5.06793">
        <ele>94</ele>
        <time>2019-12-08T16:16:47.854Z</time>
      </trkpt>
      <trkpt lat="43.99725" lon="5.06784">
        <ele>94</ele>
        <time>2019-12-08T16:16:48.854Z</time>
      </trkpt>
      <trkpt lat="43.99731" lon="5.06791">
        <ele>94</ele>
        <time>2019-12-08T16:16:49.854Z</time>
      </trkpt>
      <trkpt lat="43.99736" lon="5.06815">
        <ele>94</ele>
        <time>2019-12-08T16:16:50.854Z</time>
      </trkpt>
      <trkpt lat="43.9975" lon="5.06874">
        <ele>96</ele>
        <time>2019-12-08T16:16:51.854Z</time>
      </trkpt>
      <trkpt lat="43.99762" lon="5.0692">
        <ele>97</ele>
        <time>2019-12-08T16:16:52.854Z</time>
      </trkpt>
      <trkpt lat="43.99766" lon="5.06926">
        <ele>97</ele>
        <time>2019-12-08T16:16:53.854Z</time>
      </trkpt>
      <trkpt lat="43.99775" lon="5.06926">
        <ele>96</ele>
        <time>2019-12-08T16:16:54.854Z</time>
      </trkpt>
      <trkpt lat="43.99786" lon="5.0691">
        <ele>96</ele>
        <time>2019-12-08T16:16:55.854Z</time>
      </trkpt>
      <trkpt lat="43.99798" lon="5.06896">
        <ele>95</ele>
        <time>2019-12-08T16:16:56.854Z</time>
      </trkpt>
      <trkpt lat="43.99807" lon="5.06892">
        <ele>95</ele>
        <time>2019-12-08T16:16:57.854Z</time>
      </trkpt>
      <trkpt lat="43.9982" lon="5.06879">
        <ele>94</ele>
        <time>2019-12-08T16:16:58.854Z</time>
      </trkpt>
      <trkpt lat="43.99821" lon="5.06876">
        <ele>94</ele>
        <time>2019-12-08T16:16:59.854Z</time>
      </trkpt>
      <trkpt lat="43.99825" lon="5.06873">
        <ele>94</ele>
        <time>2019-12-08T16:17:00.854Z</time>
      </trkpt>
      <trkpt lat="43.99833" lon="5.06868">
        <ele>94</ele>
        <time>2019-12-08T16:17:01.854Z</time>
      </trkpt>
      <trkpt lat="43.99841" lon="5.06864">
        <ele>94</ele>
        <time>2019-12-08T16:17:02.854Z</time>
      </trkpt>
      <trkpt lat="43.99854" lon="5.06856">
        <ele>94</ele>
        <time>2019-12-08T16:17:03.854Z</time>
      </trkpt>
      <trkpt lat="43.99855" lon="5.06855">
        <ele>94</ele>
        <time>2019-12-08T16:17:04.854Z</time>
      </trkpt>
      <trkpt lat="43.99857" lon="5.06855">
        <ele>94</ele>
        <time>2019-12-08T16:17:05.854Z</time>
      </trkpt>
      <trkpt lat="43.99867" lon="5.06844">
        <ele>94</ele>
        <time>2019-12-08T16:17:06.854Z</time>
      </trkpt>
      <trkpt lat="43.99869" lon="5.06842">
        <ele>94</ele>
        <time>2019-12-08T16:17:07.854Z</time>
      </trkpt>
      <trkpt lat="43.99872" lon="5.06838">
        <ele>94</ele>
        <time>2019-12-08T16:17:08.854Z</time>
      </trkpt>
      <trkpt lat="43.99873" lon="5.06832">
        <ele>93</ele>
        <time>2019-12-08T16:17:09.854Z</time>
      </trkpt>
      <trkpt lat="43.99874" lon="5.06825">
        <ele>93</ele>
        <time>2019-12-08T16:17:10.854Z</time>
      </trkpt>
      <trkpt lat="43.99877" lon="5.06811">
        <ele>93</ele>
        <time>2019-12-08T16:17:11.854Z</time>
      </trkpt>
      <trkpt lat="43.99878" lon="5.06804">
        <ele>93</ele>
        <time>2019-12-08T16:17:12.854Z</time>
      </trkpt>
      <trkpt lat="43.99882" lon="5.06779">
        <ele>92</ele>
        <time>2019-12-08T16:17:13.854Z</time>
      </trkpt>
    </trkseg>
  </trk>
</gpx>